[[{"header":{"parameterUnit":"m.s-1","parameterCategory":1,"la1":30.6,"la2":29.2853,"lo1":-89.7004,"lo2":-87.6739,"dy":0.0162,"dx":0.0183,"nx":112,"ny":82,"refTime":"2024-05-19T12:00:00:Z","depth":0,"parameterNumber":2,"parameterNumberName":"U-component_of_WINDS"},"data":[0.0,0.0,0.0,0.0,0.0,0.0,0.0,0.0,0.0,0.0,0.0,0.0,0.0,0.0,0.0,0.0,0.0,0.0,0.0,0.0,0.0,0.0,0.0,0.0,0.0,0.0,0.0,0.0,0.0,0.0,0.0,0.0,0.0,0.0,0.0,0.0,0.0,0.0,0.0,0.0,0.0,0.0,0.0,0.0,0.0,0.0,0.0,0.0,0.0,0.0,0.0,0.0,0.0,0.0,0.0,0.0,0.0,0.0,0.0,0.0,0.0,0.0,0.0,0.0,0.0,0.0,0.0,0.0,0.0,0.0,0.0,0.0,0.0,0.0,0.0,0.0,0.0,0.0,0.0,0.0,0.0,0.0,0.0,0.0,0.0,0.0,0.0,0.0,0.0,0.0,0.0,-2.0555,-2.1755,-2.2781,-2.3583,-2.2937,-2.1579,-1.9387,0.0,0.0,0.0,0.0,0.0,0.0,0.0,0.0,0.0,0.0,0.0,0.0,0.0,0.0,0.0,0.0,0.0,0.0,0.0,0.0,0.0,0.0,0.0,0.0,0.0,0.0,0.0,0.0,0.0,0.0,0.0,0.0,0.0,0.0,0.0,0.0,0.0,0.0,0.0,0.0,0.0,0.0,0.0,0.0,0.0,0.0,0.0,0.0,0.0,0.0,0.0,0.0,0.0,0.0,0.0,0.0,0.0,0.0,0.0,0.0,0.0,0.0,0.0,0.0,0.0,0.0,0.0,0.0,0.0,0.0,0.0,0.0,0.0,0.0,0.0,0.0,0.0,0.0,0.0,0.0,0.0,0.0,0.0,0.0,0.0,0.0,0.0,0.0,0.0,0.0,0.0,0.0,0.0,0.0,0.0,0.0,0.0,0.0,0.0,0.0,0.0,0.0,0.0,0.0,-1.9469,-2.3408,-2.3475,-2.3543,-2.4286,-2.3215,-2.1748,-1.9984,0.0,0.0,0.0,0.0,0.0,0.0,0.0,0.0,0.0,0.0,0.0,0.0,0.0,0.0,0.0,0.0,0.0,0.0,0.0,0.0,0.0,0.0,0.0,0.0,0.0,0.0,0.0,0.0,0.0,0.0,0.0,0.0,0.0,0.0,0.0,0.0,0.0,0.0,0.0,0.0,0.0,0.0,0.0,0.0,0.0,0.0,0.0,0.0,0.0,0.0,0.0,0.0,0.0,0.0,0.0,0.0,0.0,0.0,0.0,0.0,0.0,0.0,0.0,0.0,0.0,0.0,0.0,0.0,0.0,0.0,0.0,0.0,0.0,0.0,0.0,0.0,0.0,0.0,0.0,0.0,0.0,0.0,0.0,0.0,0.0,0.0,0.0,0.0,0.0,0.0,0.0,0.0,0.0,0.0,0.0,0.0,0.0,0.0,0.0,0.0,0.0,0.0,0.0,-1.8961,-2.0886,-2.4152,-2.4203,-2.415,-2.452,-2.3612,-2.2197,-2.023,-1.8398,0.0,0.0,0.0,0.0,0.0,0.0,0.0,0.0,0.0,0.0,0.0,0.0,0.0,0.0,0.0,0.0,0.0,0.0,0.0,0.0,0.0,0.0,0.0,0.0,0.0,0.0,0.0,0.0,0.0,0.0,0.0,0.0,0.0,0.0,0.0,0.0,0.0,0.0,0.0,0.0,0.0,0.0,0.0,0.0,0.0,0.0,0.0,0.0,0.0,0.0,0.0,0.0,0.0,0.0,0.0,0.0,0.0,0.0,0.0,0.0,0.0,0.0,0.0,0.0,0.0,0.0,0.0,0.0,0.0,0.0,0.0,0.0,0.0,0.0,0.0,0.0,0.0,0.0,0.0,0.0,0.0,0.0,0.0,0.0,0.0,0.0,0.0,0.0,0.0,0.0,0.0,0.0,0.0,0.0,0.0,0.0,0.0,0.0,0.0,0.0,0.0,0.0,-2.094,-2.2629,-2.4321,-2.466,-2.4709,-2.4588,-2.3767,-2.2357,-2.0272,-1.8052,0.0,0.0,0.0,0.0,0.0,0.0,0.0,0.0,0.0,0.0,0.0,0.0,0.0,0.0,0.0,0.0,0.0,0.0,0.0,0.0,0.0,0.0,0.0,0.0,0.0,0.0,0.0,0.0,0.0,0.0,0.0,0.0,0.0,0.0,0.0,0.0,0.0,0.0,0.0,0.0,0.0,0.0,0.0,0.0,0.0,0.0,0.0,0.0,0.0,0.0,0.0,0.0,0.0,0.0,0.0,0.0,0.0,0.0,0.0,0.0,0.0,0.0,0.0,0.0,0.0,0.0,0.0,0.0,0.0,0.0,0.0,0.0,0.0,0.0,0.0,0.0,0.0,0.0,0.0,0.0,0.0,0.0,0.0,0.0,0.0,0.0,0.0,0.0,0.0,0.0,0.0,0.0,0.0,0.0,0.0,0.0,0.0,0.0,0.0,0.0,0.0,0.0,-2.1647,-2.4321,-2.4474,-2.5101,-2.5253,-2.4558,-2.3262,-2.1769,-2.0128,-1.8041,0.0,0.0,0.0,0.0,0.0,0.0,0.0,0.0,0.0,0.0,0.0,0.0,0.0,0.0,0.0,0.0,0.0,0.0,0.0,0.0,0.0,0.0,0.0,0.0,0.0,0.0,0.0,0.0,0.0,0.0,0.0,0.0,0.0,0.0,0.0,0.0,0.0,0.0,0.0,0.0,0.0,0.0,0.0,0.0,0.0,0.0,0.0,0.0,0.0,0.0,0.0,0.0,0.0,0.0,0.0,0.0,0.0,0.0,0.0,0.0,0.0,0.0,0.0,0.0,0.0,0.0,0.0,0.0,0.0,0.0,0.0,0.0,0.0,0.0,0.0,0.0,0.0,0.0,0.0,0.0,0.0,0.0,0.0,0.0,0.0,0.0,0.0,0.0,0.0,0.0,0.0,0.0,0.0,0.0,0.0,0.0,0.0,0.0,0.0,0.0,0.0,0.0,-2.1194,-2.3477,0.0,-2.5574,-2.5795,-2.4592,-2.4045,-2.2499,-1.9502,0.0,0.0,0.0,0.0,0.0,0.0,0.0,0.0,0.0,0.0,0.0,0.0,0.0,0.0,0.0,0.0,0.0,0.0,0.0,0.0,0.0,0.0,0.0,0.0,0.0,0.0,0.0,0.0,0.0,0.0,0.0,0.0,0.0,0.0,0.0,0.0,0.0,0.0,0.0,0.0,0.0,0.0,0.0,0.0,0.0,0.0,0.0,0.0,0.0,0.0,0.0,0.0,0.0,0.0,0.0,0.0,0.0,0.0,0.0,0.0,0.0,0.0,0.0,0.0,0.0,0.0,0.0,0.0,0.0,0.0,0.0,0.0,0.0,0.0,0.0,0.0,0.0,0.0,0.0,0.0,0.0,0.0,0.0,0.0,0.0,0.0,0.0,0.0,0.0,0.0,0.0,0.0,0.0,0.0,0.0,0.0,0.0,0.0,0.0,0.0,0.0,0.0,-1.8606,-2.1498,-2.3646,0.0,-2.5609,-2.593,-2.4931,-2.425,-2.2657,-1.9802,0.0,0.0,0.0,0.0,0.0,0.0,0.0,0.0,0.0,0.0,0.0,0.0,0.0,0.0,0.0,0.0,0.0,0.0,0.0,0.0,0.0,0.0,0.0,0.0,0.0,0.0,0.0,0.0,0.0,0.0,0.0,0.0,0.0,0.0,0.0,0.0,0.0,0.0,0.0,0.0,0.0,0.0,0.0,0.0,0.0,0.0,0.0,0.0,0.0,0.0,0.0,0.0,0.0,0.0,0.0,0.0,0.0,0.0,0.0,0.0,0.0,0.0,0.0,0.0,0.0,0.0,0.0,0.0,0.0,0.0,0.0,0.0,0.0,0.0,0.0,0.0,0.0,0.0,0.0,0.0,0.0,0.0,0.0,0.0,0.0,0.0,0.0,0.0,0.0,0.0,0.0,0.0,0.0,0.0,0.0,0.0,0.0,0.0,0.0,0.0,0.0,0.0,-1.8826,-2.2835,-2.5321,-2.4575,-2.5152,-2.5592,-2.5592,-2.3581,-2.1989,0.0,0.0,0.0,0.0,0.0,0.0,0.0,0.0,0.0,0.0,0.0,0.0,0.0,0.0,0.0,0.0,0.0,0.0,0.0,0.0,0.0,0.0,0.0,0.0,0.0,0.0,0.0,0.0,0.0,0.0,0.0,0.0,0.0,0.0,0.0,0.0,0.0,0.0,0.0,0.0,0.0,0.0,0.0,0.0,0.0,0.0,0.0,0.0,0.0,0.0,0.0,0.0,0.0,0.0,0.0,0.0,0.0,0.0,0.0,0.0,0.0,0.0,0.0,0.0,0.0,0.0,0.0,0.0,0.0,0.0,0.0,0.0,0.0,0.0,0.0,0.0,0.0,0.0,0.0,0.0,0.0,0.0,0.0,0.0,0.0,0.0,0.0,0.0,0.0,0.0,0.0,0.0,0.0,0.0,0.0,0.0,0.0,0.0,0.0,0.0,0.0,0.0,0.0,-1.9507,-2.3141,-2.5321,-2.4575,-2.5152,-2.5592,-2.5592,-2.4098,-2.2349,-2.0471,0.0,0.0,0.0,0.0,0.0,0.0,0.0,0.0,0.0,0.0,0.0,0.0,0.0,0.0,0.0,0.0,0.0,0.0,0.0,0.0,0.0,0.0,0.0,0.0,0.0,0.0,0.0,0.0,0.0,0.0,0.0,0.0,0.0,0.0,0.0,0.0,0.0,0.0,0.0,0.0,0.0,0.0,0.0,0.0,0.0,0.0,0.0,0.0,0.0,0.0,0.0,0.0,0.0,0.0,0.0,0.0,0.0,0.0,0.0,0.0,0.0,0.0,0.0,0.0,0.0,0.0,0.0,0.0,0.0,0.0,0.0,0.0,0.0,0.0,0.0,0.0,0.0,0.0,0.0,0.0,0.0,0.0,0.0,0.0,0.0,0.0,0.0,0.0,0.0,0.0,0.0,0.0,0.0,0.0,0.0,0.0,0.0,0.0,0.0,0.0,0.0,0.0,-2.0251,-2.3731,-2.5761,-2.5017,-2.5338,-2.5592,-2.5592,-2.4269,-2.2725,-2.1028,0.0,0.0,0.0,0.0,0.0,0.0,0.0,0.0,0.0,0.0,0.0,0.0,0.0,0.0,0.0,0.0,0.0,0.0,0.0,0.0,0.0,0.0,0.0,0.0,0.0,0.0,0.0,0.0,0.0,0.0,0.0,0.0,0.0,0.0,0.0,0.0,0.0,0.0,0.0,0.0,0.0,0.0,0.0,0.0,0.0,0.0,0.0,0.0,0.0,0.0,0.0,0.0,0.0,0.0,0.0,0.0,0.0,0.0,0.0,0.0,0.0,0.0,0.0,0.0,0.0,0.0,0.0,0.0,0.0,0.0,0.0,0.0,0.0,0.0,0.0,0.0,0.0,0.0,0.0,0.0,0.0,0.0,0.0,0.0,0.0,0.0,0.0,0.0,0.0,0.0,0.0,0.0,0.0,0.0,0.0,0.0,0.0,0.0,0.0,0.0,0.0,0.0,-2.1004,-2.4474,-2.642,-2.5693,-2.5592,-2.5592,-2.5592,-2.4306,-2.3156,-2.2347,0.0,0.0,0.0,0.0,0.0,0.0,0.0,0.0,0.0,0.0,0.0,0.0,0.0,0.0,0.0,0.0,0.0,0.0,0.0,0.0,0.0,0.0,0.0,0.0,0.0,0.0,0.0,0.0,0.0,0.0,0.0,0.0,0.0,0.0,0.0,0.0,0.0,0.0,0.0,0.0,0.0,0.0,0.0,0.0,0.0,0.0,0.0,0.0,0.0,0.0,0.0,0.0,0.0,0.0,0.0,0.0,0.0,0.0,0.0,0.0,-1.7126,0.0,0.0,0.0,0.0,0.0,0.0,0.0,0.0,0.0,0.0,0.0,0.0,0.0,0.0,0.0,0.0,0.0,0.0,0.0,0.0,0.0,0.0,0.0,0.0,0.0,0.0,0.0,0.0,0.0,0.0,0.0,0.0,0.0,0.0,0.0,0.0,0.0,0.0,0.0,0.0,0.0,-2.1769,-2.478,-2.642,-2.5693,-2.5592,-2.5592,-2.5592,-2.478,-2.3697,-2.2381,-1.9875,0.0,0.0,0.0,0.0,0.0,0.0,0.0,0.0,0.0,0.0,0.0,0.0,0.0,0.0,0.0,0.0,0.0,0.0,0.0,0.0,0.0,0.0,0.0,0.0,0.0,0.0,0.0,0.0,0.0,0.0,0.0,0.0,0.0,0.0,0.0,0.0,0.0,0.0,0.0,0.0,0.0,0.0,0.0,0.0,0.0,0.0,0.0,0.0,0.0,0.0,0.0,0.0,0.0,0.0,0.0,0.0,0.0,0.0,0.0,0.0,-1.9247,0.0,0.0,0.0,0.0,0.0,0.0,0.0,0.0,0.0,0.0,0.0,0.0,0.0,0.0,0.0,0.0,0.0,0.0,0.0,0.0,0.0,0.0,0.0,0.0,0.0,0.0,0.0,0.0,0.0,0.0,0.0,0.0,0.0,0.0,0.0,0.0,0.0,0.0,0.0,0.0,-2.2547,-2.5084,-2.6539,-2.6167,-2.6133,-2.5845,-2.5118,-2.505,-2.4255,-2.2415,-2.0856,0.0,0.0,0.0,0.0,0.0,0.0,0.0,0.0,0.0,0.0,0.0,0.0,0.0,0.0,0.0,0.0,0.0,0.0,0.0,0.0,0.0,0.0,0.0,0.0,0.0,0.0,0.0,0.0,0.0,0.0,0.0,0.0,0.0,0.0,0.0,0.0,0.0,0.0,0.0,0.0,0.0,0.0,0.0,0.0,0.0,0.0,0.0,0.0,0.0,0.0,0.0,0.0,0.0,-2.5077,-2.6059,-2.7678,-2.7816,-2.7819,-2.7514,-2.3815,-2.2577,-2.309,-2.1985,0.0,0.0,0.0,0.0,0.0,0.0,0.0,0.0,0.0,0.0,0.0,0.0,0.0,0.0,0.0,0.0,0.0,0.0,0.0,0.0,0.0,0.0,0.0,0.0,-2.4338,-2.4051,-2.1688,0.0,0.0,0.0,0.0,0.0,0.0,0.0,0.0,0.0,0.0,0.0,-2.3291,-2.5287,-2.6556,-2.6691,-2.6691,-2.6099,-2.4626,-2.5287,-2.4847,-2.2634,-2.1921,-2.0953,0.0,0.0,0.0,0.0,0.0,0.0,0.0,0.0,0.0,0.0,0.0,0.0,0.0,0.0,0.0,0.0,0.0,0.0,0.0,0.0,0.0,0.0,0.0,0.0,0.0,0.0,0.0,0.0,0.0,0.0,0.0,0.0,-1.601,-1.8284,0.0,0.0,0.0,0.0,0.0,0.0,0.0,0.0,0.0,0.0,0.0,0.0,0.0,-2.4663,-2.7178,-2.7937,-2.8438,-2.8765,-3.011,-3.0213,-2.923,-2.992,-3.0248,-3.0179,-2.961,0.0,-2.5314,-2.3282,0.0,0.0,0.0,0.0,0.0,0.0,0.0,0.0,0.0,0.0,0.0,0.0,0.0,0.0,0.0,0.0,0.0,0.0,0.0,0.0,0.0,0.0,-2.5236,-2.6065,-2.5845,-2.5524,0.0,-2.3731,-2.1211,-1.9029,-1.8618,0.0,0.0,0.0,0.0,0.0,0.0,0.0,-2.4068,-2.5169,-2.5998,-2.6623,-2.6691,-2.6099,-2.4626,-2.576,-2.5609,-2.3393,-2.3156,-2.2733,-2.189,-1.9063,0.0,0.0,0.0,0.0,0.0,0.0,0.0,0.0,0.0,0.0,0.0,0.0,0.0,0.0,0.0,0.0,0.0,0.0,0.0,0.0,0.0,0.0,0.0,0.0,0.0,0.0,0.0,0.0,0.0,-1.6497,-1.9011,-2.0406,-2.0641,-2.0463,0.0,0.0,0.0,0.0,0.0,0.0,0.0,0.0,0.0,-2.5954,-2.7167,-2.8415,-2.9679,-3.042,-3.1007,-3.142,-3.2093,-3.23,-3.2093,-3.2457,-3.2574,-3.25,-3.2574,-3.1519,-2.9607,-2.7311,-2.6322,-2.6087,0.0,0.0,0.0,0.0,-2.364,-2.4181,-2.3943,-2.4062,-2.4199,-2.341,0.0,0.0,0.0,0.0,0.0,0.0,0.0,-2.2513,0.0,0.0,-2.6522,-2.7723,-2.7757,-2.7469,-2.7351,-2.6302,-2.473,0.0,-2.1701,-2.1059,-1.9921,0.0,0.0,0.0,0.0,-2.3543,-2.4932,-2.5761,-2.6336,-2.6657,-2.6691,-2.6099,-2.4626,-2.5862,-2.5761,-2.3528,-2.3797,-2.3695,-2.2953,-2.042,-1.8341,0.0,0.0,0.0,0.0,0.0,0.0,0.0,0.0,0.0,0.0,0.0,0.0,0.0,0.0,0.0,0.0,0.0,0.0,0.0,0.0,0.0,0.0,0.0,0.0,0.0,0.0,0.0,0.0,-1.9295,-2.1492,-2.2493,-2.2711,-2.255,0.0,0.0,0.0,0.0,0.0,0.0,-2.5157,-2.7101,-2.8506,-2.9248,-3.0765,-3.1748,-3.2127,-3.2869,-3.3628,-3.4352,-3.4352,-3.4663,-3.5252,-3.5252,-3.5191,-3.5112,-3.5211,-3.486,-3.402,-3.1133,-2.9915,-2.9726,-2.7641,-2.6928,-2.7046,-2.6843,-2.6894,-2.7097,-2.747,-2.7724,-2.7792,-2.7215,-2.6404,-2.5405,-2.4103,0.0,0.0,0.0,0.0,-2.4189,-2.7519,-2.7689,-2.7368,-2.8925,-2.9145,-2.8891,-2.8466,-2.8229,-2.7452,0.0,-2.4491,-2.378,-2.229,0.0,0.0,0.0,0.0,-2.4829,-2.5761,-2.6201,-2.6556,-2.6945,-2.681,-2.6167,-2.4897,-2.5947,-2.5913,-2.4086,-2.4305,-2.4254,-2.3697,-2.1688,-1.9896,-1.8391,0.0,0.0,0.0,0.0,0.0,0.0,0.0,0.0,0.0,0.0,0.0,0.0,0.0,0.0,0.0,0.0,0.0,0.0,0.0,0.0,0.0,0.0,0.0,0.0,0.0,0.0,0.0,0.0,0.0,-2.465,-2.5231,0.0,0.0,0.0,0.0,-2.5036,-2.6478,-2.7596,-2.8143,-2.9679,-3.0886,-3.161,-3.311,-3.4594,-3.6008,-3.6801,-3.7581,-3.8301,-3.8301,-3.8318,-3.8353,-3.8353,-3.8353,-3.8353,-3.8353,-3.8286,-3.7774,-3.3466,-3.1641,-3.1481,-3.0528,-3.0554,-3.1025,-3.0255,-3.0406,-3.0934,-3.0236,-3.0474,-3.1051,-3.0959,-2.9958,-2.862,-2.7773,-2.6979,0.0,0.0,-2.7063,-2.7012,-2.9362,-2.8872,-2.8128,-2.9666,-2.9499,-2.9179,-2.9837,-2.9431,-2.8282,0.0,-2.6082,-2.6082,-2.4592,0.0,-2.5203,-2.4491,-2.444,-2.5015,-2.6454,-2.6065,-2.6184,-2.7604,-2.7131,-2.6387,-2.5609,-2.6251,-2.6353,-2.5541,-2.488,-2.4474,-2.444,-2.2987,-2.1451,-1.9917,-1.8408,0.0,0.0,0.0,0.0,0.0,0.0,0.0,0.0,0.0,0.0,0.0,0.0,0.0,0.0,0.0,0.0,0.0,0.0,0.0,0.0,0.0,0.0,0.0,0.0,0.0,0.0,0.0,0.0,-2.7383,-2.7978,0.0,-2.7981,-2.8668,-2.9028,-2.8792,-2.9711,-3.0595,-3.1248,-3.2748,-3.3921,-3.4663,-3.5735,-3.6546,-3.7081,-3.6835,-3.6853,-3.7111,-3.7111,-3.7387,-3.7892,-3.7892,-3.8146,-3.8594,-3.8594,-3.8572,-3.8407,-3.6814,-3.5448,-3.4205,-3.2856,-3.2184,-3.1947,-3.1656,-3.1724,-3.1978,-3.2195,-3.2432,-3.2568,-3.2073,-3.1244,-3.026,-2.9497,-2.911,-2.9042,-2.9786,-2.9803,-2.9989,-3.1765,-3.1461,-3.0954,-3.1985,-3.2019,-3.1765,-3.1546,-3.0956,-3.004,-2.8755,-2.7908,-2.7097,-2.6099,-2.6539,-2.6759,-2.6015,-2.6759,-2.7588,-2.8113,-2.7503,-2.7215,-2.7739,-2.7148,-2.6404,-2.5659,-2.6285,-2.6167,-2.4982,-2.4643,-2.4288,-2.3814,-2.2835,-2.182,-2.0788,-1.9744,-1.7766,0.0,0.0,0.0,0.0,0.0,0.0,0.0,0.0,0.0,0.0,0.0,0.0,0.0,0.0,0.0,0.0,0.0,0.0,0.0,0.0,0.0,0.0,0.0,0.0,0.0,0.0,-2.7647,-2.9644,-3.0376,-3.079,-3.0868,-3.1236,-3.1586,-3.1837,-3.2524,-3.3266,-3.4007,-3.5266,-3.6077,-3.6284,-3.7077,-3.7512,-3.7512,-3.7215,-3.7077,-3.7077,-3.7077,-3.7353,-3.7892,-3.8134,-3.8491,-3.8974,-3.925,-3.9348,-3.9302,-3.9302,-3.8403,-3.6882,-3.5584,-3.4785,-3.4363,-3.4274,-3.41,-3.3893,-3.4087,-3.4129,-3.4032,-3.3292,-3.2716,-3.2171,-3.1444,-3.1224,-3.1326,-3.1799,-3.1935,-3.2171,-3.3152,-3.3034,-3.278,-3.3288,-3.3406,-3.3271,-3.2784,-3.229,-3.1715,-3.0987,-2.9634,-2.8331,-2.7588,-2.7875,-2.796,-2.7199,-2.7943,-2.8687,-2.8976,-2.8298,-2.7908,-2.8197,-2.73,-2.6488,-2.6015,-2.6184,-2.5913,-2.4931,-2.4406,-2.3915,-2.341,-2.2699,-2.2073,-2.158,-2.0285,-1.8544,-1.6339,0.0,0.0,0.0,0.0,0.0,0.0,0.0,0.0,0.0,0.0,0.0,0.0,0.0,0.0,0.0,0.0,0.0,0.0,0.0,0.0,0.0,0.0,0.0,-2.6628,-2.8612,-3.0386,-3.1427,-3.2491,-3.2816,-3.1923,-3.2324,-3.3072,-3.4155,-3.4872,-3.5597,-3.6287,-3.7081,-3.715,-3.6353,-3.7077,-3.7512,-3.7512,-3.8198,-3.8582,-3.8582,-3.8599,-3.8594,-3.8612,-3.9336,-3.9681,-3.9733,-4.0515,-4.0789,-4.0697,-4.068,-4.0203,-3.9388,-3.87,-3.8397,-3.8374,-3.8178,-3.7659,-3.6905,-3.5983,-3.5667,-3.5549,-3.4844,-3.4607,-3.4472,-3.3728,-3.3508,-3.3508,-3.3491,-3.3474,-3.3474,-3.3474,-3.3474,-3.3474,-3.3474,-3.3474,-3.3474,-3.344,-3.344,-3.322,-3.2479,-3.1157,-2.9939,-2.9162,-2.9027,-2.8773,-2.7959,-2.7858,0.0,-2.8942,-2.8332,-2.8128,-2.8959,-2.7656,-2.6725,-2.6725,-2.6065,-2.5609,-2.5575,-2.4222,-2.341,-2.3359,-2.2682,-2.2296,-2.2296,-2.0078,-1.8572,-1.7834,0.0,0.0,0.0,0.0,0.0,0.0,0.0,0.0,0.0,0.0,0.0,0.0,0.0,0.0,0.0,0.0,0.0,0.0,0.0,0.0,0.0,0.0,-2.9192,-2.9348,-3.0851,-3.2682,-3.472,-3.5978,-3.6826,-3.7152,-3.7322,-3.7404,-3.744,-3.7076,-3.6828,-3.6736,-3.7234,-3.7409,-3.7185,-3.7392,-3.7512,-3.7512,-3.7702,-3.7806,-3.7823,-3.8336,-3.8594,-3.8617,-3.8801,-3.9181,-3.9681,-3.9353,-3.9853,-4.0789,-4.022,-4.0162,-4.0397,-3.9476,-3.8749,-3.8178,-3.8125,-3.7912,-3.7631,-3.7347,-3.728,-3.7246,-3.7043,-3.6975,-3.684,-3.6101,-3.5881,-3.574,-3.5165,-3.4991,-3.4991,-3.4991,-3.4991,-3.4991,-3.4991,-3.4991,-3.4839,-3.4303,-3.4201,-3.3981,-3.3237,-3.2324,-3.1295,-3.0023,-2.9803,-2.9533,-2.8772,-2.9127,0.0,-2.977,-2.9127,-2.8958,-2.9719,-2.8415,-2.7503,-2.7503,-2.6826,-2.593,-2.488,-2.4423,-2.3729,-2.2649,-2.2398,-2.2296,-2.2296,-2.0589,-1.9338,0.0,0.0,0.0,0.0,0.0,0.0,0.0,0.0,0.0,0.0,0.0,0.0,0.0,0.0,0.0,0.0,0.0,0.0,0.0,0.0,0.0,0.0,-3.0135,-3.1848,-3.2816,-3.3694,-3.4977,-3.707,-3.8225,-3.9085,-3.973,-3.9496,-3.9268,-3.922,-3.8415,-3.7865,-3.7627,-3.7833,-3.7888,-3.7756,-3.7756,-3.8069,-3.8738,-3.8538,-3.8693,-3.9225,-3.9449,-3.9393,-3.906,-3.9405,-3.9595,-3.9681,-3.9595,-4.0083,-4.086,-4.0411,-4.0498,-4.0836,0.0,0.0,0.0,0.0,-3.8632,-3.8479,-3.8173,-3.8024,-3.7984,-3.7984,-3.7953,-3.7821,-3.7381,-3.7246,-3.7094,-3.6315,-3.6096,-3.6028,-3.5684,-3.56,-3.56,-3.56,-3.56,-3.5481,-3.5064,-3.4962,-3.4742,-3.3998,-3.3508,0.0,-3.1275,-3.0514,-2.9956,-2.9516,-2.955,-2.9634,-2.9634,-2.9281,-2.9162,-2.9583,-2.8839,-2.818,-2.7824,-2.7131,0.0,0.0,0.0,-2.3526,-2.2347,-2.2296,0.0,0.0,0.0,0.0,0.0,0.0,0.0,0.0,-1.811,-1.7777,0.0,0.0,0.0,0.0,0.0,0.0,0.0,0.0,0.0,0.0,0.0,0.0,0.0,0.0,0.0,0.0,-3.2263,-3.4123,-3.6468,-3.6735,-3.7239,-3.867,-3.9641,-4.028,-4.0525,-3.9965,-3.9643,-3.9871,-3.9095,-3.8628,-3.8685,0.0,0.0,0.0,0.0,-3.9183,-4.0708,-4.0252,-4.0612,-4.1723,-4.1343,-4.0739,-3.9974,-4.0705,-4.0636,-3.9991,-4.0549,-4.086,-4.1015,-4.0843,-4.0825,-4.0912,-4.0864,-4.0864,-4.0731,-3.9948,-3.959,-3.9402,-3.8736,0.0,0.0,-3.8333,-3.8238,-3.8142,-3.8058,-3.8024,-3.7872,-3.7134,-3.6931,-3.6755,-3.6039,-3.5802,-3.5735,-3.5735,-3.5667,-3.56,-3.56,-3.56,-3.5397,-3.4742,-3.4556,-3.4087,-3.2767,-3.1309,-3.0294,-3.0142,-2.9533,-2.9094,-2.901,-2.9077,-2.9128,-2.9128,0.0,0.0,-2.7993,-2.7249,-2.6471,-2.5643,-2.4289,-2.3224,-2.2581,-2.255,-2.255,-2.255,-2.255,-2.255,-2.255,-2.255,-2.255,-2.2465,-1.9058,-1.8504,0.0,0.0,0.0,0.0,0.0,0.0,0.0,0.0,0.0,0.0,0.0,0.0,0.0,0.0,0.0,-3.2221,-3.4414,-3.6498,-3.8275,-3.8958,-3.9372,-3.9641,-4.0993,-4.1656,-4.1031,-4.1087,-4.0816,-3.9964,-3.9086,-3.8759,-3.9138,-3.8869,-3.9255,-4.0483,-4.0537,-4.0982,-4.1948,-4.2062,-4.2244,-4.2492,0.0,0.0,-4.1543,-4.1723,-4.1705,-4.1474,-4.0388,-4.0653,-4.1705,-4.0422,-4.0302,-4.0888,-4.0655,-4.051,-4.037,-4.0093,-3.9992,-3.9951,-3.9798,-3.9722,-3.9697,-3.9697,-3.9714,-3.9571,-3.8954,-3.8785,0.0,-3.7889,-3.7686,-3.7652,-3.7516,-3.7009,-3.6575,-3.6575,-3.6079,-3.56,-3.56,-3.56,-3.5549,-3.5397,-3.4912,-3.4404,-3.4117,-3.2852,-3.1461,-3.0294,-2.9989,-2.9668,-2.9077,-2.9516,-2.9888,-2.9888,-2.9888,-2.9583,-2.884,-2.8044,-2.7012,-2.5677,-2.4763,-2.422,-2.4085,-2.4068,-2.4068,-2.4068,-2.4068,-2.4068,-2.4068,-2.4068,-2.4068,-2.4051,-2.273,-2.2327,0.0,0.0,0.0,0.0,0.0,0.0,0.0,0.0,0.0,0.0,0.0,-2.727,0.0,0.0,-3.3076,-3.5107,-3.6769,-3.8363,-4.0011,-4.0865,-4.1254,-4.1156,-4.1507,-4.1748,-4.1699,-4.1129,-4.0676,-4.0508,-3.9719,-3.9529,-4.0169,-4.0379,-4.0944,-4.1985,-4.238,-4.3174,-4.4383,-4.4278,-4.452,-4.515,-4.5081,-4.463,-4.3839,-4.3839,-4.3652,-4.3265,-4.2497,-4.2461,-4.2851,-4.1421,-4.1202,-4.1638,-4.0889,-4.0576,-4.0461,-4.0362,-4.0296,-4.0296,-4.0296,-4.0263,-4.0188,-4.0188,-4.0163,-4.0028,-3.9673,-3.9554,-3.9394,-3.865,-3.8447,-3.8362,-3.8007,-3.7635,-3.7246,-3.6897,-3.6485,-3.6096,-3.5684,-3.56,-3.56,-3.56,-3.5295,-3.4928,-3.4556,-3.3901,-3.2903,-3.141,-3.0886,-3.0378,-2.9651,-2.955,-2.9685,-3.0074,-3.0108,-2.9956,-2.9583,-2.8466,-2.7164,-2.5694,-2.5253,-2.488,-2.4508,-2.4491,-2.4491,-2.4491,-2.4491,-2.4491,-2.4491,-2.4491,-2.4491,-2.4491,-2.4492,-2.4289,0.0,0.0,0.0,0.0,0.0,0.0,0.0,0.0,-2.5664,-2.5688,-2.8138,-3.0669,-3.202,-3.3714,-3.5609,-3.7782,-3.8897,-4.004,-4.1541,-4.2239,-4.2638,-4.2687,-4.1891,-4.155,-4.2029,-4.0891,-4.0341,-4.082,-4.0414,-4.0543,-4.1499,-4.2176,-4.29,-4.3685,-4.4339,-4.5375,-4.685,-4.632,-4.6582,-4.7591,-4.7115,-4.6551,-4.5927,-4.5927,-4.561,-4.5043,-4.4882,-4.4503,-4.396,-4.2928,-4.2672,-4.2798,-4.1644,-4.1196,-4.1114,-4.0683,-4.0468,-4.0461,-4.0461,-4.0362,-4.0263,-4.0263,-4.0188,-4.0096,-4.0096,-4.0096,-3.9977,-3.9377,-3.9208,-3.9073,-3.8481,-3.8227,-3.7956,-3.7371,-3.7015,-3.6626,-3.5977,-3.5701,-3.56,-3.56,-3.56,-3.5397,-3.481,-3.4709,-3.4201,-3.275,-3.1904,-3.114,-3.0412,-2.9668,-2.9381,-2.9837,-3.0004,-3.0108,-3.0108,-2.8821,-2.7452,-2.61,-2.588,-2.5541,-2.4948,-2.4795,-2.4778,-2.4914,-2.4931,-2.4931,-2.4931,-2.4931,-2.4931,-2.4931,-2.5541,-2.5423,-2.4115,-2.4288,-2.4658,-2.4546,-2.5019,-2.6026,0.0,0.0,-2.9232,-2.981,-3.1359,-3.2883,-3.3763,-3.5869,-3.7801,-3.8804,-4.029,-4.1612,-4.2522,-4.2668,-4.2955,-4.3643,-4.2851,-4.1983,-4.1295,-4.1058,-4.0726,-4.0084,-4.0616,-4.1644,-4.3149,-4.3331,-4.4361,-4.6561,-4.6726,-4.7184,-4.8102,-4.7629,-4.7458,-4.7591,-4.7115,-4.6855,-4.6766,-4.6766,-4.673,-4.6605,-4.5896,-4.5178,-4.4514,-4.4359,-4.4345,-4.4256,-4.3304,-4.2916,-4.2718,-4.1101,-4.0412,-4.033,-4.033,-4.0238,-4.0138,-4.0138,-4.0096,-4.0096,-4.0096,-4.0096,-4.0079,-4.0011,-3.9977,-3.996,-3.9893,-3.9385,-3.8853,-3.8768,-3.776,-3.6778,-3.6694,-3.6096,-3.56,-3.56,-3.56,-3.5566,-3.5481,-3.5481,-3.4974,-3.3508,-3.2645,-3.1921,-3.1157,-3.0429,-2.9753,-2.9179,-2.9702,-3.0108,-3.0108,-2.933,-2.8484,-2.7604,-2.6945,-2.6539,-2.6454,-2.5828,-2.5795,-2.6437,-2.6454,-2.6454,-2.6454,-2.6454,-2.6454,-2.6454,-2.6539,-2.6184,-2.6092,-2.5983,0.0,0.0,-2.7806,-2.839,-2.9781,-3.0863,-3.1789,-3.2548,-3.4023,-3.5398,-3.6203,-3.7986,-3.9621,0.0,-4.1534,-4.2575,-4.3392,-4.3444,-4.3526,-4.386,-4.3012,-4.2071,-4.1248,-4.1158,-4.0995,-4.0634,-4.1772,-4.2983,-4.414,-4.5094,-4.6067,-4.7076,-4.7553,-4.7957,-4.8306,-4.7637,-4.7539,-4.8015,-4.7341,-4.7257,-4.7713,-4.7713,-4.7713,-4.7674,-4.7081,-4.6798,-4.6678,-4.5652,-4.543,-4.5588,-4.4464,-4.3729,-4.3145,-4.178,-4.1213,-4.1185,-4.1185,-4.1145,-4.1053,-4.0767,-4.0642,-4.0521,-4.0296,-4.0163,-4.0096,-4.0096,-4.0096,-4.0096,-4.0096,-3.9876,-3.9537,-3.9089,-3.8193,-3.7313,-3.6897,-3.6163,-3.56,-3.56,-3.56,-3.56,-3.56,-3.56,-3.538,-3.4771,-3.4049,-3.3173,-3.2005,-3.119,-3.0463,-2.9719,-3.0294,-3.0565,-3.0142,-2.982,-2.9313,-2.8552,-2.7774,-2.7334,-2.7334,-2.6218,-2.5761,-2.6048,-2.5642,-2.5422,-2.5422,-2.5422,-2.5422,-2.5422,-2.5422,-2.5252,-2.7248,0.0,0.0,-2.9933,-3.0531,-3.0995,-3.2035,-3.3187,-3.4253,-3.5052,-3.6352,-3.7541,-3.8116,-3.9602,-4.0936,-4.1497,-4.2463,-4.3336,-4.3912,-4.3961,-4.3929,-4.3929,-4.328,-4.2516,-4.1675,-4.1553,-4.1581,-4.1754,-4.3057,-4.4287,-4.5296,-4.647,-4.7204,-4.7424,-4.8012,-4.8196,-4.7957,-4.7388,-4.7278,-4.7627,-4.7259,-4.7406,-4.7994,-4.8214,-4.8306,-4.8287,-4.7937,-4.7995,-4.8193,-4.6936,-4.6638,-4.6888,-4.5748,-4.4939,-4.4268,-4.3064,-4.2282,-4.1853,-4.1853,-4.1832,-4.1729,-4.1397,-4.1241,-4.1087,-4.0784,-4.0556,-4.0385,-4.0385,-4.0254,-4.0163,-4.0163,-4.0138,-3.9977,-3.9436,-3.8734,-3.8058,-3.7523,-3.662,-3.5943,-3.5943,-3.5752,-3.56,-3.56,-3.56,-3.56,-3.56,-3.5165,-3.4336,-3.3072,-3.1921,-3.092,-3.0192,-3.0581,-3.0768,-3.0429,-3.0412,-3.0091,-2.9365,-2.8569,-2.8128,-2.8128,-2.6708,-2.6015,-2.6201,-2.5473,-2.5117,-2.5117,-2.5117,-2.5117,-2.5117,-2.5117,-2.4998,0.0,0.0,-3.2217,-3.2221,-3.3149,-3.4494,-3.6142,-3.6551,-3.6829,-3.7615,-3.8451,-3.9027,-3.9064,-4.042,-4.1571,-4.159,-4.2927,-4.3968,-4.4005,-4.4005,-4.4005,-4.4005,-4.3971,-4.359,0.0,-4.2384,-4.258,-4.3369,-4.4195,-4.5351,-4.6947,-4.7076,-4.7461,-4.8251,-4.8306,-4.792,-4.7131,-4.7113,-4.6709,-4.5975,-4.6727,-4.7113,-4.7168,-4.7938,-4.8306,-4.8306,-4.8287,-4.8287,-4.8306,-4.8231,-4.8231,-4.8158,-4.7351,-4.7002,-4.6782,-4.5205,-4.3498,-4.1979,-4.1979,-4.1916,-4.181,-4.1789,-4.1789,-4.1771,-4.1768,-4.1442,-4.1076,-4.1076,-4.07,-4.0288,-4.0288,-4.0188,-4.0096,-4.0079,-3.9503,-3.8954,-3.8937,-3.7794,-3.6761,-3.6761,-3.6129,-3.56,-3.56,-3.56,-3.56,-3.56,-3.5583,-3.5301,-3.4523,-3.2527,-3.092,-3.0192,-3.0125,-3.0412,-3.1106,-3.1157,-3.0852,-3.0125,-2.9364,-2.8959,-2.8959,-2.7486,-2.7012,-2.7722,-2.7012,-2.6623,-2.6623,-2.6623,-2.6623,-2.6623,-2.6623,-2.6251,0.0,0.0,-3.3468,-3.4548,-3.5338,-3.616,-3.7257,-3.7912,-3.8377,-3.8637,-3.8488,-3.8135,-3.7596,-3.8841,-3.9937,-3.9937,-4.1776,-4.3392,-4.3912,-4.354,-4.3392,-4.3949,-4.3494,0.0,0.0,0.0,0.0,-4.2743,-4.4433,-4.5736,-4.6269,-4.7333,-4.8012,-4.8306,-4.8306,-4.7901,-4.7113,-4.6562,-4.6177,-4.5902,-4.6709,-4.7369,-4.7901,-4.8196,-4.8306,-4.8306,-4.8306,-4.8306,-4.8306,-4.8306,-4.8306,-4.8269,-4.8012,-4.7571,-4.7039,-4.6489,-4.557,-4.4432,-4.3377,-4.2959,-4.2884,-4.2617,-4.248,-4.2342,-4.2038,-4.1768,-4.1556,-4.1556,-4.1213,-4.0808,-4.072,-4.0531,-4.032,-4.0121,-3.9604,-3.9103,-3.9012,-3.8227,-3.7381,-3.6897,-3.6592,-3.6231,-3.5684,-3.56,-3.56,-3.56,-3.5182,-3.4776,-3.4523,-3.3004,-3.1836,-3.1599,-3.1123,-3.092,-3.1173,-3.119,-3.1089,-3.0852,-3.0142,-2.9736,-2.9736,-2.8264,-2.7334,-2.708,-2.6353,-2.5727,-2.5235,-2.5235,-2.5235,-2.5235,-2.5235,-2.5117,-3.1497,-3.3337,-3.5277,-3.6281,-3.7126,-3.7802,-3.8236,-3.8729,-3.9027,-3.8729,-3.8024,-3.7312,-3.6811,-3.7541,-3.8525,-3.9417,-4.0903,-4.2407,-4.3819,-4.3318,-4.3095,-4.3893,-4.3512,-4.3341,0.0,0.0,0.0,-4.3203,-4.4856,-4.603,-4.6305,-4.759,-4.8177,-4.7865,-4.8159,-4.7626,-4.625,-4.6012,-4.5902,-4.5902,-4.6434,-4.7241,-4.8306,-4.8306,-4.8306,-4.8306,-4.8306,-4.8306,-4.8306,-4.8306,-4.8306,-4.8306,-4.8306,-4.7994,-4.748,-4.7204,-4.6764,-4.6104,-4.4488,-4.392,-4.3848,-4.3306,-4.3069,-4.2939,-4.2619,-4.2384,-4.2183,-4.2183,-4.181,-4.1353,-4.1105,-4.0885,-4.0628,-4.032,-3.9955,-3.964,-3.9549,-3.8965,-3.8262,-3.7763,-3.7214,-3.6689,-3.6129,-3.5785,-3.56,-3.56,-3.5199,-3.4793,-3.4523,-3.3681,-3.2886,-3.2361,-3.1887,-3.1478,-3.1207,-3.119,-3.119,-3.119,-3.0768,-3.0497,-3.0497,-2.9277,-2.8398,-2.7926,-2.7199,-2.6573,-2.6099,-2.5828,-2.5676,-2.5659,-2.5405,-2.5439,-3.2205,-3.4814,-3.767,-3.7476,-3.8471,-3.9408,-3.917,-3.9078,-3.8817,-3.8005,-3.714,-3.652,0.0,0.0,-3.7381,-3.9779,-4.0323,-4.1293,-4.367,-4.3318,-4.3095,0.0,0.0,0.0,0.0,0.0,0.0,-4.4744,0.0,-4.6287,-4.7076,-4.7829,-4.7902,-4.7113,-4.7791,-4.7058,-4.4709,-4.5461,-4.5883,-4.5957,-4.5957,-4.6783,-4.8306,-4.8306,-4.8306,-4.8306,-4.8306,-4.8306,-4.8306,-4.8306,-4.8306,-4.8306,-4.8306,-4.8306,-4.8214,-4.7443,-4.7168,-4.6947,-4.537,-4.4764,-4.458,-4.3754,-4.3515,-4.3515,-4.3515,-4.3232,-4.292,-4.292,-4.25,-4.1937,-4.1503,-4.1258,-4.1047,-4.0621,-4.0541,-4.0541,-4.051,-3.9963,-3.9402,-3.9241,-3.8067,-3.7001,-3.6835,-3.618,-3.5673,-3.56,-3.56,-3.5346,-3.4641,-3.4506,-3.3969,-3.2564,-3.2378,-3.2056,-3.1309,-3.1258,-3.1241,-3.119,-3.119,-3.119,-3.119,-3.0531,-3.0142,-3.0108,-2.9397,-2.9044,-2.8993,-2.8229,-2.7858,-2.7841,-2.7148,-2.7199,-3.5937,-3.7795,-3.9235,-3.9182,-3.9182,-3.9178,-3.9115,-3.8747,-3.8153,-3.7203,-3.5577,-3.3903,0.0,0.0,0.0,-3.669,-3.9369,0.0,-4.3745,-4.3318,0.0,0.0,0.0,-4.4199,-4.4716,-4.5325,0.0,0.0,-4.6006,-4.645,-4.7224,-4.7427,-4.7408,-4.7113,-4.6728,-4.5938,-4.4727,-4.4893,-4.5608,-4.6782,-4.6782,-4.7314,-4.8306,-4.8306,-4.8306,-4.8306,-4.8306,-4.8306,-4.8306,-4.8306,-4.8306,-4.8306,-4.8306,-4.8306,-4.8288,-4.8086,-4.7975,-4.7846,-4.6837,-4.57,-4.458,-4.3754,-4.3515,-4.3515,-4.3515,-4.3427,-4.3357,-4.3357,-4.3014,-4.2616,-4.24,-4.2118,-4.176,-4.1094,-4.1024,-4.0972,-4.059,-4.0356,-4.0041,-3.9471,-3.8594,-3.7752,-3.7075,-3.6775,-3.6412,-3.5707,-3.56,-3.5532,-3.5329,-3.4844,-3.4375,-3.3986,-3.344,-3.2814,-3.209,-3.2022,-3.1802,-3.1224,-3.119,-3.119,-3.119,-3.1021,-3.0666,-3.0106,-2.9922,-2.955,-2.8993,-2.8807,-2.8687,-2.8705,-2.8502,-2.8519,-3.8099,-3.9325,-4.0158,-4.0431,-3.994,-3.9114,-3.7997,-3.7398,-3.6548,-3.4592,-3.2964,0.0,0.0,0.0,0.0,0.0,0.0,0.0,-4.3188,-4.3076,-4.3243,0.0,-4.4562,0.0,-4.5545,-4.6097,-4.634,0.0,-4.6221,-4.6372,-4.6799,-4.68,-4.6562,-4.6121,-4.6324,-4.6195,-4.5755,-4.5406,-4.5847,-4.7094,-4.7094,-4.7516,-4.8306,-4.8306,-4.8306,-4.8306,-4.8306,-4.8306,-4.8306,-4.8306,-4.8306,-4.8306,-4.8306,-4.8306,-4.8306,-4.8306,-4.8306,-4.8196,-4.7369,-4.6507,-4.5553,-4.4397,-4.403,-4.3956,-4.3625,-4.3515,-4.3515,-4.3515,-4.3339,-4.3123,-4.2845,-4.2653,-4.234,-4.1721,-4.1477,-4.1316,-4.099,-4.0789,-4.0432,-3.9648,-3.905,-3.8342,-3.72,-3.695,-3.661,-3.574,-3.56,-3.56,-3.56,-3.525,-3.4861,-3.4523,-3.4134,-3.3575,-3.2852,-3.2496,-3.2124,-3.1718,-3.1419,-3.1232,-3.119,-3.123,-3.1046,-3.0598,-3.0581,-3.0378,-2.9974,-2.9653,-2.9482,-2.9465,-2.9162,-2.9179,-3.9388,-4.0212,-4.0886,-4.1294,-4.0592,-3.9123,-3.6591,-3.5717,-3.4575,-3.1487,0.0,-2.951,-2.9363,0.0,-3.255,-3.5162,0.0,-3.9993,-4.2593,-4.2965,-4.354,-4.5101,-4.5379,-4.5718,-4.6414,-4.6593,-4.6609,-4.6488,-4.6235,-4.6128,-4.6204,-4.6043,-4.5566,-4.4666,-4.603,-4.6837,-4.6929,-4.6361,-4.6471,-4.7259,-4.7259,-4.7608,-4.8306,-4.8306,-4.8306,-4.8306,-4.8306,-4.8306,-4.8306,-4.8306,-4.8306,-4.8306,-4.8306,-4.8306,-4.8306,-4.8306,-4.8306,-4.8214,-4.7498,-4.7259,-4.6984,-4.537,-4.4783,-4.4563,-4.3864,-4.3571,-4.3515,-4.3515,-4.3515,-4.341,-4.3069,-4.2976,-4.2845,-4.2398,-4.1969,-4.167,-4.1604,-4.126,-4.0758,-4.0008,-3.9624,-3.8949,-3.745,-3.7086,-3.6712,-3.5802,-3.5694,-3.5717,-3.5667,-3.5622,-3.5346,-3.4709,-3.4641,-3.4353,-3.3609,-3.2865,-3.2412,-3.231,-3.1681,-3.1274,-3.123,-3.1274,-3.1274,-3.121,-3.121,-3.119,-3.119,-3.0565,-3.026,-3.0243,-2.9602,-2.9617,-4.095,-4.1822,-4.2164,-4.1543,-4.0592,-3.9123,-3.6591,-3.5069,0.0,0.0,0.0,-2.7955,-2.7064,-2.8703,0.0,-3.4369,0.0,0.0,0.0,0.0,-4.4172,0.0,0.0,0.0,0.0,0.0,0.0,0.0,0.0,-4.5688,-4.6251,-4.5592,-4.4735,-4.3752,-4.4617,-4.5443,-4.6104,-4.6636,-4.7296,-4.8104,-4.8104,-4.8159,-4.8306,-4.8306,-4.8306,-4.8306,-4.8306,0.0,-4.8306,-4.8306,-4.8306,-4.8306,-4.8306,-4.8306,-4.8306,-4.8306,-4.8306,-4.8288,-4.8141,-4.8104,-4.7829,-4.6214,-4.5241,-4.4654,-4.4544,-4.403,-4.3515,-4.3515,-4.3515,-4.3479,-4.341,-4.3392,-4.3304,-4.2882,-4.2711,-4.2537,-4.2157,-4.1713,-4.1366,-4.1203,-4.0857,-4.0081,-3.8443,-3.814,-3.7615,-3.6159,-3.622,-3.6308,-3.5958,-3.5734,-3.5549,-3.5414,-3.5397,-3.5115,-3.437,-3.3626,-3.2949,-3.2344,-3.1681,-3.1295,-3.1276,-3.1295,-3.1295,-3.1276,-3.123,-3.119,-3.119,-3.1072,-3.1004,-3.1004,-3.0869,-3.0886,-4.2016,-4.2027,-4.167,-4.2169,-4.0797,-3.8461,-3.5141,0.0,0.0,0.0,0.0,-2.6388,-2.5864,0.0,0.0,0.0,0.0,0.0,0.0,0.0,0.0,0.0,0.0,0.0,0.0,0.0,0.0,0.0,0.0,-4.5438,-4.576,-4.4887,-4.4309,-4.4173,-4.491,-4.5718,-4.6526,-4.7314,-4.7921,-4.8306,-4.8306,-4.8306,-4.8306,-4.8306,-4.8306,-4.8306,-4.8306,-4.8306,-4.8306,-4.8306,-4.8306,-4.8306,-4.8306,-4.8306,-4.8306,-4.8306,-4.8306,-4.8306,-4.8306,-4.8306,-4.8104,-4.6911,-4.5993,-4.5168,-4.4323,-4.3809,-4.3515,-4.3515,-4.3515,-4.3515,-4.3515,-4.3515,-4.3444,-4.3268,-4.305,-4.2768,-4.23,-4.2011,-4.1864,-4.1864,-4.1648,-4.0959,-3.9353,-3.9031,-3.8359,-3.6592,-3.6474,-3.6437,-3.6062,-3.5888,-3.5778,-3.5711,-3.5689,-3.5531,-3.5115,-3.4109,-3.3337,-3.3002,-3.202,-3.1447,-3.1406,-3.1406,-3.137,-3.1295,-3.1232,-3.119,-3.119,-3.119,-3.123,-3.1252,-3.123,-3.123,-4.242,-4.195,-4.1343,-4.2527,-4.0891,-3.7912,-3.3826,-3.1973,0.0,0.0,-2.5308,-2.5308,-2.5308,0.0,0.0,0.0,0.0,0.0,0.0,0.0,0.0,0.0,0.0,0.0,0.0,0.0,0.0,0.0,0.0,-4.5026,-4.501,-4.4253,-4.4029,-4.4519,-4.5459,-4.6232,-4.6837,-4.781,-4.8306,-4.8306,-4.8306,-4.8306,-4.8306,-4.8306,-4.8306,-4.8306,-4.8306,-4.8306,-4.8306,-4.8306,-4.8306,-4.8306,-4.8306,-4.8306,-4.8306,-4.8306,-4.8306,-4.8306,-4.8306,-4.8196,-4.7901,-4.7094,-4.6416,-4.5626,-4.4176,-4.3626,-4.3515,-4.3515,-4.3515,-4.3515,-4.3515,-4.3515,-4.3515,-4.3515,-4.3268,-4.2939,-4.2557,-4.2418,-4.2358,-4.2358,-4.218,-4.154,-3.9993,-3.9629,-3.8921,-3.7071,-3.6783,-3.6641,-3.6241,-3.6195,-3.611,-3.5905,-3.5861,-3.5817,-3.5689,-3.4572,-3.3802,-3.3632,-3.2513,-3.1749,-3.1536,-3.1519,-3.1481,-3.1351,-3.1271,-3.121,-3.119,-3.121,-3.1252,-3.1295,-3.1252,-3.1252,-4.1689,-4.2374,-4.2701,-4.2085,-4.0577,-3.8146,-3.3872,0.0,0.0,0.0,-2.5308,-2.5308,-2.5308,-2.597,0.0,0.0,0.0,0.0,0.0,0.0,0.0,0.0,0.0,0.0,0.0,0.0,0.0,0.0,0.0,-4.4085,-4.4024,-4.3952,-4.3837,-4.3709,-4.5237,-4.6066,-4.6012,-4.7535,-4.8306,-4.8306,-4.8306,-4.8306,-4.8306,-4.8306,-4.8306,-4.8306,-4.8306,-4.8306,0.0,-4.8306,-4.8306,-4.8306,-4.8306,-4.8306,-4.8306,-4.8306,-4.8306,-4.8306,-4.8306,-4.781,-4.7076,-4.6269,-4.5957,-4.5736,-4.4856,-4.4085,-4.3515,-4.3515,-4.3515,-4.3515,-4.3515,-4.3515,-4.3515,-4.3515,-4.3462,-4.3427,-4.3392,-4.3087,-4.2844,-4.2844,-4.2478,-4.166,-4.0075,-3.977,-3.9233,-3.7646,-3.7432,-3.7266,-3.686,-3.6821,-3.6638,-3.6208,-3.6058,-3.5975,-3.5954,-3.5241,-3.4472,-3.3734,-3.3068,-3.2372,-3.1614,-3.1579,-3.1559,-3.1481,-3.1368,-3.1254,-3.119,-3.1254,-3.1295,-3.1295,-3.1295,-3.1295,-4.0658,-4.1258,-4.1585,-4.1758,-3.9758,-3.6892,-3.3641,0.0,-2.8794,-2.5904,-2.5308,-2.5308,-2.5308,-2.5517,-2.6596,-2.9346,-2.9551,-3.1162,0.0,0.0,0.0,0.0,0.0,0.0,0.0,0.0,0.0,0.0,0.0,-4.4769,-4.4737,-4.4207,-4.3865,-4.3783,-4.5288,-4.6065,-4.6011,-4.7536,-4.8306,-4.8306,-4.8306,-4.8306,-4.8306,-4.8306,-4.8306,-4.8306,-4.8306,-4.8306,0.0,-4.8306,-4.8306,-4.8306,-4.8306,-4.8306,-4.8306,-4.8306,-4.8306,-4.8306,-4.8306,-4.7755,-4.6966,-4.6159,-4.5571,-4.5039,-4.4213,-4.3754,-4.3515,-4.3515,-4.3515,-4.3515,-4.3515,-4.3515,-4.3515,-4.3515,-4.3515,-4.3515,-4.3515,-4.3375,-4.3268,-4.3268,-4.3105,-4.2468,-4.0852,-4.058,-3.9877,-3.781,-3.7505,-3.7283,-3.6618,-3.6536,-3.6471,-3.6276,-3.6187,-3.6101,-3.5997,-3.5377,-3.4816,-3.4507,-3.3459,-3.2726,-3.2397,-3.1836,-3.1519,-3.1498,-3.137,-3.1293,-3.1254,-3.1368,-3.1445,-3.1485,-3.1445,-3.1406,-3.9176,-3.9765,-3.9912,-4.0527,-3.8673,-3.5904,0.0,0.0,-2.8376,-2.5827,-2.5308,-2.5308,-2.5308,-2.5308,-2.5926,-2.7829,-2.7848,-2.9298,-3.4196,0.0,0.0,0.0,0.0,0.0,0.0,0.0,0.0,0.0,0.0,-4.5547,-4.5305,-4.4888,-4.4541,-4.4267,-4.5502,-4.6246,-4.645,-4.772,-4.8343,-4.8306,-4.8306,-4.8306,-4.8306,-4.8306,-4.8306,-4.8306,-4.8306,-4.8306,0.0,-4.8306,-4.8306,-4.8306,-4.8306,-4.8306,-4.8306,-4.8306,-4.8306,-4.8306,-4.8306,-4.7627,-4.6636,-4.6085,-4.5186,-4.425,-4.3663,-4.3515,-4.3515,-4.3515,-4.3515,-4.3515,-4.3515,-4.3515,-4.3515,-4.3515,-4.3515,-4.3515,-4.3515,-4.3515,-4.3515,-4.3515,-4.3515,-4.2983,-4.137,-4.1095,-4.0328,-3.8025,-3.7578,-3.7265,-3.6557,-3.6367,-3.6301,-3.6301,-3.6255,-3.6191,-3.6105,-3.5671,-3.528,-3.5057,-3.414,-3.3386,-3.2921,-3.2269,-3.1779,-3.1519,-3.1428,-3.1389,-3.1351,-3.1464,-3.154,-3.1598,-3.1519,-3.1479,-3.7118,-3.8027,-3.8027,-3.8046,-3.7353,-3.5596,0.0,-2.9737,-2.8376,-2.5827,-2.5308,-2.5308,-2.5308,-2.5308,-2.5596,-2.6481,-2.7176,-2.9367,-3.4399,0.0,0.0,0.0,0.0,0.0,0.0,0.0,0.0,0.0,-4.6494,0.0,-4.5342,-4.6048,-4.6052,-4.5119,-4.5879,-4.6626,-4.7279,-4.8089,-4.8438,-4.8306,-4.8306,-4.8306,-4.8306,-4.8306,-4.8306,-4.8306,-4.8306,-4.8306,0.0,-4.8306,-4.8306,-4.8306,-4.8306,-4.8306,-4.8306,-4.8306,-4.8306,-4.8306,-4.8306,-4.726,-4.5902,-4.5902,-4.4819,-4.3515,-4.3515,-4.3515,-4.3515,-4.3515,-4.3515,-4.3515,-4.3515,-4.3515,-4.3515,-4.3515,-4.3515,-4.3515,-4.3515,-4.3515,-4.3515,-4.3515,-4.3515,-4.2983,-4.137,-4.1095,-4.0412,-3.8405,-3.7738,-3.7358,-3.6939,-3.6553,-3.6301,-3.6301,-3.6301,-3.6301,-3.6301,-3.6284,-3.5973,-3.5232,-3.518,-3.449,-3.2955,-3.2904,-3.2485,-3.1615,-3.1598,-3.1559,-3.1498,-3.1559,-3.1598,-3.1598,-3.1519,-3.1402,-3.3403,-3.4539,-3.5257,-3.4661,-3.3449,-3.1885,-2.9948,-2.8409,-2.6986,-2.5596,-2.5308,-2.5308,-2.5308,-2.5308,-2.6154,-2.8769,-2.9388,0.0,0.0,0.0,0.0,0.0,0.0,0.0,0.0,0.0,0.0,0.0,-4.7928,-4.7479,-4.7217,-4.6754,-4.6106,-4.5273,-4.6505,-4.7253,-4.7369,-4.8126,-4.8438,-4.8306,-4.8306,-4.8306,-4.8306,-4.8306,-4.8306,-4.8306,-4.8306,-4.8306,-4.8306,-4.8306,-4.8306,-4.8306,-4.8306,-4.8306,-4.8306,-4.8306,-4.8306,-4.8233,-4.7663,-4.6801,-4.581,-4.5259,-4.436,-4.3515,-4.3515,-4.3515,-4.3515,-4.3515,-4.3515,-4.3515,-4.3515,-4.3515,-4.3515,-4.3515,-4.3515,-4.3515,-4.3515,-4.3515,-4.3515,-4.3515,-4.3515,-4.2983,-4.137,-4.1095,-4.0412,-3.8405,-3.7982,-3.7756,-3.7377,-3.6958,-3.6719,-3.6719,-3.6471,-3.6301,-3.6301,-3.6301,-3.6197,-3.5973,-3.5473,-3.4973,-3.449,-3.3431,-3.2702,-3.2423,-3.1872,-3.1579,-3.1578,-3.1671,-3.169,-3.1598,-3.1519,-3.1423,0.0,-3.201,-3.2672,-3.2101,-3.1172,-3.0017,-2.8492,-2.7351,-2.6346,-2.5481,-2.5308,-2.5308,-2.5308,-2.5308,-2.6,-2.8135,-2.9269,0.0,0.0,0.0,0.0,0.0,0.0,0.0,0.0,0.0,0.0,0.0,-4.8976,-4.8597,-4.831,-4.7847,-4.721,-4.6386,-4.7179,-4.773,-4.792,-4.8384,-4.8532,-4.8382,-4.8382,-4.8363,-4.8306,-4.8306,-4.8306,-4.8306,-4.8306,-4.8306,0.0,-4.8306,-4.8306,-4.8306,-4.8306,-4.8306,-4.8306,-4.8306,-4.8122,-4.7773,-4.7278,-4.636,-4.5369,-4.4874,-4.4158,-4.3515,-4.3515,-4.3515,-4.3515,-4.3515,-4.3515,-4.3515,-4.3515,-4.3515,-4.3515,-4.3515,-4.3515,-4.3515,-4.3515,-4.3515,-4.3515,-4.3515,-4.3515,-4.2983,-4.137,-4.1095,-4.0412,-3.8405,-3.8101,-3.7948,-3.756,-3.7266,-3.7132,-3.7132,-3.6779,-3.6533,-3.6533,-3.6388,-3.6301,-3.6301,-3.587,-3.549,-3.5197,-3.3965,-3.3134,-3.2842,-3.2068,-3.1671,-3.1671,-3.1746,-3.1727,-3.1598,-3.1559,-3.1483,0.0,0.0,0.0,0.0,-3.0051,-2.9424,-2.7049,-2.6505,0.0,-2.5462,-2.5308,-2.5346,-2.5462,-2.5423,-2.55,-2.5788,-2.7871,0.0,0.0,0.0,0.0,0.0,0.0,0.0,0.0,0.0,0.0,-4.9457,-4.9698,-4.9502,-4.8757,-4.9173,-4.907,-4.8243,-4.7986,-4.8164,-4.8804,-4.8787,-4.8697,-4.8513,-4.8513,-4.8438,-4.8306,-4.8306,-4.8306,0.0,-4.8306,-4.8306,-4.8306,-4.8306,-4.8306,-4.8306,-4.8306,-4.8306,-4.8306,-4.8306,-4.7791,-4.7094,-4.7021,-4.5993,-4.4691,-4.4635,-4.4103,-4.3515,-4.3515,-4.3515,-4.3515,-4.3515,-4.3515,-4.3515,-4.3515,-4.3515,-4.3515,-4.3515,-4.3515,-4.3515,-4.3515,-4.3515,-4.3515,-4.3515,-4.3515,-4.3002,-4.1444,-4.1187,-4.052,-3.853,-3.8225,-3.8071,-3.7632,-3.756,-3.7542,-3.7542,-3.717,-3.69,-3.69,-3.6516,-3.6301,-3.6301,-3.6301,-3.599,-3.5301,-3.4559,-3.3783,-3.3007,-3.2196,-3.18,-3.18,-3.18,-3.1727,-3.1598,-3.1598,-3.1559,-2.6515,0.0,-2.7427,-2.6747,-2.6588,-2.6405,0.0,-2.5615,-2.5558,0.0,0.0,0.0,-2.7044,-2.6736,-2.7346,0.0,0.0,0.0,0.0,0.0,0.0,0.0,0.0,0.0,0.0,0.0,0.0,-5.0012,-5.0075,-5.0016,-4.9837,-4.9743,-4.9613,-4.9404,-4.9334,-4.9136,-4.8804,-4.8787,-4.8715,-4.8569,-4.8569,-4.8513,-4.8457,-4.8457,-4.84,-4.8306,-4.8306,-4.8306,-4.8306,-4.8306,-4.8306,-4.8306,-4.8306,-4.8306,-4.8306,-4.8306,-4.7791,-4.7003,-4.6416,-4.5535,-4.4617,-4.3975,-4.3662,-4.3515,-4.3515,-4.3515,-4.3515,-4.3515,-4.3515,-4.3515,-4.3515,-4.3515,-4.3515,-4.3515,-4.3515,-4.3515,-4.3515,-4.3515,-4.3515,-4.3515,-4.3515,-4.3167,-4.2194,-4.2029,-4.1427,-3.9731,-3.9477,-3.9225,-3.8524,-3.8152,-3.7948,-3.7948,-3.7322,-3.69,-3.69,-3.6516,-3.6301,-3.6301,-3.6301,-3.6215,-3.6042,-3.5318,-3.4576,-3.3818,-3.249,-3.18,-3.18,-3.18,-3.1727,-3.1598,-3.1598,-3.1559,-2.5507,-2.609,-2.659,-2.6105,-2.6004,-2.5999,-2.5952,0.0,0.0,0.0,0.0,0.0,0.0,0.0,0.0,0.0,0.0,0.0,0.0,0.0,0.0,0.0,0.0,0.0,0.0,0.0,-5.0195,-5.0195,-5.0347,-5.0432,-5.0432,-5.0155,-4.9981,-4.9981,-4.9851,-4.9565,-4.9077,-4.9079,-4.8942,-4.8697,-4.8697,-4.8624,-4.8513,-4.8513,-4.8438,-4.8306,-4.8306,-4.8306,-4.8306,-4.8306,-4.8306,-4.8306,-4.8306,-4.8306,-4.8269,-4.7902,-4.7241,-4.6415,-4.5626,-4.4819,-4.4085,-4.3626,-4.3515,-4.3515,-4.3515,-4.3515,-4.3515,-4.3515,-4.3515,-4.3515,-4.3515,-4.3515,-4.3515,-4.3515,-4.3515,-4.3515,-4.3515,-4.3515,-4.3515,-4.3515,-4.3515,-4.3239,-4.2433,-4.2304,-4.1882,-4.0634,-4.0139,-3.9735,-3.9313,-3.8734,-3.8385,-3.8385,-3.765,-3.7189,-3.7189,-3.6638,-3.6301,-3.6301,-3.6301,-3.6301,-3.6301,-3.5576,-3.468,-3.3559,-3.2731,-3.2145,-3.18,-3.18,-3.1746,-3.169,-3.169,-3.1671,-2.582,-2.647,-2.6983,-2.6603,-2.6599,-2.6672,-2.6534,0.0,0.0,0.0,0.0,0.0,0.0,0.0,0.0,0.0,0.0,0.0,0.0,0.0,0.0,0.0,0.0,0.0,0.0,-5.0272,-5.0272,-5.0272,-5.0544,-5.0712,-5.0712,-5.0432,-5.0272,-5.0272,-5.005,-4.979,-4.9514,-4.9488,-4.9286,-4.8942,-4.8909,-4.8786,-4.8606,-4.855,-4.8457,-4.8325,-4.8306,-4.8306,-4.8306,-4.8306,-4.8306,-4.8306,-4.8306,-4.8233,-4.8031,-4.7351,-4.6507,-4.5608,-4.48,-4.4066,-4.3515,-4.3515,-4.3515,-4.3515,-4.3515,-4.3515,-4.3515,-4.3515,-4.3515,-4.3515,-4.3515,-4.3515,-4.3515,-4.3515,-4.3515,-4.3515,-4.3515,-4.3515,-4.3515,-4.3515,-4.3515,-4.3277,-4.2598,-4.2488,-4.2213,-4.1389,-4.0598,-4.0029,-3.9918,-3.9203,-3.8707,-3.8707,-3.8034,-3.7596,-3.7596,-3.69,-3.6492,-3.6492,-3.6385,-3.6301,-3.6301,-3.5576,-3.4525,-3.311,-3.2955,-3.2541,-3.18,-3.18,-3.18,-3.18,-3.18,-3.18,-2.7236,-2.8201,-2.8299,-2.6135,-2.6155,-2.6517,-2.5762,0.0,0.0,0.0,0.0,0.0,0.0,0.0,0.0,0.0,0.0,0.0,0.0,0.0,0.0,0.0,0.0,0.0,0.0,-5.0624,-5.0624,-5.0624,-5.0673,-5.0712,-5.0712,-5.0653,-5.0624,-5.0624,-5.0584,-5.0399,-5.0087,-4.9857,-4.9707,-4.9632,-4.9408,-4.922,-4.9069,-4.873,-4.8532,-4.8457,-4.8363,-4.8306,-4.8306,-4.8306,-4.8306,-4.8306,-4.8306,-4.7865,-4.7278,-4.7149,-4.6159,-4.4782,-4.3956,-4.3606,-4.3515,-4.3515,-4.3515,-4.3515,-4.3515,-4.3515,-4.3515,-4.3515,-4.3515,-4.3515,-4.3515,-4.3515,-4.3515,-4.3515,-4.3515,-4.3515,-4.3515,-4.3515,-4.3515,-4.3515,-4.3515,-4.346,-4.3332,-4.3331,-4.3039,-4.2249,-4.1442,-4.0671,-3.9992,-3.9203,-3.8707,-3.8707,-3.8285,-3.8017,-3.8017,-3.7578,-3.7321,-3.7321,-3.6678,-3.6301,-3.6301,-3.5576,-3.4783,-3.3921,-3.3248,-3.2541,-3.18,-3.18,-3.18,-3.18,-3.18,-3.18,-2.6432,-2.7243,-2.7675,-2.6988,-2.8101,-2.9178,-2.8357,0.0,0.0,0.0,0.0,0.0,0.0,0.0,0.0,0.0,0.0,0.0,0.0,0.0,0.0,0.0,0.0,0.0,-4.9913,-4.999,-5.0183,-5.0654,-5.0712,-5.0712,-5.0712,-5.0712,-5.0712,-5.0712,-5.0712,-5.0624,-5.0483,-5.0355,-5.0118,-4.9803,-4.9684,-4.955,-4.942,-4.9218,-4.8982,-4.8712,-4.8658,-4.8495,-4.8306,-4.8306,-4.8049,-4.7645,-4.7645,-4.7149,-4.6416,-4.5957,-4.5057,-4.3993,-4.3643,-4.3515,-4.3515,-4.3515,-4.3515,-4.3515,-4.3515,-4.3515,-4.3515,-4.3515,-4.3515,-4.3515,-4.3515,-4.3515,-4.3515,-4.3515,-4.3515,-4.3515,-4.3515,-4.3515,-4.3515,-4.3515,-4.3515,-4.3515,-4.3515,-4.3515,-4.3369,-4.3002,-4.1901,-4.0967,-4.0598,-3.9478,-3.8707,-3.8707,-3.8352,-3.8101,-3.8101,-3.7721,-3.7505,-3.7505,-3.7133,-3.6841,-3.6638,-3.6307,-3.5665,-3.4717,-3.4318,-3.3559,-3.2403,-3.2817,-3.2817,-3.2386,-3.2386,-3.2386,-2.6001,-2.6544,-2.72,-2.8075,0.0,-3.0581,-3.0766,0.0,0.0,0.0,0.0,0.0,0.0,0.0,0.0,0.0,0.0,0.0,0.0,0.0,0.0,0.0,0.0,-4.8163,-4.9009,-4.9106,-4.9375,-5.0029,-5.0087,-5.0087,-5.0087,-5.0087,-5.0087,-5.0087,-5.0087,-5.0192,-5.0385,-5.0404,-5.027,-5.0,-4.9936,-4.9832,-4.9741,-4.964,-4.9393,-4.9041,-4.8758,-4.8431,-4.8145,-4.7848,-4.7388,-4.6819,-4.6819,-4.6342,-4.5516,-4.4727,-4.403,-4.3515,-4.3515,-4.3515,-4.3515,-4.3515,-4.3515,-4.3515,-4.3515,-4.3515,-4.3515,-4.3515,-4.3515,-4.3515,-4.3515,-4.3515,-4.3515,-4.3515,-4.3515,-4.3515,-4.3515,-4.3515,-4.3515,-4.3515,-4.3515,-4.3515,-4.3515,-4.3515,-4.3515,-4.3515,-4.2286,-4.1297,-4.1113,-3.9863,-3.8909,-3.8726,-3.8417,-3.8236,-3.8236,-3.7948,-3.7773,-3.7773,-3.7523,-3.7209,-3.6919,-3.6801,-3.6269,-3.5218,-3.5197,-3.4525,-3.3179,-3.3783,-3.3766,-3.3179,-3.3179,-3.3179,-2.7476,-2.7916,-2.8106,-2.8917,-2.8082,0.0,-3.0994,-3.0443,0.0,-3.2413,0.0,0.0,0.0,0.0,0.0,0.0,0.0,0.0,0.0,0.0,0.0,0.0,-4.6942,-4.7288,-4.8125,-4.8202,-4.8221,-4.8279,-4.8298,-4.8298,-4.8298,-4.8298,-4.8298,-4.8298,-4.8298,-4.8682,-4.949,-4.949,-4.9885,-5.0624,-5.0325,-5.0171,-5.014,-4.9781,-4.9585,-4.9471,-4.8303,-4.7779,-4.7657,-4.6541,-4.603,-4.5993,-4.5993,-4.5498,-4.469,-4.3883,-4.3551,-4.3515,-4.3515,-4.3515,-4.3515,-4.3515,-4.3515,-4.3515,-4.3515,-4.3515,-4.3515,-4.3515,-4.3515,-4.3515,-4.3515,-4.3515,-4.3515,-4.3515,-4.3515,-4.3515,-4.3515,-4.3515,-4.3515,-4.3515,-4.3515,-4.3515,-4.3515,-4.3515,-4.3515,-4.3515,-4.2763,-4.1937,-4.1187,-4.0359,-3.9533,-3.8781,-3.8658,-3.8676,-3.8676,-3.8627,-3.8611,-3.8611,-3.756,-3.6939,-3.69,-3.6536,-3.598,-3.5197,-3.5197,-3.48,-3.4007,-3.4079,-3.4079,-3.4007,-3.4007,-3.4007,-2.6329,-2.6819,-2.7525,-2.8921,-2.8796,0.0,0.0,-3.3746,-3.5234,-3.675,0.0,0.0,0.0,0.0,0.0,0.0,0.0,0.0,0.0,0.0,0.0,-4.6047,-4.6086,-4.6413,-4.7278,-4.7346,-4.7567,-4.8067,-4.8105,-4.8105,-4.8105,-4.8105,-4.8105,-4.8105,-4.8105,-4.8259,-4.8586,-4.8586,-4.8759,-4.9086,-4.9508,-4.9698,-4.9669,-4.8988,-4.8462,-4.8086,-4.7603,-4.7165,-4.6731,-4.6228,-4.5698,-4.5147,-4.4616,-4.4213,-4.392,-4.3608,-4.3515,-4.3515,-4.3515,-4.3515,-4.3515,-4.3515,-4.3515,-4.3515,-4.3515,-4.3515,-4.3515,-4.3515,-4.3515,-4.3515,-4.3515,-4.3515,-4.3515,-4.3515,-4.3515,-4.3515,-4.3515,-4.3515,-4.3515,-4.3515,-4.3515,-4.3515,-4.3515,-4.3515,-4.3515,-4.3515,-4.2396,-4.1425,-4.1132,-3.9974,-3.9038,-3.8726,-3.8707,-3.8707,-3.8707,-3.8707,-3.8707,-3.8707,-3.8034,-3.7542,-3.7266,-3.688,-3.6417,-3.5887,-3.587,-3.5525,-3.4803,-3.5232,-3.5232,-3.4766,-3.4766,-3.4766,-2.5948,-2.6514,-2.746,-2.8934,0.0,0.0,-3.3724,-3.6115,-3.8266,-3.9939,0.0,0.0,0.0,0.0,0.0,0.0,0.0,0.0,0.0,0.0,-4.5594,-4.5594,-4.5594,-4.5825,-4.6432,-4.649,-4.6721,-4.7278,-4.7317,-4.7317,-4.7317,-4.7317,-4.7317,-4.7317,-4.7317,-4.7432,-4.7721,-4.7721,-4.7855,-4.8105,-4.8452,-4.874,-4.8971,-4.8375,-4.7831,-4.7334,-4.6985,-4.6515,-4.5966,-4.5558,-4.4995,-4.4372,-4.3734,-4.3515,-4.3515,-4.3515,-4.3515,-4.3515,-4.3515,-4.3515,-4.3515,-4.3515,-4.3515,-4.3515,-4.3515,-4.3515,-4.3515,-4.3515,-4.3515,-4.3515,-4.3515,-4.3515,-4.3515,-4.3515,-4.3515,-4.3515,-4.3515,-4.3515,-4.3515,-4.3515,-4.3515,-4.3515,-4.3515,-4.3515,-4.3515,-4.3515,-4.2359,-4.1389,-4.1132,-3.9918,-3.8982,-3.8726,-3.8707,-3.8707,-3.8707,-3.8707,-3.8707,-3.8707,-3.8318,-3.7983,-3.7703,-3.7189,-3.6821,-3.6678,-3.6678,-3.6417,-3.5931,-3.6417,-3.6417,-3.5931,-3.5931,-3.5851,-2.6898,-2.7421,-2.8204,0.0,0.0,0.0,0.0,-3.6944,-3.7924,0.0,0.0,0.0,0.0,0.0,0.0,0.0,0.0,0.0,0.0,0.0,-4.5594,-4.5594,-4.5594,-4.5594,-4.5594,-4.5594,-4.5594,-4.5594,-4.5594,-4.5594,-4.5594,-4.5594,-4.5594,-4.5594,-4.5594,-4.6009,-4.6885,-4.6885,-4.7298,-4.8067,-4.7278,-4.7317,-4.8086,-4.8086,-4.7933,-4.7616,-4.6486,-4.5849,-4.5498,-4.431,-4.3736,-4.36,-4.3532,-4.3496,-4.3515,-4.3515,-4.3515,-4.3515,-4.3515,-4.3515,-4.3515,-4.3515,-4.3515,-4.3515,-4.3515,-4.3515,-4.3515,-4.3515,-4.3515,-4.3515,-4.3515,-4.3515,-4.3515,-4.3515,-4.3515,-4.3515,-4.3496,-4.3515,-4.3515,-4.3515,-4.3515,-4.3515,-4.3515,-4.3515,-4.3515,-4.3496,-4.28,-4.2011,-4.1168,-4.0377,-3.957,-3.8799,-3.8707,-3.8707,-3.8707,-3.8707,-3.8707,-3.8707,-3.8318,-3.8101,-3.8101,-3.7339,-3.7094,-3.7487,-3.7505,-3.7505,-3.7505,-3.7505,-3.7505,-3.7505,-3.7505,-3.7266,-2.6145,-2.6977,0.0,0.0,0.0,0.0,0.0,0.0,0.0,0.0,0.0,0.0,0.0,0.0,0.0,0.0,0.0,-4.5679,-4.5665,-4.5665,-4.5648,-4.5614,-4.5594,-4.5594,-4.5594,-4.5594,-4.5594,-4.5594,-4.5594,-4.5594,-4.5594,-4.5594,-4.5594,-4.5594,-4.5594,-4.5729,-4.597,-4.599,-4.6105,-4.6336,-4.6105,-4.6432,-4.724,-4.6624,-4.6196,-4.5927,-4.5573,-4.5276,-4.4996,-4.4387,-4.3986,-4.3736,-4.3719,-4.3651,-4.3565,-4.3565,-4.3531,-4.3515,-4.3515,-4.3515,-4.3515,-4.3515,-4.3515,-4.3515,-4.3515,-4.3515,-4.3515,-4.3515,-4.3515,-4.3515,-4.3548,-4.3565,-4.3565,-4.3565,-4.3531,-4.3549,-4.3686,-4.3634,-4.3565,-4.3565,-4.3565,-4.3548,-4.3515,-4.3515,-4.3296,-4.2745,-4.1974,-4.0948,-3.9588,-3.9203,-3.8964,-3.8726,-3.8707,-3.8707,-3.8707,-3.8707,-3.8707,-3.8707,-3.8318,-3.8101,-3.8101,-3.7596,-3.7395,-3.7505,-3.7505,-3.7505,-3.7505,-3.7505,-3.7505,-3.7505,-3.7505,-3.7266,-2.7459,0.0,0.0,0.0,0.0,0.0,0.0,0.0,0.0,0.0,0.0,0.0,0.0,0.0,0.0,0.0,-4.5403,-4.5692,-4.5709,-4.5701,-4.5684,-4.5614,-4.5594,-4.5594,-4.5594,-4.5594,-4.5594,-4.5594,-4.5594,-4.5594,-4.5594,-4.5594,-4.5594,-4.5594,-4.5594,-4.5594,-4.5594,-4.5594,-4.5594,-4.5594,-4.5594,-4.5883,-4.6374,-4.5845,-4.5448,-4.5201,-4.5085,-4.4962,-4.4776,-4.4546,-4.4332,-4.4151,-4.4121,-4.3999,-4.3844,-4.3844,-4.3809,-4.3763,-4.3667,-4.3747,-4.3855,-4.3614,-4.3615,-4.3666,-4.3531,-4.3513,-4.3531,-4.3515,-4.3549,-4.3617,-4.3599,-4.3651,-4.3667,-4.3667,-4.3651,-4.3652,-4.3771,-4.3736,-4.3667,-4.3599,-4.3599,-4.3582,-4.3515,-4.3515,-4.3332,-4.2837,-4.1827,-4.0508,-3.8909,-3.8707,-3.8707,-3.8707,-3.8707,-3.8707,-3.8707,-3.8707,-3.8707,-3.8707,-3.8483,-3.8352,-3.8352,-3.7948,-3.7808,-3.7965,-3.7983,-3.7983,-3.7983,-3.7983,-3.7983,-3.7983,-3.7983,-3.7667,0.0,0.0,0.0,0.0,0.0,0.0,0.0,0.0,0.0,0.0,0.0,0.0,0.0,0.0,0.0,0.0,-4.5739,-4.57,-4.5717,-4.5709,-4.5673,-4.5622,-4.5622,-4.5614,-4.5594,-4.5594,-4.5594,-4.5594,-4.5594,-4.5594,-4.5594,-4.5594,-4.5594,-4.5594,-4.5594,-4.5594,-4.5594,-4.5594,-4.5594,-4.5594,-4.5594,-4.5594,-4.5594,-4.5594,-4.5476,-4.5222,-4.4985,-4.4849,-4.4825,-4.4763,-4.4726,-4.4701,-4.465,-4.4465,-4.425,-4.425,-4.425,-4.4192,-4.3961,-4.4121,-4.435,-4.3809,-4.3781,-4.391,-4.3599,-4.3548,-4.3582,-4.3549,-4.3669,-4.3769,-4.3667,-4.3719,-4.3804,-4.382,-4.3804,-4.3804,-4.382,-4.382,-4.3769,-4.3651,-4.3615,-4.3582,-4.3496,-4.3515,-4.346,-4.3313,-4.1919,-4.0343,-3.8891,-3.8707,-3.8707,-3.8707,-3.8707,-3.8707,-3.8707,-3.8707,-3.8707,-3.8707,-3.8707,-3.8707,-3.8707,-3.8352,-3.8336,-3.8692,-3.8707,-3.8707,-3.8707,-3.8707,-3.8707,-3.8707,-3.8707,-3.8285,0.0,0.0,0.0,0.0,0.0,0.0,0.0,0.0,0.0,0.0,0.0,0.0,0.0,0.0,0.0,-4.5773,-4.5786,-4.5783,-4.5785,-4.5777,-4.5754,-4.5693,-4.5684,-4.5648,-4.5614,-4.5594,-4.5594,-4.5594,-4.5594,-4.5594,-4.5594,-4.5594,-4.5594,-4.5594,-4.5594,-4.5594,-4.5594,-4.5594,-4.5594,-4.5594,-4.5594,-4.5594,-4.5594,-4.5594,-4.5568,-4.5513,-4.5448,-4.5312,-4.5107,-4.5096,-4.4973,-4.4776,-4.4763,-4.4688,-4.4585,-4.4585,-4.4559,-4.4506,-4.4402,-4.4242,-4.4076,-4.3952,-4.3781,-4.3599,-4.3582,-4.3582,-4.3634,-4.3703,-4.3771,-4.3804,-4.3816,-4.3867,-4.3881,-4.3926,-4.3883,-4.3837,-4.3945,-4.3913,-4.3851,-4.3769,-4.3771,-4.3703,-4.3532,-4.3515,-4.3057,-4.1809,-4.0249,-3.9093,-3.8744,-3.8707,-3.8707,-3.8707,-3.8707,-3.8707,-3.8707,-3.8707,-3.8707,-3.8707,-3.8707,-3.8707,-3.8707,-3.8611,-3.8611,-3.8707,-3.8707,-3.8707,-3.8707,-3.8707,-3.8707,-3.8707,-3.8707,-3.8451,0.0,0.0,0.0,0.0,0.0,0.0,0.0,0.0,0.0,0.0,0.0,0.0,0.0,0.0,0.0,-4.5807,-4.5807,-4.5793,-4.5795,-4.5807,-4.5785,-4.5703,-4.569,-4.5693,-4.5648,-4.5622,-4.5594,-4.5594,-4.5594,-4.5594,-4.5594,-4.5594,-4.5594,-4.5594,-4.5594,-4.5594,-4.5594,-4.5594,-4.5594,-4.5594,-4.5594,-4.5594,-4.5594,-4.5594,-4.5594,-4.5594,-4.5594,-4.5513,-4.54,-4.54,-4.5312,-4.5191,-4.5191,-4.5085,-4.495,-4.495,-4.4908,-4.4872,-4.4701,-4.4593,-4.4482,-4.4236,-4.3999,-4.3828,-4.3734,-4.3718,-4.3751,-4.3804,-4.3853,-4.3823,-4.3415,-4.3354,-4.3274,-4.2931,-4.3404,-4.3913,-4.3989,-4.3974,-4.3913,-4.382,-4.3804,-4.3738,-4.3532,-4.3515,-4.2818,-4.0836,-4.0139,-3.9554,-3.8799,-3.8707,-3.8707,-3.8707,-3.8707,-3.8707,-3.8707,-3.8707,-3.8707,-3.8707,-3.8707,-3.8707,-3.8707,-3.8707,-3.8707,-3.8707,-3.8707,-3.8707,-3.8707,-3.8707,-3.8707,-3.8707,-3.8707,-3.8483,0.0,0.0,0.0,0.0,0.0,0.0,0.0,0.0,0.0,0.0,0.0,0.0,0.0,0.0,0.0,-4.5807,-4.5807,-4.5793,-4.5803,-4.5795,-4.5781,-4.5723,-4.5722,-4.5717,-4.5701,-4.5648,-4.5603,-4.5594,-4.5594,-4.5594,-4.5594,-4.5594,-4.5594,-4.5594,-4.5594,-4.5594,-4.5594,-4.5594,-4.5594,-4.5594,-4.5594,-4.5594,-4.5594,-4.5594,-4.5594,-4.5594,-4.5594,-4.5594,-4.5594,-4.5594,-4.5594,-4.5594,-4.5594,-4.5457,-4.5263,-4.5263,-4.5263,-4.5232,-4.4962,-4.4938,-4.4962,-4.4457,-4.4206,-4.4075,-4.3883,-4.3851,-4.3899,-4.3851,-4.3913,-4.3804,-4.2928,-4.277,-4.2593,-4.1776,-4.2612,-4.3596,-4.3596,-4.3689,-4.3754,-4.3631,-4.3582,-4.3533,-4.3328,-4.3091,-4.2228,-4.0226,-4.0375,-4.0228,-3.8903,-3.8719,-3.8719,-3.8719,-3.8719,-3.8719,-3.8719,-3.8719,-3.8719,-3.8719,-3.8719,-3.8719,-3.8723,-3.8723,-3.8704,-3.8707,-3.8707,-3.8707,-3.8707,-3.8707,-3.8707,-3.8707,-3.8707,-3.8515,0.0,0.0,0.0,0.0,0.0,0.0,0.0,0.0,0.0,0.0,0.0,0.0,0.0,0.0,0.0,-4.5807,-4.5807,-4.58,-4.58,-4.58,-4.5805,-4.5781,-4.5792,-4.5762,-4.5709,-4.5693,-4.5657,-4.5594,-4.5594,-4.5594,-4.5594,-4.5594,-4.5594,-4.5594,-4.5594,-4.5594,-4.5594,-4.5594,-4.5594,-4.5594,-4.5594,-4.5594,-4.5594,-4.5594,-4.5594,-4.5594,-4.5594,-4.5594,-4.5594,-4.5594,-4.5594,-4.5594,-4.5594,-4.5577,-4.555,-4.555,-4.555,-4.5504,-4.518,-4.4938,-4.4688,-4.4318,-4.4048,-4.3851,-4.3883,-4.3881,-4.3913,-4.3958,-4.3989,-4.3819,-4.3005,-4.2782,-4.2593,-4.1776,-4.1757,-4.1924,-4.1924,-4.2463,-4.2934,-4.286,-4.2746,-4.2648,-4.2566,-4.139,-4.0362,-4.0031,-3.9476,-3.9046,-3.8885,-3.8881,-3.8881,-3.8881,-3.8881,-3.8881,-3.8881,-3.8881,-3.8881,-3.8881,-3.8881,-3.8851,-3.8792,-3.8792,-3.8765,-3.8707,-3.8707,-3.8707,-3.8707,-3.8707,-3.8707,-3.8707,-3.8707,-3.8658,0.0,0.0,0.0,0.0,0.0,0.0,0.0,0.0,0.0,0.0,0.0,0.0,0.0,0.0,0.0,-4.5807,-4.5807,-4.5807,-4.5807,-4.5807,-4.58,-4.5805,-4.5803,-4.5792,-4.5754,-4.5711,-4.5698,-4.5657,-4.5648,-4.564,-4.5594,-4.5594,-4.5594,-4.5594,-4.5594,-4.5594,-4.5594,-4.5594,-4.5594,-4.5594,-4.5594,-4.5594,-4.5594,-4.5594,-4.5594,-4.5594,-4.5594,-4.5594,-4.5594,-4.5594,-4.5594,-4.5594,-4.5594,-4.5594,-4.5594,-4.5594,-4.5594,-4.5577,-4.5429,-4.5201,-4.4919,-4.4624,-4.4346,-4.4106,-4.3989,-4.3961,-4.3958,-4.3989,-4.367,-4.3132,-4.2333,-4.1776,-4.1237,-4.0401,-4.0197,-4.0197,-4.0197,-4.1571,-4.2897,-4.3301,-4.291,-4.2498,-4.25,-4.1875,-4.1101,-4.0197,-4.0139,-3.9896,-3.9021,-3.891,-3.891,-3.891,-3.891,-3.891,-3.891,-3.891,-3.891,-3.891,-3.891,-3.8881,-3.8807,-3.8807,-3.878,-3.8707,-3.8707,-3.8707,-3.8707,-3.8707,-3.8707,-3.8707,-3.8707,-3.8707,0.0,0.0,0.0,0.0,0.0,0.0,0.0,0.0,0.0,0.0,0.0,0.0,0.0,0.0,0.0,-4.5807,-4.5807,-4.5807,-4.5807,-4.5807,-4.5807,-4.5807,-4.5798,-4.5795,-4.5807,-4.5758,-4.5727,-4.5698,-4.5709,-4.5684,-4.5631,-4.5622,-4.5594,-4.5594,-4.5594,-4.5594,-4.5594,-4.5594,-4.5594,-4.5594,-4.5594,-4.5594,-4.5594,-4.5594,-4.5594,-4.5594,-4.5594,-4.5594,-4.5594,-4.5594,-4.5594,-4.5594,-4.5594,-4.5594,-4.5594,-4.5594,-4.5594,-4.5586,-4.5513,-4.5381,-4.5169,-4.4903,-4.4663,-4.4438,-4.4177,-4.4091,-4.4094,-4.4036,-4.3578,-4.2872,-4.185,-4.1144,-4.049,-3.9621,-3.925,-3.9212,-3.964,-4.1181,-4.2782,-4.3741,-4.318,-4.2596,-4.2614,-4.2229,-4.1585,-4.0603,-4.0603,-4.0362,-3.9394,-3.9079,-3.895,-3.895,-3.895,-3.895,-3.895,-3.895,-3.895,-3.895,-3.895,-3.8921,-3.8848,-3.8837,-3.8792,-3.8719,-3.8707,-3.8707,-3.8707,-3.8707,-3.8707,-3.8707,-3.8707,-3.8707,0.0,0.0,0.0,0.0,0.0,0.0,0.0,0.0,0.0,0.0,0.0,0.0,0.0,0.0,0.0,0.0,-4.5807,-4.5807,-4.5807,-4.5807,-4.5807,-4.5807,-4.58,-4.5805,-4.5788,-4.5807,-4.5765,-4.5708,-4.5706,-4.5701,-4.5701,-4.564,-4.5594,-4.5594,-4.5594,-4.5594,-4.5594,-4.5594,-4.5594,-4.5594,-4.5594,-4.5594,-4.5594,-4.5594,-4.5594,-4.5594,-4.5594,-4.5594,-4.5594,-4.5594,-4.5594,-4.5594,-4.5594,-4.5594,-4.5594,-4.5594,-4.5594,-4.5568,-4.5312,-4.5211,-4.5169,-4.4903,-4.4788,-4.4726,-4.4452,-4.4388,-4.4318,-4.4079,-4.3968,-4.3578,-4.1999,-4.1571,-4.133,-4.0527,-3.9695,-3.9547,-4.1126,-4.1571,-4.211,-4.3689,-4.3339,-4.2767,-4.2706,-4.1378,-4.0567,-4.1307,-4.0104,-3.941,-4.022,-3.9602,-3.9087,-3.9087,-3.9087,-3.9087,-3.9087,-3.9087,-3.9087,-3.9087,-3.9087,-3.9045,-3.8979,-3.8921,-3.8848,-3.8792,-3.8735,-3.8707,-3.8707,-3.8707,-3.8707,-3.8707,-3.8707,-3.8707,0.0,0.0,0.0,0.0,0.0,0.0,0.0,0.0,0.0,0.0,0.0,0.0,0.0,0.0,0.0,0.0,-4.5807,-4.5807,-4.5807,-4.5807,-4.5807,-4.5807,-4.5807,-4.58,-4.5805,-4.5805,-4.5791,-4.5765,-4.575,-4.5758,-4.5701,-4.5684,-4.564,-4.5594,-4.5594,-4.5594,-4.5594,-4.5594,-4.5594,-4.5594,-4.5594,-4.5594,-4.5594,-4.5594,-4.5594,-4.5594,-4.5594,-4.5594,-4.5594,-4.5594,-4.5594,-4.5594,-4.5594,-4.5594,-4.5594,-4.5594,-4.5594,-4.5586,-4.5495,-4.5467,-4.541,-4.514,-4.5063,-4.5007,-4.4739,-4.465,-4.4599,-4.4332,-4.3872,-4.3193,-4.1928,-4.1219,-4.0606,-3.977,-3.9751,-4.0085,-4.0698,-4.1237,-4.1924,-4.302,-4.3002,-4.2965,-4.3454,-4.2603,-4.1805,-4.1583,-4.1045,-4.041,-3.9658,-3.9287,-3.9101,-3.9101,-3.9101,-3.9101,-3.9101,-3.9101,-3.9101,-3.9101,-3.9101,-3.9059,-3.8993,-3.8983,-3.8906,-3.8807,-3.8822,-3.8795,-3.8707,-3.8707,-3.8707,-3.8707,-3.8707,-3.8707,0.0,0.0,0.0,0.0,0.0,0.0,0.0,0.0,0.0,0.0,0.0,0.0,0.0,0.0,0.0,0.0,-4.5633,-4.5807,-4.5807,-4.5807,-4.5807,-4.5807,-4.5807,-4.5807,-4.5807,-4.5807,-4.5793,-4.581,-4.5795,-4.5785,-4.575,-4.5717,-4.5676,-4.5594,-4.5325,-4.5306,-4.5594,-4.5594,-4.5594,-4.5594,-4.5594,-4.5594,-4.5594,-4.5594,-4.5594,-4.5594,-4.5594,-4.5594,-4.5594,-4.5594,-4.5594,-4.5594,-4.5594,-4.5594,-4.5594,-4.5594,-4.5594,-4.5594,-4.5594,-4.5594,-4.5568,-4.54,-4.5332,-4.5273,-4.5019,-4.4919,-4.4861,-4.4493,-4.4021,-4.3352,-4.2273,-4.1609,-4.0977,-4.0141,-4.0587,-4.1126,-4.0861,-4.1219,-4.1832,-4.263,-4.302,-4.3373,-4.3912,-4.3113,-4.2314,-4.2036,-4.1293,-4.0457,-3.964,-3.9287,-3.9101,-3.9101,-3.9101,-3.9101,-3.9101,-3.9101,-3.9101,-3.9101,-3.9101,-3.9073,-3.9036,-3.9007,-3.8968,-3.8881,-3.8896,-3.8851,-3.8765,-3.8765,-3.8735,-3.8707,-3.8735,-3.8765,0.0,0.0,0.0,0.0,0.0,0.0,0.0,0.0,0.0,0.0,0.0,0.0,0.0,0.0,0.0,0.0,0.0,-4.5768,-4.5768,-4.5787,-4.5807,-4.5807,-4.5807,-4.5807,-4.5807,-4.5807,-4.5807,-4.5807,-4.5791,-4.5807,-4.5807,-4.5711,-4.5618,-4.5537,-4.4701,-4.4662,-4.5518,-4.5537,-4.5537,-4.5556,-4.5556,-4.5575,-4.5594,-4.5594,-4.5594,-4.5594,-4.5594,-4.5594,-4.5594,-4.5594,-4.5594,-4.5594,-4.5594,-4.5594,-4.5594,-4.5594,-4.5594,-4.5594,-4.5594,-4.5594,-4.5594,-4.5594,-4.5594,-4.5559,-4.5302,-4.5211,-4.5096,-4.4572,-4.4411,-4.4172,-4.3051,-4.2775,-4.2556,-4.1757,-4.2184,-4.2537,-4.1739,-4.1571,-4.1832,-4.2612,-4.3429,-4.3986,-4.3968,-4.2667,-4.1887,-4.2649,-4.0698,-3.9435,-4.0253,-3.9621,-3.9101,-3.9101,-3.9101,-3.9101,-3.9101,-3.9101,-3.9101,-3.9101,-3.9101,-3.9101,-3.9101,-3.9036,-3.8993,-3.8993,-3.8935,-3.8892,-3.891,-3.891,-3.8837,-3.8707,-3.8837,-3.891,-2.2949,0.0,0.0,0.0,0.0,0.0,0.0,0.0,0.0,0.0,0.0,0.0,0.0,0.0,0.0,0.0,0.0,-4.4929,-4.4929,-4.5432,-4.5807,-4.5807,-4.5807,-4.5807,-4.5807,-4.5807,-4.5807,0.0,-4.5793,-4.5798,-4.5807,-4.5152,-4.4463,-4.3797,-4.3566,-4.3547,-4.3797,-4.3797,-4.4085,-4.4662,-4.4662,-4.4998,-4.5594,-4.5594,-4.5594,-4.5594,-4.5594,-4.5594,-4.5594,-4.5594,-4.5594,-4.5594,-4.5594,-4.5594,-4.5594,-4.5594,-4.5594,-4.5594,-4.5594,-4.5594,-4.5594,-4.5594,-4.5594,-4.5586,-4.5513,-4.5495,-4.5419,-4.5074,-4.4977,-4.4561,-4.2696,-4.2076,-4.172,-4.0936,-4.1349,-4.1702,-4.0903,-4.1181,-4.1664,-4.1887,-4.3039,-4.3819,-4.3225,-4.276,-4.2352,-4.198,-4.0847,-3.99,-3.951,-3.925,-3.9101,-3.9101,-3.9101,-3.9101,-3.9101,-3.9101,-3.9101,-3.9101,-3.9101,-3.9101,-3.9101,-3.9073,-3.9064,-3.8993,-3.9036,-3.9007,-3.891,-3.891,-3.8881,-3.8851,-3.8881,-3.891,0.0,0.0,0.0,0.0,0.0,0.0,0.0,-2.9886,0.0,0.0,0.0,0.0,0.0,0.0,0.0,0.0,0.0,-4.3297,-4.4007,-4.4527,-4.4833,-4.4833,-4.5168,-4.5382,-4.5382,-4.5691,-4.5738,-4.5369,-4.5312,-4.5128,-4.4737,-4.3882,-4.3308,-4.3118,-4.2763,-4.2755,-4.3104,-4.3104,-4.3335,-4.3797,-4.3797,-4.4066,-4.4547,-4.4547,-4.4547,-4.4566,-4.4921,-4.5056,-4.5094,-4.546,-4.5594,-4.5594,-4.5594,-4.5594,-4.5594,-4.5594,-4.5594,-4.5556,-4.519,-4.5306,-4.5479,-4.4786,-4.5037,-4.5537,-4.5171,-4.5306,-4.5531,-4.5282,-4.4859,-4.4201,-4.295,-4.2502,-4.2154,-4.1245,-4.1661,-4.2025,-4.1113,-4.1256,-4.1497,-4.1144,-4.2389,-4.3243,-4.2445,-4.2296,-4.2017,-4.1219,-4.0383,-3.9658,-3.9175,-3.9101,-3.9101,-3.9101,-3.9101,-3.9101,-3.9101,-3.9101,-3.9101,-3.9101,-3.9101,-3.9101,-3.9101,-3.9101,-3.9073,-3.905,-3.9073,-3.9059,-3.8993,-3.8993,-3.8993,-3.8993,-3.895,-3.895,0.0,0.0,0.0,0.0,0.0,0.0,-2.9551,-2.9291,-2.9195,0.0,0.0,0.0,0.0,0.0,0.0,0.0,0.0,0.0,-4.3005,-4.3393,-4.3497,-4.3497,-4.4182,-4.465,-4.465,-4.5306,-4.539,-4.4633,-4.4503,-4.4052,-4.3115,-4.2393,-4.2249,-4.2792,-4.2137,-4.2094,-4.2824,-4.2816,-4.2854,-4.297,-4.297,-4.3008,-4.3104,-4.3104,-4.3104,-4.3143,-4.3855,-4.4162,-4.422,-4.5094,-4.5518,-4.5594,-4.5594,-4.5594,-4.5594,-4.5594,-4.5594,-4.5498,-4.4701,-4.4893,-4.521,-4.372,-4.4182,-4.519,-4.4509,-4.4778,-4.5271,-4.5025,-4.4222,-4.3391,-4.3296,-4.3253,-4.2992,-4.2039,-4.2395,-4.2712,-4.1749,-4.1514,-4.1258,-4.0458,-4.1582,-4.2407,-4.1609,-4.146,-4.1219,-4.0494,-3.9658,-3.9101,-3.9101,-3.9101,-3.9101,-3.9101,-3.9101,-3.9101,-3.9101,-3.9101,-3.9101,-3.9101,-3.9101,-3.9101,-3.9101,-3.9101,-3.9101,-3.9101,-3.9101,-3.9101,-3.9101,-3.9101,-3.9101,-3.9101,-3.905,-3.905,-2.8828,0.0,0.0,0.0,0.0,0.0,-2.7324,-2.8066,-2.9315,0.0,0.0,0.0,0.0,0.0,0.0,0.0,0.0,0.0,-4.2016,-4.3042,-4.3497,-4.3497,-4.3653,-4.375,-4.375,-4.3891,-4.3923,-4.3748,-4.3661,-4.3218,-4.2291,-4.2084,-4.1723,-4.1101,-4.093,-4.0927,-4.1093,-4.1031,-4.1354,-4.2038,-4.2038,-4.2431,-4.3104,-4.3104,-4.3104,-4.3104,-4.3278,-4.3335,-4.3393,-4.422,-4.4979,-4.5594,-4.5594,-4.5594,-4.5594,-4.5594,-4.5594,-4.5575,-4.5421,-4.4998,-4.4489,-4.4162,-4.3855,-4.3682,-4.4162,-4.397,-4.3577,-4.3524,-4.3187,-4.2683,-4.1988,-4.1692,-4.1518,-4.1309,-4.1385,-4.1449,-4.1239,-4.103,-4.0632,-3.982,-4.0849,-4.1571,-4.0769,-4.0624,-4.0583,-4.042,-3.9658,-3.9101,-3.9101,-3.9101,-3.9101,-3.9101,-3.9101,-3.9101,-3.9101,-3.9101,-3.9101,-3.9101,-3.9101,-3.9101,-3.9101,-3.9101,-3.9101,-3.9101,-3.9101,-3.9101,-3.9101,-3.9101,-3.9101,-3.9101,-3.9087,-3.9087,0.0,0.0,0.0,-2.9609,0.0,0.0,0.0,-2.7344,-2.7891,-2.8769,0.0,0.0,0.0,0.0,0.0,0.0,0.0,0.0,0.0,-3.9969,-4.1062,-4.1062,-4.1825,-4.2352,-4.2352,-4.3075,-4.3347,-4.284,-4.2403,-4.1934,-4.1429,-4.1403,-4.1177,-4.0673,-4.0653,-4.0624,-4.0607,-4.0573,-4.0743,-4.1143,-4.1143,-4.1373,-4.1797,-4.1797,-4.1797,-4.1835,-4.2258,-4.245,-4.2527,-4.3355,-4.3951,-4.4432,-4.5267,-4.5594,-4.5594,-4.5594,-4.5594,-4.5479,-4.4643,-4.4335,-4.4085,-4.2816,-4.272,-4.3085,-4.3066,-4.3085,-4.3104,-4.3104,-4.2682,-4.2142,-4.171,-4.1523,-4.1303,-4.0784,-4.0973,-4.1113,-4.0577,-4.0341,-4.0111,-3.9602,-4.0063,-4.0378,-3.9835,-4.0104,-4.0248,-3.9807,-3.938,-3.9101,-3.9101,-3.9101,-3.9101,-3.9101,-3.9101,-3.9101,-3.9101,-3.9101,-3.9101,-3.9101,-3.9101,-3.9101,-3.9101,-3.9101,-3.9101,-3.9101,-3.9101,-3.9101,-3.9101,-3.9101,-3.9101,-3.9101,-3.9101,-3.9101,0.0,0.0,0.0,0.0,0.0,-2.8574,0.0,0.0,0.0,-2.8516,0.0,0.0,0.0,0.0,0.0,0.0,0.0,0.0,0.0,0.0,0.0,-3.7812,-3.9394,-4.0449,-4.0449,-4.1477,-4.1924,-4.1431,-4.0643,-4.0282,-4.0543,-4.0732,-4.0784,-4.0713,-4.07,-4.0673,-4.0629,-4.0615,-4.0573,-4.0523,-4.0516,-4.0496,-4.0496,-4.0496,-4.0496,-4.0535,-4.1239,-4.1546,-4.1623,-4.2489,-4.2854,-4.3008,-4.4509,-4.5114,-4.5114,-4.5114,-4.5114,-4.494,-4.3566,-4.3412,-4.347,-4.1412,-4.17,-4.2701,-4.1816,-4.2162,-4.2816,-4.2643,-4.2085,-4.1546,-4.1546,-4.1546,-4.1341,-4.0468,-4.0757,-4.0998,-4.0127,-3.9903,-3.9838,-3.9656,-3.9592,-3.9458,-3.9137,-3.9677,-3.99,-3.9212,-3.9101,-3.9101,-3.9101,-3.9101,-3.9101,-3.9101,-3.9101,-3.9101,-3.9101,-3.9101,-3.9101,-3.9101,-3.9101,-3.9101,-3.9101,-3.9101,-3.9101,-3.9101,-3.9101,-3.9101,-3.9101,-3.9101,-3.9101,-3.9101,-3.9101,-3.9101,0.0,0.0,0.0,0.0,-3.3535,0.0,0.0,0.0,-2.8574,-2.6562,0.0,0.0,0.0,0.0,0.0,0.0,0.0,0.0,0.0,0.0,0.0,-3.4961,-3.668,-3.7734,-3.7734,-3.7207,-3.7436,-3.8812,-3.8057,-3.8183,-3.966,-4.0405,-4.079,-4.079,-4.0733,-4.0694,-4.0687,-4.0624,-4.0607,-4.058,-4.0531,-4.0496,-4.0496,-4.0496,-4.0496,-4.0516,-4.0593,-4.065,-4.0727,-4.1585,-4.1942,-4.2038,-4.3008,-4.3374,-4.3374,-4.3374,-4.3374,-4.3355,-4.3162,-4.2643,-4.2038,-4.1758,-4.1797,-4.1797,-4.0912,-4.1258,-4.1797,-4.1016,-4.0727,-4.065,-4.065,-4.065,-4.0623,-4.0492,-4.0542,-4.0572,-4.0441,-4.0276,-4.0148,-4.012,-3.9922,-3.9618,-3.9178,-3.9175,-3.9212,-3.9101,-3.9101,-3.9101,-3.9101,-3.9101,-3.9101,-3.9101,-3.9101,-3.9101,-3.9101,-3.9101,-3.9101,-3.9101,-3.9101,-3.9101,-3.9101,-3.9101,-3.9101,-3.9101,-3.9101,-3.9101,-3.9101,-3.9101,-3.9101,-3.9101,-3.9101,-3.9101,0.0,0.0,0.0,0.0,0.0,0.0,-2.8223,0.0,-2.7305,0.0,0.0,0.0,0.0,0.0,0.0,0.0,-2.8105,0.0,0.0,0.0,0.0,0.0,0.0,0.0,-3.5703,-3.5469,-3.572,-3.691,-3.6635,-3.713,-3.8757,-3.9645,-4.0319,-4.0797,-4.0778,-4.0739,-4.07,-4.0666,-4.0646,-4.0605,-4.0571,-4.0549,-4.0565,-4.0565,-4.0531,-4.0496,-4.0496,-4.0496,-4.0535,-4.0893,-4.1046,-4.1085,-4.145,-4.22,-4.3104,-4.3104,-4.3104,-4.3028,-4.2527,-4.2104,-4.1712,-4.12,-4.1046,-4.0969,-4.0612,-4.0766,-4.0969,-4.0593,-4.0496,-4.0496,-4.0496,-4.0496,-4.0496,-4.0496,-4.0496,-4.0496,-4.0496,-4.0422,-4.0339,-4.0223,-4.012,-3.9922,-3.9578,-3.9402,-3.9285,-3.9129,-3.9101,-3.9101,-3.9101,-3.9101,-3.9101,-3.9101,-3.9101,-3.9101,-3.9101,-3.9101,-3.9101,-3.9101,-3.9101,-3.9101,-3.9101,-3.9101,-3.9101,-3.9101,-3.9101,-3.9101,-3.9101,-3.9101,-3.9101,-3.9101,-3.9101,-3.9101,-3.7891,0.0,0.0,0.0,0.0,0.0,0.0,0.0,0.0,0.0,0.0,0.0,0.0,0.0,0.0,0.0,0.0,-2.8184,0.0,0.0,0.0,0.0,0.0,0.0,0.0,-3.3223,-3.3495,-3.4792,-3.4645,-3.5405,-3.7506,-3.8645,-3.9601,-4.041,-4.0681,-4.0784,-4.0733,-4.07,-4.0687,-4.0628,-4.0614,-4.0593,-4.0603,-4.0595,-4.0573,-4.0531,-4.0516,-4.0496,-4.0496,-4.0496,-4.0496,-4.0496,-4.0496,-4.1266,-4.2393,-4.2393,-4.2547,-4.2624,-4.1758,-4.145,-4.1335,-4.0708,-4.0496,-4.0496,-4.0496,-4.0496,-4.0496,-4.0496,-4.0496,-4.0496,-4.0496,-4.0496,-4.0496,-4.0496,-4.0496,-4.0496,-4.0496,-4.0496,-4.0457,-4.0313,-4.0286,-4.0204,-3.9953,-3.9728,-3.9513,-3.9313,-3.924,-3.9205,-3.9205,-3.9156,-3.9101,-3.9101,-3.9101,-3.9101,-3.9101,-3.9101,-3.9101,-3.9101,-3.9101,-3.9101,-3.9101,-3.9101,-3.9101,-3.9101,-3.9101,-3.9101,-3.9101,-3.9101,-3.9101,-3.9101,-3.9101,-3.9101,0.0,0.0,0.0,-3.4883,0.0,0.0,0.0,0.0,-2.9258,0.0,0.0,0.0,0.0,0.0,-3.0215,-2.8535,0.0,0.0,0.0,0.0,0.0,0.0,0.0,0.0,0.0,-2.9492,-2.957,0.0,-3.1472,-3.2391,-3.5699,-3.7451,-3.8704,-3.9526,-4.0352,-4.0797,-4.079,-4.0739,-4.07,-4.0694,-4.0628,-4.0595,-4.0607,-4.0603,-4.0607,-4.058,-4.0531,-4.0496,-4.0496,-4.0496,-4.0496,-4.0496,-4.0496,-4.0535,-4.0573,-4.0573,-4.1123,-4.172,-4.0835,-4.0535,-4.0535,-4.0516,-4.0496,-4.0496,-4.0496,-4.0496,-4.0496,-4.0496,-4.0496,-4.0496,-4.0496,-4.0496,-4.0496,-4.0496,-4.0496,-4.0496,-4.0496,-4.0496,-4.0496,-4.0489,-4.0489,-4.0433,-4.0233,-3.9963,-3.9786,-3.9786,-3.9621,-3.9502,-3.9502,-3.9259,-3.9101,-3.9101,-3.9101,-3.9101,-3.9101,-3.9101,-3.9101,-3.9101,-3.9101,-3.9101,-3.9101,-3.9101,-3.9101,-3.9101,-3.9101,-3.9101,-3.9101,-3.9101,-3.9101,-3.9101,-3.9101,-3.9101,-4.3008,-4.3476,-4.2949,-3.8066,0.0,0.0,0.0,0.0,0.0,0.0,0.0,0.0,0.0,0.0,-3.0332,-2.8574,-2.8555,0.0,0.0,0.0,0.0,0.0,0.0,0.0,0.0,0.0,0.0,-3.0332,-3.0194,0.0,-3.4837,-3.605,-3.7533,-3.9509,-3.9807,-4.0216,-4.0797,-4.0784,-4.0778,-4.0778,-4.0746,-4.0707,-4.0661,-4.0666,-4.0633,-4.0612,-4.0579,-4.0576,-4.0573,-4.0573,-4.0539,-4.0496,-4.0496,-4.0496,-4.0573,-4.1143,-4.1546,-4.1827,-4.2124,-4.1477,-4.0593,-4.1162,-4.0969,-4.0496,-4.0496,-4.0496,-4.0496,-4.0496,-4.0496,-4.0496,-4.0496,-4.0496,-4.0496,-4.0496,-4.0496,-4.0496,-4.0496,-4.0496,-4.0496,-4.0496,-4.0496,-4.0665,-4.1165,-4.1173,-4.0816,-3.9927,-3.9731,-3.9648,-3.9508,-3.9427,-3.9298,-3.9129,-3.9101,-3.9101,-3.9101,-3.9101,-3.9101,-3.9101,-3.9101,-3.9101,-3.9101,-3.9101,-3.9101,-3.9101,-3.9101,-3.9101,-3.9101,-3.9101,-3.9101,-3.9101,-3.9101,-3.9101,-4.3867,-4.4336,-4.4043,-4.0059,-3.8223,-3.6269,-3.1934,0.0,-3.2773,0.0,0.0,0.0,0.0,0.0,-3.1328,-2.9922,-2.8906,-2.7695,0.0,-2.5703,0.0,0.0,0.0,0.0,0.0,0.0,-2.6797,-2.8535,-2.8672,0.0,0.0,-3.4595,-3.6403,-3.8634,-3.9243,-3.9946,-4.0823,-4.0815,-4.0797,-4.0797,-4.0797,-4.0784,-4.0739,-4.0707,-4.0687,-4.0628,-4.0614,-4.06,-4.0591,-4.0591,-4.0569,-4.0531,-4.0531,-4.0523,-4.0573,-4.1123,-4.1335,-4.1546,-4.3028,-4.22,-4.065,-4.1527,-4.12,-4.0496,-4.0496,-4.0496,-4.0496,-4.0496,-4.0496,-4.0496,-4.0496,-4.0496,-4.0496,-4.0496,-4.0496,-4.0496,-4.0496,-4.0496,-4.0496,-4.0496,-4.0746,-4.1143,-4.1692,-4.2058,-4.1972,-4.1093,-4.0622,-4.0295,-4.0097,-3.9732,-3.9401,-3.9129,-3.9101,-3.9101,-3.9101,-3.9101,-3.9101,-3.9101,-3.9101,-3.9101,-3.9101,-3.9101,-3.9101,-3.9101,-3.9101,-3.9101,-3.9101,-3.9101,-3.9101,-3.9101,-3.9101,-3.9101]},{"header":{"parameterUnit":"m.s-1","parameterCategory":1,"la1":30.6,"la2":29.2853,"lo1":-89.7004,"lo2":-87.6739,"dy":0.0162,"dx":0.0183,"nx":112,"ny":82,"refTime":"2024-05-19T12:00:00:Z","depth":0,"parameterNumber":3,"parameterNumberName":"V-component_of_WINDS"},"data":[0.0,0.0,0.0,0.0,0.0,0.0,0.0,0.0,0.0,0.0,0.0,0.0,0.0,0.0,0.0,0.0,0.0,0.0,0.0,0.0,0.0,0.0,0.0,0.0,0.0,0.0,0.0,0.0,0.0,0.0,0.0,0.0,0.0,0.0,0.0,0.0,0.0,0.0,0.0,0.0,0.0,0.0,0.0,0.0,0.0,0.0,0.0,0.0,0.0,0.0,0.0,0.0,0.0,0.0,0.0,0.0,0.0,0.0,0.0,0.0,0.0,0.0,0.0,0.0,0.0,0.0,0.0,0.0,0.0,0.0,0.0,0.0,0.0,0.0,0.0,0.0,0.0,0.0,0.0,0.0,0.0,0.0,0.0,0.0,0.0,0.0,0.0,0.0,0.0,0.0,0.0,-1.1897,-1.2592,-1.312,-1.341,-1.2845,-1.1992,-1.083,0.0,0.0,0.0,0.0,0.0,0.0,0.0,0.0,0.0,0.0,0.0,0.0,0.0,0.0,0.0,0.0,0.0,0.0,0.0,0.0,0.0,0.0,0.0,0.0,0.0,0.0,0.0,0.0,0.0,0.0,0.0,0.0,0.0,0.0,0.0,0.0,0.0,0.0,0.0,0.0,0.0,0.0,0.0,0.0,0.0,0.0,0.0,0.0,0.0,0.0,0.0,0.0,0.0,0.0,0.0,0.0,0.0,0.0,0.0,0.0,0.0,0.0,0.0,0.0,0.0,0.0,0.0,0.0,0.0,0.0,0.0,0.0,0.0,0.0,0.0,0.0,0.0,0.0,0.0,0.0,0.0,0.0,0.0,0.0,0.0,0.0,0.0,0.0,0.0,0.0,0.0,0.0,0.0,0.0,0.0,0.0,0.0,0.0,0.0,0.0,0.0,0.0,0.0,0.0,-1.124,-1.348,-1.3519,-1.3558,-1.3951,-1.3068,-1.2211,-1.148,0.0,0.0,0.0,0.0,0.0,0.0,0.0,0.0,0.0,0.0,0.0,0.0,0.0,0.0,0.0,0.0,0.0,0.0,0.0,0.0,0.0,0.0,0.0,0.0,0.0,0.0,0.0,0.0,0.0,0.0,0.0,0.0,0.0,0.0,0.0,0.0,0.0,0.0,0.0,0.0,0.0,0.0,0.0,0.0,0.0,0.0,0.0,0.0,0.0,0.0,0.0,0.0,0.0,0.0,0.0,0.0,0.0,0.0,0.0,0.0,0.0,0.0,0.0,0.0,0.0,0.0,0.0,0.0,0.0,0.0,0.0,0.0,0.0,0.0,0.0,0.0,0.0,0.0,0.0,0.0,0.0,0.0,0.0,0.0,0.0,0.0,0.0,0.0,0.0,0.0,0.0,0.0,0.0,0.0,0.0,0.0,0.0,0.0,0.0,0.0,0.0,0.0,0.0,-1.0947,-1.2028,-1.3909,-1.3938,-1.3873,-1.4014,-1.3359,-1.2527,-1.1562,-1.0277,0.0,0.0,0.0,0.0,0.0,0.0,0.0,0.0,0.0,0.0,0.0,0.0,0.0,0.0,0.0,0.0,0.0,0.0,0.0,0.0,0.0,0.0,0.0,0.0,0.0,0.0,0.0,0.0,0.0,0.0,0.0,0.0,0.0,0.0,0.0,0.0,0.0,0.0,0.0,0.0,0.0,0.0,0.0,0.0,0.0,0.0,0.0,0.0,0.0,0.0,0.0,0.0,0.0,0.0,0.0,0.0,0.0,0.0,0.0,0.0,0.0,0.0,0.0,0.0,0.0,0.0,0.0,0.0,0.0,0.0,0.0,0.0,0.0,0.0,0.0,0.0,0.0,0.0,0.0,0.0,0.0,0.0,0.0,0.0,0.0,0.0,0.0,0.0,0.0,0.0,0.0,0.0,0.0,0.0,0.0,0.0,0.0,0.0,0.0,0.0,0.0,0.0,-1.209,-1.3032,-1.4007,-1.4202,-1.4194,-1.4053,-1.3481,-1.2681,-1.1528,-1.0136,0.0,0.0,0.0,0.0,0.0,0.0,0.0,0.0,0.0,0.0,0.0,0.0,0.0,0.0,0.0,0.0,0.0,0.0,0.0,0.0,0.0,0.0,0.0,0.0,0.0,0.0,0.0,0.0,0.0,0.0,0.0,0.0,0.0,0.0,0.0,0.0,0.0,0.0,0.0,0.0,0.0,0.0,0.0,0.0,0.0,0.0,0.0,0.0,0.0,0.0,0.0,0.0,0.0,0.0,0.0,0.0,0.0,0.0,0.0,0.0,0.0,0.0,0.0,0.0,0.0,0.0,0.0,0.0,0.0,0.0,0.0,0.0,0.0,0.0,0.0,0.0,0.0,0.0,0.0,0.0,0.0,0.0,0.0,0.0,0.0,0.0,0.0,0.0,0.0,0.0,0.0,0.0,0.0,0.0,0.0,0.0,0.0,0.0,0.0,0.0,0.0,0.0,-1.2467,-1.4007,-1.4094,-1.4492,-1.458,-1.4143,-1.3262,-1.2411,-1.1621,-1.0155,0.0,0.0,0.0,0.0,0.0,0.0,0.0,0.0,0.0,0.0,0.0,0.0,0.0,0.0,0.0,0.0,0.0,0.0,0.0,0.0,0.0,0.0,0.0,0.0,0.0,0.0,0.0,0.0,0.0,0.0,0.0,0.0,0.0,0.0,0.0,0.0,0.0,0.0,0.0,0.0,0.0,0.0,0.0,0.0,0.0,0.0,0.0,0.0,0.0,0.0,0.0,0.0,0.0,0.0,0.0,0.0,0.0,0.0,0.0,0.0,0.0,0.0,0.0,0.0,0.0,0.0,0.0,0.0,0.0,0.0,0.0,0.0,0.0,0.0,0.0,0.0,0.0,0.0,0.0,0.0,0.0,0.0,0.0,0.0,0.0,0.0,0.0,0.0,0.0,0.0,0.0,0.0,0.0,0.0,0.0,0.0,0.0,0.0,0.0,0.0,0.0,0.0,-1.2236,-1.3555,0.0,-1.4728,-1.4893,-1.4163,-1.3743,-1.2827,-1.126,0.0,0.0,0.0,0.0,0.0,0.0,0.0,0.0,0.0,0.0,0.0,0.0,0.0,0.0,0.0,0.0,0.0,0.0,0.0,0.0,0.0,0.0,0.0,0.0,0.0,0.0,0.0,0.0,0.0,0.0,0.0,0.0,0.0,0.0,0.0,0.0,0.0,0.0,0.0,0.0,0.0,0.0,0.0,0.0,0.0,0.0,0.0,0.0,0.0,0.0,0.0,0.0,0.0,0.0,0.0,0.0,0.0,0.0,0.0,0.0,0.0,0.0,0.0,0.0,0.0,0.0,0.0,0.0,0.0,0.0,0.0,0.0,0.0,0.0,0.0,0.0,0.0,0.0,0.0,0.0,0.0,0.0,0.0,0.0,0.0,0.0,0.0,0.0,0.0,0.0,0.0,0.0,0.0,0.0,0.0,0.0,0.0,0.0,0.0,0.0,0.0,0.0,-1.0742,-1.2412,-1.3652,0.0,-1.4785,-1.4971,-1.4358,-1.3895,-1.2983,-1.1404,0.0,0.0,0.0,0.0,0.0,0.0,0.0,0.0,0.0,0.0,0.0,0.0,0.0,0.0,0.0,0.0,0.0,0.0,0.0,0.0,0.0,0.0,0.0,0.0,0.0,0.0,0.0,0.0,0.0,0.0,0.0,0.0,0.0,0.0,0.0,0.0,0.0,0.0,0.0,0.0,0.0,0.0,0.0,0.0,0.0,0.0,0.0,0.0,0.0,0.0,0.0,0.0,0.0,0.0,0.0,0.0,0.0,0.0,0.0,0.0,0.0,0.0,0.0,0.0,0.0,0.0,0.0,0.0,0.0,0.0,0.0,0.0,0.0,0.0,0.0,0.0,0.0,0.0,0.0,0.0,0.0,0.0,0.0,0.0,0.0,0.0,0.0,0.0,0.0,0.0,0.0,0.0,0.0,0.0,0.0,0.0,0.0,0.0,0.0,0.0,0.0,0.0,-1.0869,-1.3184,-1.4619,-1.4153,-1.4521,-1.4813,-1.4813,-1.3649,-1.2695,0.0,0.0,0.0,0.0,0.0,0.0,0.0,0.0,0.0,0.0,0.0,0.0,0.0,0.0,0.0,0.0,0.0,0.0,0.0,0.0,0.0,0.0,0.0,0.0,0.0,0.0,0.0,0.0,0.0,0.0,0.0,0.0,0.0,0.0,0.0,0.0,0.0,0.0,0.0,0.0,0.0,0.0,0.0,0.0,0.0,0.0,0.0,0.0,0.0,0.0,0.0,0.0,0.0,0.0,0.0,0.0,0.0,0.0,0.0,0.0,0.0,0.0,0.0,0.0,0.0,0.0,0.0,0.0,0.0,0.0,0.0,0.0,0.0,0.0,0.0,0.0,0.0,0.0,0.0,0.0,0.0,0.0,0.0,0.0,0.0,0.0,0.0,0.0,0.0,0.0,0.0,0.0,0.0,0.0,0.0,0.0,0.0,0.0,0.0,0.0,0.0,0.0,0.0,-1.1291,-1.3394,-1.4619,-1.4153,-1.4521,-1.4813,-1.4813,-1.3808,-1.2774,-1.1848,0.0,0.0,0.0,0.0,0.0,0.0,0.0,0.0,0.0,0.0,0.0,0.0,0.0,0.0,0.0,0.0,0.0,0.0,0.0,0.0,0.0,0.0,0.0,0.0,0.0,0.0,0.0,0.0,0.0,0.0,0.0,0.0,0.0,0.0,0.0,0.0,0.0,0.0,0.0,0.0,0.0,0.0,0.0,0.0,0.0,0.0,0.0,0.0,0.0,0.0,0.0,0.0,0.0,0.0,0.0,0.0,0.0,0.0,0.0,0.0,0.0,0.0,0.0,0.0,0.0,0.0,0.0,0.0,0.0,0.0,0.0,0.0,0.0,0.0,0.0,0.0,0.0,0.0,0.0,0.0,0.0,0.0,0.0,0.0,0.0,0.0,0.0,0.0,0.0,0.0,0.0,0.0,0.0,0.0,0.0,0.0,0.0,0.0,0.0,0.0,0.0,0.0,-1.1721,-1.3701,-1.4873,-1.4443,-1.4629,-1.4813,-1.4813,-1.3941,-1.3021,-1.2171,0.0,0.0,0.0,0.0,0.0,0.0,0.0,0.0,0.0,0.0,0.0,0.0,0.0,0.0,0.0,0.0,0.0,0.0,0.0,0.0,0.0,0.0,0.0,0.0,0.0,0.0,0.0,0.0,0.0,0.0,0.0,0.0,0.0,0.0,0.0,0.0,0.0,0.0,0.0,0.0,0.0,0.0,0.0,0.0,0.0,0.0,0.0,0.0,0.0,0.0,0.0,0.0,0.0,0.0,0.0,0.0,0.0,0.0,0.0,0.0,0.0,0.0,0.0,0.0,0.0,0.0,0.0,0.0,0.0,0.0,0.0,0.0,0.0,0.0,0.0,0.0,0.0,0.0,0.0,0.0,0.0,0.0,0.0,0.0,0.0,0.0,0.0,0.0,0.0,0.0,0.0,0.0,0.0,0.0,0.0,0.0,0.0,0.0,0.0,0.0,0.0,0.0,-1.2096,-1.4094,-1.5254,-1.4834,-1.4813,-1.4813,-1.4813,-1.4033,-1.3369,-1.2935,0.0,0.0,0.0,0.0,0.0,0.0,0.0,0.0,0.0,0.0,0.0,0.0,0.0,0.0,0.0,0.0,0.0,0.0,0.0,0.0,0.0,0.0,0.0,0.0,0.0,0.0,0.0,0.0,0.0,0.0,0.0,0.0,0.0,0.0,0.0,0.0,0.0,0.0,0.0,0.0,0.0,0.0,0.0,0.0,0.0,0.0,0.0,0.0,0.0,0.0,0.0,0.0,0.0,0.0,0.0,0.0,0.0,0.0,0.0,0.0,-0.9226,0.0,0.0,0.0,0.0,0.0,0.0,0.0,0.0,0.0,0.0,0.0,0.0,0.0,0.0,0.0,0.0,0.0,0.0,0.0,0.0,0.0,0.0,0.0,0.0,0.0,0.0,0.0,0.0,0.0,0.0,0.0,0.0,0.0,0.0,0.0,0.0,0.0,0.0,0.0,0.0,0.0,-1.2568,-1.4307,-1.5254,-1.4834,-1.4813,-1.4813,-1.4813,-1.4307,-1.3682,-1.2954,-1.1475,0.0,0.0,0.0,0.0,0.0,0.0,0.0,0.0,0.0,0.0,0.0,0.0,0.0,0.0,0.0,0.0,0.0,0.0,0.0,0.0,0.0,0.0,0.0,0.0,0.0,0.0,0.0,0.0,0.0,0.0,0.0,0.0,0.0,0.0,0.0,0.0,0.0,0.0,0.0,0.0,0.0,0.0,0.0,0.0,0.0,0.0,0.0,0.0,0.0,0.0,0.0,0.0,0.0,0.0,0.0,0.0,0.0,0.0,0.0,0.0,-1.0396,0.0,0.0,0.0,0.0,0.0,0.0,0.0,0.0,0.0,0.0,0.0,0.0,0.0,0.0,0.0,0.0,0.0,0.0,0.0,0.0,0.0,0.0,0.0,0.0,0.0,0.0,0.0,0.0,0.0,0.0,0.0,0.0,0.0,0.0,0.0,0.0,0.0,0.0,0.0,0.0,-1.3018,-1.4482,-1.5322,-1.5107,-1.5088,-1.4922,-1.4502,-1.4463,-1.4004,-1.2974,-1.2041,0.0,0.0,0.0,0.0,0.0,0.0,0.0,0.0,0.0,0.0,0.0,0.0,0.0,0.0,0.0,0.0,0.0,0.0,0.0,0.0,0.0,0.0,0.0,0.0,0.0,0.0,0.0,0.0,0.0,0.0,0.0,0.0,0.0,0.0,0.0,0.0,0.0,0.0,0.0,0.0,0.0,0.0,0.0,0.0,0.0,0.0,0.0,0.0,0.0,0.0,0.0,0.0,0.0,-1.3369,-1.3892,-1.4717,-1.479,-1.4909,-1.4939,-1.283,-1.2163,-1.2569,-1.2186,0.0,0.0,0.0,0.0,0.0,0.0,0.0,0.0,0.0,0.0,0.0,0.0,0.0,0.0,0.0,0.0,0.0,0.0,0.0,0.0,0.0,0.0,0.0,0.0,-1.4016,-1.3851,-1.2553,0.0,0.0,0.0,0.0,0.0,0.0,0.0,0.0,0.0,0.0,0.0,-1.3447,-1.46,-1.5332,-1.5371,-1.541,-1.5068,-1.4182,-1.46,-1.4346,-1.3101,-1.2656,-1.2067,0.0,0.0,0.0,0.0,0.0,0.0,0.0,0.0,0.0,0.0,0.0,0.0,0.0,0.0,0.0,0.0,0.0,0.0,0.0,0.0,0.0,0.0,0.0,0.0,0.0,0.0,0.0,0.0,0.0,0.0,0.0,0.0,-0.5808,-0.7248,0.0,0.0,0.0,0.0,0.0,0.0,0.0,0.0,0.0,0.0,0.0,0.0,0.0,-1.2771,-1.4451,-1.4854,-1.516,-1.5294,-1.601,-1.6065,-1.5542,-1.5909,-1.6083,-1.6088,-1.5744,0.0,-1.3996,-1.2707,0.0,0.0,0.0,0.0,0.0,0.0,0.0,0.0,0.0,0.0,0.0,0.0,0.0,0.0,0.0,0.0,0.0,0.0,0.0,0.0,0.0,0.0,-1.457,-1.5049,-1.4922,-1.4736,0.0,-1.3701,-1.2246,-1.0986,-1.0722,0.0,0.0,0.0,0.0,0.0,0.0,0.0,-1.386,-1.4531,-1.501,-1.5371,-1.541,-1.5068,-1.4182,-1.4835,-1.4785,-1.3506,-1.3369,-1.3125,-1.267,-1.1006,0.0,0.0,0.0,0.0,0.0,0.0,0.0,0.0,0.0,0.0,0.0,0.0,0.0,0.0,0.0,0.0,0.0,0.0,0.0,0.0,0.0,0.0,0.0,0.0,0.0,0.0,0.0,0.0,0.0,-0.566,-0.6756,-0.7604,-0.7589,-0.7676,0.0,0.0,0.0,0.0,0.0,0.0,0.0,0.0,0.0,-1.3547,-1.418,-1.491,-1.578,-1.6175,-1.6486,-1.6707,-1.7064,-1.7174,-1.7064,-1.7212,-1.7366,-1.7463,-1.7366,-1.6936,-1.6201,-1.4945,-1.4515,-1.4535,0.0,0.0,0.0,0.0,-1.3546,-1.382,-1.3685,-1.3753,-1.3866,-1.3516,0.0,0.0,0.0,0.0,0.0,0.0,0.0,-1.2998,0.0,0.0,-1.5312,-1.5966,-1.5985,-1.5859,-1.5791,-1.5224,-1.4314,0.0,-1.2529,-1.2158,-1.1472,0.0,0.0,0.0,0.0,-1.3558,-1.4394,-1.4873,-1.5205,-1.5391,-1.541,-1.5068,-1.4182,-1.4894,-1.4873,-1.3584,-1.3704,-1.3646,-1.3252,-1.1819,-1.0616,0.0,0.0,0.0,0.0,0.0,0.0,0.0,0.0,0.0,0.0,0.0,0.0,0.0,0.0,0.0,0.0,0.0,0.0,0.0,0.0,0.0,0.0,0.0,0.0,0.0,0.0,0.0,0.0,-0.6833,-0.7822,-0.827,-0.8633,-0.894,0.0,0.0,0.0,0.0,0.0,0.0,-1.2922,-1.4221,-1.5157,-1.5551,-1.6358,-1.6881,-1.7082,-1.7477,-1.788,-1.8265,-1.8265,-1.843,-1.8695,-1.8695,-1.881,-1.8916,-1.8771,-1.8682,-1.8471,-1.6992,-1.6412,-1.635,-1.5638,-1.543,-1.5537,-1.5459,-1.5488,-1.5605,-1.578,-1.5926,-1.5965,-1.5713,-1.5244,-1.463,-1.3916,0.0,0.0,0.0,0.0,-1.4001,-1.5928,-1.6026,-1.5801,-1.6658,-1.6785,-1.6638,-1.6476,-1.6339,-1.585,0.0,-1.4104,-1.3695,-1.2837,0.0,0.0,0.0,0.0,-1.4299,-1.4873,-1.5127,-1.5332,-1.5557,-1.5478,-1.5107,-1.4338,-1.498,-1.4961,-1.3906,-1.3997,-1.3968,-1.3682,-1.2553,-1.1516,-1.0645,0.0,0.0,0.0,0.0,0.0,0.0,0.0,0.0,0.0,0.0,0.0,0.0,0.0,0.0,0.0,0.0,0.0,0.0,0.0,0.0,0.0,0.0,0.0,0.0,0.0,0.0,0.0,0.0,0.0,-0.9897,-1.084,0.0,0.0,0.0,0.0,-1.238,-1.3165,-1.3985,-1.4925,-1.5739,-1.6379,-1.6807,-1.7605,-1.8394,-1.9146,-1.9567,-1.993,-2.0365,-2.0365,-2.0374,-2.0393,-2.0393,-2.0393,-2.0393,-2.0393,-2.0518,-2.0563,-1.7935,-1.6957,-1.7048,-1.6878,-1.7111,-1.7509,-1.7205,-1.7334,-1.7591,-1.7238,-1.7373,-1.7702,-1.7784,-1.7252,-1.6482,-1.6075,-1.5615,0.0,0.0,-1.5625,-1.5596,-1.6995,-1.6711,-1.6281,-1.7171,-1.7031,-1.6804,-1.7227,-1.6992,-1.6287,0.0,-1.5059,-1.502,-1.4163,0.0,-1.4551,-1.4104,-1.4075,-1.4406,-1.5273,-1.5049,-1.5155,-1.5977,-1.5664,-1.5234,-1.4785,-1.5156,-1.5215,-1.4746,-1.4328,-1.4094,-1.4075,-1.3271,-1.2416,-1.1557,-1.0655,0.0,0.0,0.0,0.0,0.0,0.0,0.0,0.0,0.0,0.0,0.0,0.0,0.0,0.0,0.0,0.0,0.0,0.0,0.0,0.0,0.0,0.0,0.0,0.0,0.0,0.0,0.0,0.0,-1.0136,-1.1304,0.0,-1.2495,-1.3482,-1.4354,-1.4948,-1.5467,-1.6012,-1.6615,-1.7413,-1.8036,-1.843,-1.8951,-1.9381,-1.9664,-1.9586,-1.9595,-1.9732,-1.9732,-1.9879,-2.0095,-2.0095,-2.0283,-2.0521,-2.0521,-2.0563,-2.0583,-1.9626,-1.9197,-1.9107,-1.8636,-1.8395,-1.8259,-1.8139,-1.8177,-1.8323,-1.8494,-1.863,-1.8708,-1.8471,-1.7993,-1.7471,-1.7073,-1.6807,-1.6768,-1.7197,-1.7207,-1.7314,-1.834,-1.8164,-1.7871,-1.8467,-1.8486,-1.834,-1.8213,-1.7828,-1.7344,-1.6602,-1.6153,-1.5644,-1.503,-1.5322,-1.5488,-1.5019,-1.541,-1.5888,-1.619,-1.5879,-1.5752,-1.6056,-1.5674,-1.5244,-1.4814,-1.5176,-1.5107,-1.4387,-1.4192,-1.3987,-1.3714,-1.3184,-1.2598,-1.2002,-1.1428,-1.0283,0.0,0.0,0.0,0.0,0.0,0.0,0.0,0.0,0.0,0.0,0.0,0.0,0.0,0.0,0.0,0.0,0.0,0.0,0.0,0.0,0.0,0.0,0.0,0.0,0.0,0.0,-1.0097,-1.0607,-1.2042,-1.3189,-1.3743,-1.4857,-1.592,-1.6839,-1.7293,-1.7688,-1.8082,-1.8751,-1.9182,-1.9292,-1.9714,-1.9893,-1.9893,-1.9787,-1.9714,-1.9714,-1.9714,-1.9861,-2.0095,-2.0223,-2.0466,-2.0723,-2.0869,-2.0977,-2.1062,-2.1062,-2.0959,-2.0761,-2.0081,-1.963,-1.9343,-1.954,-1.949,-1.942,-1.9631,-1.9754,-1.9648,-1.9173,-1.8841,-1.8574,-1.8154,-1.8027,-1.8086,-1.8359,-1.8437,-1.8574,-1.9141,-1.9072,-1.8926,-1.9219,-1.9287,-1.9209,-1.888,-1.8643,-1.8311,-1.7891,-1.7109,-1.6398,-1.5928,-1.6094,-1.6143,-1.5703,-1.6133,-1.6562,-1.6687,-1.6338,-1.6153,-1.6279,-1.5762,-1.5293,-1.5019,-1.5117,-1.4961,-1.4358,-1.4055,-1.3773,-1.3516,-1.3105,-1.2744,-1.2428,-1.1741,-1.0733,-0.9434,0.0,0.0,0.0,0.0,0.0,0.0,0.0,0.0,0.0,0.0,0.0,0.0,0.0,0.0,0.0,0.0,0.0,0.0,0.0,0.0,0.0,0.0,0.0,-0.9528,-1.0698,-1.1474,-1.1477,-1.3169,-1.4311,-1.4255,-1.5116,-1.6354,-1.797,-1.8493,-1.8878,-1.9244,-1.9664,-1.9701,-1.9329,-1.9714,-1.9893,-1.9893,-2.031,-2.0461,-2.0461,-2.047,-2.0521,-2.053,-2.0915,-2.1099,-2.1126,-2.1485,-2.1802,-2.2097,-2.2087,-2.1942,-2.1721,-2.1067,-2.0848,-2.089,-2.1326,-2.1252,-2.088,-2.0722,-2.0644,-2.0576,-2.0117,-1.998,-1.9902,-1.9473,-1.9346,-1.9346,-1.9336,-1.9326,-1.9326,-1.9326,-1.9326,-1.9326,-1.9326,-1.9326,-1.9326,-1.9307,-1.9307,-1.918,-1.8705,-1.7988,-1.7285,-1.6794,-1.6716,-1.657,-1.6183,-1.6124,0.0,-1.6668,-1.6357,-1.6281,-1.6677,-1.5927,-1.543,-1.543,-1.5049,-1.4823,-1.4766,-1.3984,-1.3516,-1.3486,-1.3096,-1.2905,-1.2905,-1.1592,-1.0723,-1.0322,0.0,0.0,0.0,0.0,0.0,0.0,0.0,0.0,0.0,0.0,0.0,0.0,0.0,0.0,0.0,0.0,0.0,0.0,0.0,0.0,0.0,0.0,-0.9945,-1.0213,-1.1001,-1.1855,-1.2594,-1.4127,-1.516,-1.5342,-1.7058,-1.7941,-1.7409,-1.8739,-1.9223,-1.8416,-1.9331,-1.9838,-1.9719,-1.9829,-1.9893,-1.9893,-1.9994,-2.0049,-2.0058,-2.0383,-2.0521,-2.0479,-2.0631,-2.0833,-2.1099,-2.0924,-2.119,-2.1802,-2.1498,-2.1524,-2.1706,-2.1601,-2.1424,-2.1326,-2.146,-2.1559,-2.1617,-2.1562,-2.1523,-2.1504,-2.1387,-2.1348,-2.1269,-2.0791,-2.0664,-2.0635,-2.0303,-2.0253,-2.0253,-2.0253,-2.0253,-2.0253,-2.0253,-2.0253,-2.0165,-1.9805,-1.9746,-1.9619,-1.9189,-1.8662,-1.8022,-1.7334,-1.7207,-1.7051,-1.6611,-1.6816,0.0,-1.7187,-1.6816,-1.6719,-1.7158,-1.6447,-1.5919,-1.5919,-1.5488,-1.4971,-1.4328,-1.4065,-1.3665,-1.3076,-1.2964,-1.2905,-1.2905,-1.1917,-1.1193,0.0,0.0,0.0,0.0,0.0,0.0,0.0,0.0,0.0,0.0,0.0,0.0,0.0,0.0,0.0,0.0,0.0,0.0,0.0,0.0,0.0,0.0,-1.0083,-1.0811,-1.1299,-1.1808,-1.2515,-1.3447,-1.4434,-1.5298,-1.5951,-1.7071,-1.7637,-1.736,-1.8272,-1.8468,-1.7746,-1.8401,-1.8994,-1.9342,-1.9342,-1.9502,-1.9738,-2.0168,-2.025,-1.9986,-2.07,-2.0891,-2.0769,-2.0952,-2.1053,-2.1099,-2.1053,-2.1257,-2.1668,-2.1431,-2.1476,-2.1713,0.0,0.0,0.0,0.0,-2.1635,-2.1826,-2.1652,-2.1678,-2.1709,-2.1709,-2.1802,-2.1836,-2.1582,-2.1504,-2.1416,-2.0967,-2.084,-2.0801,-2.0654,-2.0605,-2.0605,-2.0605,-2.0605,-2.0537,-2.0244,-2.0185,-2.0059,-1.9629,-1.9346,0.0,-1.8057,-1.7617,-1.7295,-1.7041,-1.7061,-1.7109,-1.7109,-1.6863,-1.6794,-1.708,-1.665,-1.6269,-1.6105,-1.5664,0.0,0.0,0.0,-1.3549,-1.2935,-1.2905,0.0,0.0,0.0,0.0,0.0,0.0,0.0,0.0,-1.0429,-1.0264,0.0,0.0,0.0,0.0,0.0,0.0,0.0,0.0,0.0,0.0,0.0,0.0,0.0,0.0,0.0,0.0,-1.0678,-1.1583,-1.2512,-1.2874,-1.3324,-1.4075,-1.4379,-1.496,-1.6066,-1.5995,-1.632,-1.7285,-1.7304,-1.7249,-1.7122,0.0,0.0,0.0,0.0,-1.8794,-1.9362,-2.0509,-2.0749,-2.0181,-2.1293,-2.1604,-2.1255,-2.1586,-2.1549,-2.1264,-2.1504,-2.1668,-2.1751,-2.1659,-2.165,-2.1696,-2.1785,-2.1785,-2.1828,-2.1634,-2.172,-2.1897,-2.1527,0.0,0.0,-2.1688,-2.1855,-2.2021,-2.1973,-2.1953,-2.1865,-2.1385,-2.1268,-2.1221,-2.086,-2.0723,-2.0683,-2.0683,-2.0644,-2.0605,-2.0605,-2.0605,-2.0488,-2.0059,-1.9951,-1.9631,-1.887,-1.8076,-1.749,-1.7402,-1.7051,-1.6755,-1.6707,-1.6746,-1.6775,-1.6775,0.0,0.0,-1.6202,-1.5732,-1.5283,-1.4842,-1.4023,-1.3408,-1.3037,-1.3052,-1.3052,-1.3052,-1.3052,-1.3052,-1.3052,-1.3052,-1.3052,-1.3003,-1.0975,-1.0684,0.0,0.0,0.0,0.0,0.0,0.0,0.0,0.0,0.0,0.0,0.0,0.0,0.0,0.0,0.0,-1.043,-1.139,-1.2301,-1.29,-1.3557,-1.4087,-1.4379,-1.4718,-1.5007,-1.5239,-1.6133,-1.6232,-1.5191,-1.649,-1.6954,-1.6111,-1.675,-1.7426,-1.8077,-1.8101,-1.83,-1.8676,-2.0062,-2.0718,-2.061,0.0,0.0,-2.2089,-2.2126,-2.2117,-2.2052,-2.1475,-2.1559,-2.2117,-2.1493,-2.1429,-2.1741,-2.2132,-2.2397,-2.2608,-2.2741,-2.28,-2.2834,-2.2746,-2.2761,-2.2804,-2.2804,-2.2814,-2.2789,-2.249,-2.2393,0.0,-2.1875,-2.1758,-2.1738,-2.166,-2.1367,-2.1064,-2.1064,-2.083,-2.0605,-2.0605,-2.0605,-2.0576,-2.0488,-2.0156,-1.9863,-1.9697,-1.8919,-1.8164,-1.749,-1.7314,-1.7129,-1.6746,-1.7041,-1.7256,-1.7256,-1.7256,-1.708,-1.6609,-1.6191,-1.5635,-1.4862,-1.4297,-1.3948,-1.387,-1.386,-1.386,-1.386,-1.386,-1.386,-1.386,-1.386,-1.386,-1.3851,-1.309,-1.2891,0.0,0.0,0.0,0.0,0.0,0.0,0.0,0.0,0.0,0.0,0.0,-0.8468,0.0,0.0,-1.0707,-1.1407,-1.2169,-1.2883,-1.3436,-1.4021,-1.4508,-1.4726,-1.4903,-1.5041,-1.5177,-1.548,-1.5462,-1.4794,-1.5446,-1.577,-1.542,-1.5957,-1.6699,-1.7606,-1.7826,-1.8104,-1.8554,-1.983,-2.0289,-1.9984,-2.1262,-2.1707,-2.1323,-2.1323,-2.1173,-2.0985,-2.0555,-2.094,-2.1775,-2.1735,-2.1563,-2.1445,-2.2028,-2.2318,-2.2485,-2.2662,-2.274,-2.274,-2.274,-2.2838,-2.2969,-2.2969,-2.3013,-2.3052,-2.2847,-2.2779,-2.2744,-2.2314,-2.2197,-2.2148,-2.1943,-2.1728,-2.1504,-2.1249,-2.1064,-2.084,-2.0654,-2.0605,-2.0605,-2.0605,-2.0429,-2.0166,-1.9951,-1.9524,-1.8948,-1.8135,-1.7832,-1.7539,-1.7119,-1.7061,-1.7139,-1.7363,-1.7383,-1.7295,-1.708,-1.6476,-1.5723,-1.4872,-1.458,-1.4328,-1.4114,-1.4104,-1.4104,-1.4104,-1.4104,-1.4104,-1.4104,-1.4104,-1.4104,-1.4104,-1.4141,-1.4023,0.0,0.0,0.0,0.0,0.0,0.0,0.0,0.0,-0.7572,-0.8161,-0.8703,-0.9376,-1.0288,-1.0954,-1.157,-1.2276,-1.2826,-1.3349,-1.3849,-1.4287,-1.4629,-1.4907,-1.4989,-1.5072,-1.5297,-1.4883,-1.4683,-1.4908,-1.471,-1.4756,-1.5156,-1.5351,-1.604,-1.7263,-1.7522,-1.7931,-1.8396,-1.9542,-1.9773,-1.9228,-2.0364,-2.0726,-2.0448,-2.0448,-2.0247,-1.9937,-1.9866,-2.0281,-2.1027,-2.1579,-2.1392,-2.0874,-2.1391,-2.1617,-2.1689,-2.2204,-2.2432,-2.2485,-2.2485,-2.2662,-2.2838,-2.2838,-2.2969,-2.3091,-2.3091,-2.3091,-2.3023,-2.2734,-2.2637,-2.2559,-2.2217,-2.207,-2.1914,-2.1522,-2.1317,-2.1093,-2.0771,-2.0664,-2.0605,-2.0605,-2.0605,-2.0488,-2.0098,-2.0039,-1.9746,-1.8861,-1.8373,-1.7978,-1.7559,-1.7129,-1.6963,-1.7227,-1.7367,-1.7383,-1.7383,-1.6682,-1.5889,-1.5107,-1.4979,-1.4746,-1.4367,-1.428,-1.427,-1.4348,-1.4358,-1.4358,-1.4358,-1.4358,-1.4358,-1.4358,-1.4746,-1.4678,-0.3416,-0.4201,-0.5269,-0.6262,-0.6616,-0.7157,0.0,0.0,-0.8728,-0.9506,-1.0113,-1.0605,-1.093,-1.1655,-1.2282,-1.2608,-1.3091,-1.3571,-1.3868,-1.4173,-1.4425,-1.4709,-1.4912,-1.5022,-1.503,-1.4995,-1.4823,-1.4589,-1.4783,-1.5157,-1.5705,-1.5718,-1.6201,-1.7177,-1.7238,-1.7407,-1.7686,-1.8762,-1.9295,-1.9228,-2.0364,-2.0861,-2.0821,-2.0821,-2.0805,-2.075,-2.0374,-2.0114,-1.9877,-1.9982,-1.9918,-1.9878,-1.9849,-1.9898,-2.009,-2.1797,-2.2574,-2.2759,-2.2759,-2.2882,-2.3057,-2.3057,-2.3091,-2.3091,-2.3091,-2.3091,-2.3081,-2.3042,-2.3023,-2.3013,-2.2974,-2.2682,-2.2432,-2.2383,-2.1746,-2.1181,-2.1132,-2.084,-2.0605,-2.0605,-2.0605,-2.0586,-2.0537,-2.0537,-2.0243,-1.9346,-1.8848,-1.8383,-1.7988,-1.7568,-1.7178,-1.6804,-1.7148,-1.7383,-1.7383,-1.6934,-1.6445,-1.5977,-1.5557,-1.5322,-1.5273,-1.4912,-1.4893,-1.5264,-1.5235,-1.5235,-1.5235,-1.5235,-1.5235,-1.5273,-1.5322,-1.5117,-0.4425,-0.5227,0.0,0.0,-0.8039,-0.8612,-0.9533,-0.9805,-0.9985,-1.0497,-1.1014,-1.1459,-1.1763,-1.2343,-1.2874,0.0,-1.3495,-1.3833,-1.4099,-1.4378,-1.4564,-1.4675,-1.4863,-1.495,-1.4759,-1.4777,-1.4769,-1.479,-1.5204,-1.5645,-1.6066,-1.6413,-1.6767,-1.7192,-1.7367,-1.7514,-1.7582,-1.787,-1.813,-1.8251,-1.8588,-1.8854,-1.8975,-1.8975,-1.8975,-1.902,-1.9442,-1.9205,-1.8564,-1.9614,-1.9636,-1.9116,-1.9507,-1.9527,-1.9492,-2.0377,-2.0773,-2.0872,-2.0872,-2.0908,-2.1087,-2.1676,-2.1952,-2.2173,-2.274,-2.3013,-2.3091,-2.3091,-2.3091,-2.3091,-2.3091,-2.2964,-2.2769,-2.2568,-2.2051,-2.1543,-2.1249,-2.0879,-2.0605,-2.0605,-2.0605,-2.0605,-2.0605,-2.0605,-2.0478,-2.0126,-1.9658,-1.9104,-1.8432,-1.8008,-1.7588,-1.7158,-1.749,-1.7646,-1.7402,-1.7217,-1.6924,-1.6484,-1.6035,-1.5821,-1.5821,-1.5175,-1.4873,-1.5039,-1.4767,-1.464,-1.464,-1.464,-1.464,-1.464,-1.464,-1.4543,-0.4958,0.0,0.0,-0.8196,-0.9225,-1.0033,-1.037,-1.0743,-1.1129,-1.1389,-1.1811,-1.2198,-1.2385,-1.2868,-1.3252,-1.3483,-1.3797,-1.4081,-1.4268,-1.4496,-1.4592,-1.4592,-1.4744,-1.4743,-1.4605,-1.4715,-1.4929,-1.5197,-1.5671,-1.6119,-1.6543,-1.6971,-1.7239,-1.732,-1.7475,-1.7542,-1.7514,-1.7306,-1.7266,-1.7335,-1.7259,-1.7313,-1.7468,-1.7549,-1.7582,-1.7635,-1.8401,-1.8304,-1.772,-1.9023,-1.908,-1.8352,-1.8833,-1.8845,-1.8677,-1.8613,-1.8936,-1.9405,-1.9405,-1.9451,-1.9625,-2.0359,-2.0674,-2.0935,-2.1686,-2.2192,-2.2501,-2.2501,-2.2775,-2.3013,-2.3013,-2.3057,-2.3023,-2.2711,-2.2363,-2.1973,-2.1609,-2.1143,-2.0752,-2.0752,-2.0693,-2.0605,-2.0605,-2.0605,-2.0605,-2.0605,-2.0303,-1.9824,-1.9046,-1.8383,-1.7852,-1.7432,-1.7656,-1.7764,-1.7568,-1.7559,-1.7373,-1.6911,-1.6494,-1.6281,-1.6281,-1.542,-1.5019,-1.5165,-1.4707,-1.4465,-1.4465,-1.4465,-1.4465,-1.4465,-1.4465,-1.4397,0.0,0.0,-0.8033,-0.8333,-0.9741,-1.1208,-1.17,-1.1832,-1.1922,-1.2222,-1.2493,-1.2681,-1.2693,-1.3133,-1.3507,-1.3513,-1.3948,-1.4286,-1.4298,-1.4298,-1.4298,-1.4298,-1.434,-1.4374,0.0,-1.5061,-1.5498,-1.5785,-1.6086,-1.6563,-1.7146,-1.7192,-1.7333,-1.7562,-1.7582,-1.7501,-1.7213,-1.7206,-1.7058,-1.6734,-1.7065,-1.7206,-1.7226,-1.7507,-1.7582,-1.7582,-1.7635,-1.7635,-1.7582,-1.7674,-1.7674,-1.7588,-1.7351,-1.7282,-1.7201,-1.6621,-1.7574,-1.9131,-1.9131,-1.9268,-1.9497,-1.9542,-1.9542,-1.9534,-1.9588,-2.0268,-2.1042,-2.1042,-2.1926,-2.2794,-2.2794,-2.2969,-2.3091,-2.3081,-2.275,-2.249,-2.248,-2.1765,-2.1171,-2.1171,-2.0859,-2.0605,-2.0605,-2.0605,-2.0605,-2.0605,-2.0595,-2.0381,-1.9932,-1.8779,-1.7852,-1.7432,-1.7393,-1.7559,-1.7959,-1.7988,-1.7812,-1.7393,-1.6953,-1.6677,-1.6677,-1.5829,-1.5596,-1.6046,-1.5596,-1.5371,-1.5371,-1.5371,-1.5371,-1.5371,-1.5371,-1.5156,0.0,0.0,-0.8422,-0.8774,-1.0258,-1.1706,-1.206,-1.2318,-1.2469,-1.2554,-1.2506,-1.2391,-1.2216,-1.262,-1.2976,-1.2976,-1.3574,-1.4099,-1.4268,-1.4147,-1.4099,-1.428,-1.429,0.0,0.0,0.0,0.0,-1.5505,-1.6172,-1.6647,-1.684,-1.7228,-1.7534,-1.7582,-1.7582,-1.7494,-1.7206,-1.7005,-1.6807,-1.6707,-1.7058,-1.73,-1.7494,-1.7542,-1.7582,-1.7582,-1.7582,-1.7582,-1.7582,-1.7582,-1.7582,-1.7569,-1.7475,-1.7373,-1.7179,-1.6978,-1.7152,-1.7446,-1.7032,-1.6976,-1.7163,-1.7816,-1.8141,-1.8411,-1.9047,-1.9588,-1.9988,-1.9988,-2.0773,-2.1641,-2.1765,-2.2236,-2.2696,-2.3047,-2.2693,-2.2349,-2.2467,-2.207,-2.1582,-2.1249,-2.1073,-2.0918,-2.0654,-2.0605,-2.0605,-2.0605,-2.0312,-2.0078,-1.9932,-1.9007,-1.8334,-1.8198,-1.7969,-1.7852,-1.7998,-1.8008,-1.7949,-1.7812,-1.7402,-1.7168,-1.7168,-1.6318,-1.5781,-1.5635,-1.5215,-1.4853,-1.4533,-1.4533,-1.4533,-1.4533,-1.4533,-1.4465,-0.5377,-0.6896,-0.851,-0.9088,-1.0471,-1.1828,-1.2332,-1.2584,-1.2681,-1.2584,-1.2355,-1.2079,-1.1916,-1.2198,-1.2518,-1.2807,-1.329,-1.3779,-1.4238,-1.4075,-1.4002,-1.4262,-1.4296,-1.4502,0.0,0.0,0.0,-1.5671,-1.6326,-1.6754,-1.6854,-1.7321,-1.7535,-1.7481,-1.7528,-1.7393,-1.6891,-1.6747,-1.6707,-1.6707,-1.6901,-1.7194,-1.7582,-1.7582,-1.7582,-1.7582,-1.7582,-1.7582,-1.7582,-1.7582,-1.7582,-1.7582,-1.7582,-1.7468,-1.734,-1.7239,-1.7079,-1.678,-1.6192,-1.5985,-1.6068,-1.6569,-1.6857,-1.7131,-1.7762,-1.8265,-1.8726,-1.8726,-1.9497,-2.0449,-2.0944,-2.1454,-2.2059,-2.2696,-2.2548,-2.2313,-2.2433,-2.2158,-2.1813,-2.1583,-2.1324,-2.1023,-2.0859,-2.0713,-2.0605,-2.0605,-2.0322,-2.0088,-1.9932,-1.9397,-1.8939,-1.8637,-1.8364,-1.8174,-1.8018,-1.8008,-1.8008,-1.8008,-1.7764,-1.7607,-1.7607,-1.6946,-1.6437,-1.6123,-1.5703,-1.5342,-1.503,-1.4874,-1.4824,-1.4814,-1.463,-1.465,-0.5642,-0.6885,-0.8394,-0.9301,-1.0443,-1.158,-1.2491,-1.265,-1.2566,-1.2349,-1.1978,-1.1734,0.0,0.0,-1.2056,-1.2829,-1.3053,-1.3417,-1.4189,-1.4075,-1.4002,0.0,0.0,0.0,0.0,0.0,0.0,-1.6175,0.0,-1.679,-1.7134,-1.7408,-1.7435,-1.7206,-1.7454,-1.7128,-1.6328,-1.6547,-1.67,-1.6727,-1.6727,-1.7027,-1.7582,-1.7582,-1.7582,-1.7582,-1.7582,-1.7582,-1.7582,-1.7582,-1.7582,-1.7582,-1.7582,-1.7582,-1.7549,-1.7326,-1.7226,-1.7146,-1.6569,-1.6348,-1.6226,-1.5925,-1.5784,-1.5784,-1.5784,-1.6487,-1.7232,-1.7232,-1.8095,-1.9222,-2.0187,-2.0683,-2.1141,-2.2113,-2.2299,-2.2299,-2.2397,-2.2095,-2.1897,-2.2145,-2.1483,-2.0988,-2.116,-2.0889,-2.0596,-2.0605,-2.0605,-2.0458,-2.0,-1.9922,-1.9563,-1.8754,-1.8646,-1.8461,-1.8076,-1.8047,-1.8037,-1.8008,-1.8008,-1.8008,-1.8008,-1.7627,-1.7402,-1.7383,-1.6973,-1.6726,-1.6697,-1.6339,-1.6124,-1.6114,-1.5674,-1.5703,-0.6296,-0.7904,-0.951,-0.9724,-1.1096,-1.24,-1.2662,-1.2078,-1.1619,-1.1909,-1.0623,-0.9522,0.0,0.0,0.0,-1.1261,-1.2508,0.0,-1.4214,-1.4075,0.0,0.0,0.0,-1.4521,-1.507,-1.5221,0.0,0.0,-1.6066,-1.6335,-1.6781,-1.6911,-1.7021,-1.7206,-1.7007,-1.672,-1.6279,-1.6395,-1.6656,-1.7085,-1.7085,-1.728,-1.7582,-1.7582,-1.7582,-1.7582,-1.7582,-1.7582,-1.7582,-1.7582,-1.7582,-1.7582,-1.7582,-1.7582,-1.7575,-1.7502,-1.7521,-1.7474,-1.7105,-1.669,-1.6226,-1.5925,-1.5784,-1.5784,-1.5784,-1.5967,-1.6157,-1.6157,-1.6943,-1.787,-1.8326,-1.8918,-1.9695,-2.1051,-2.1186,-2.1329,-2.2211,-2.2312,-2.2195,-2.1935,-2.1503,-2.1088,-2.0976,-2.0912,-2.0759,-2.0615,-2.0605,-2.0566,-2.0449,-2.0117,-1.9796,-1.9572,-1.9307,-1.8945,-1.8481,-1.8442,-1.8315,-1.8027,-1.8008,-1.8008,-1.8008,-1.791,-1.7705,-1.7425,-1.7275,-1.7061,-1.6697,-1.659,-1.6562,-1.6531,-1.6414,-1.6424,-0.6632,-0.7733,-0.8811,-0.9288,-1.0469,-1.1401,-1.1255,-1.1078,-1.0783,-1.037,-0.9181,0.0,0.0,0.0,0.0,0.0,0.0,0.0,-1.4032,-1.3996,-1.4051,0.0,-1.4479,0.0,-1.5239,-1.5312,-1.5449,0.0,-1.5802,-1.6024,-1.6343,-1.6458,-1.6546,-1.6616,-1.6803,-1.6871,-1.671,-1.6526,-1.6744,-1.7199,-1.7199,-1.7353,-1.7582,-1.7582,-1.7582,-1.7582,-1.7582,-1.7582,-1.7582,-1.7582,-1.7582,-1.7582,-1.7582,-1.7582,-1.7582,-1.7582,-1.7582,-1.7542,-1.73,-1.6985,-1.6636,-1.6159,-1.6025,-1.5999,-1.5824,-1.5784,-1.5784,-1.5784,-1.6204,-1.677,-1.7365,-1.7831,-1.8465,-1.9733,-2.0286,-2.0656,-2.1338,-2.1802,-2.201,-2.1695,-2.1646,-2.1473,-2.0993,-2.0959,-2.0924,-2.0635,-2.0605,-2.0605,-2.0605,-2.0352,-2.0127,-1.9932,-1.9707,-1.9385,-1.8919,-1.8715,-1.85,-1.8266,-1.8003,-1.7896,-1.8008,-1.794,-1.7789,-1.7666,-1.7656,-1.7539,-1.7262,-1.7077,-1.7021,-1.7012,-1.6794,-1.6804,-0.6857,-0.7136,-0.7578,-0.8542,-0.9371,-0.98,-0.9378,-0.9779,-0.9873,-0.8437,0.0,-0.7426,-0.7526,0.0,-0.9564,-1.0374,0.0,-1.2994,-1.3839,-1.396,-1.4147,-1.4654,-1.4745,-1.4965,-1.5474,-1.5308,-1.5257,-1.5498,-1.5639,-1.5771,-1.5853,-1.6079,-1.608,-1.5872,-1.664,-1.7105,-1.7139,-1.6874,-1.6914,-1.7259,-1.7259,-1.7387,-1.7582,-1.7582,-1.7582,-1.7582,-1.7582,-1.7582,-1.7582,-1.7582,-1.7582,-1.7582,-1.7582,-1.7582,-1.7582,-1.7582,-1.7582,-1.7549,-1.7347,-1.7259,-1.7159,-1.6569,-1.6355,-1.6274,-1.5965,-1.5858,-1.5784,-1.5784,-1.5784,-1.6015,-1.6857,-1.7091,-1.7365,-1.838,-1.9293,-1.9931,-2.0068,-2.0853,-2.1444,-2.1273,-2.1738,-2.1868,-2.1027,-2.1036,-2.0983,-2.0566,-2.0401,-2.0362,-2.0489,-2.0566,-2.0458,-2.0039,-2.0,-1.9834,-1.9404,-1.8975,-1.8666,-1.8607,-1.8016,-1.7784,-1.794,-1.7784,-1.7784,-1.7974,-1.7974,-1.8008,-1.8008,-1.7646,-1.7471,-1.7461,-1.7048,-1.71,-0.7221,-0.7987,-0.8674,-0.8783,-0.9371,-0.98,-0.9378,-0.8622,0.0,0.0,0.0,-0.5529,-0.5969,-0.719,0.0,-0.9451,0.0,0.0,0.0,0.0,-1.4352,0.0,0.0,0.0,0.0,0.0,0.0,0.0,0.0,-1.5121,-1.5531,-1.5588,-1.5677,-1.5817,-1.6239,-1.654,-1.678,-1.6974,-1.7273,-1.7508,-1.7508,-1.7528,-1.7582,-1.7582,-1.7582,-1.7582,-1.7582,0.0,-1.7582,-1.7582,-1.7582,-1.7582,-1.7582,-1.7582,-1.7582,-1.7582,-1.7582,-1.7575,-1.7522,-1.7508,-1.7408,-1.682,-1.6466,-1.6308,-1.6213,-1.6025,-1.5784,-1.5784,-1.5784,-1.5825,-1.6015,-1.6062,-1.6298,-1.7326,-1.7692,-1.8056,-1.888,-1.984,-2.0512,-2.0487,-2.1212,-2.1593,-2.0927,-2.087,-2.069,-2.0095,-1.9411,-1.9204,-1.9932,-2.0372,-2.0576,-2.0498,-2.0488,-2.0273,-1.9844,-1.9414,-1.9023,-1.8627,-1.8016,-1.7706,-1.774,-1.7706,-1.7706,-1.774,-1.794,-1.8008,-1.8008,-1.7939,-1.79,-1.79,-1.7822,-1.7832,-0.7361,-0.7742,-0.8053,-0.8149,-0.8625,-0.8791,-0.771,0.0,0.0,0.0,0.0,-0.4772,-0.5027,0.0,0.0,0.0,0.0,0.0,0.0,0.0,0.0,0.0,0.0,0.0,0.0,0.0,0.0,0.0,0.0,-1.4818,-1.5089,-1.5237,-1.5474,-1.586,-1.629,-1.664,-1.6934,-1.728,-1.7442,-1.7582,-1.7582,-1.7582,-1.7582,-1.7582,-1.7582,-1.7582,-1.7582,-1.7582,-1.7582,-1.7582,-1.7582,-1.7582,-1.7582,-1.7582,-1.7582,-1.7582,-1.7582,-1.7582,-1.7582,-1.7582,-1.7508,-1.7074,-1.674,-1.644,-1.6132,-1.5945,-1.5784,-1.5784,-1.5784,-1.5784,-1.5784,-1.5784,-1.592,-1.6393,-1.6904,-1.7606,-1.8557,-1.9201,-1.9521,-1.9521,-1.9977,-2.0143,-1.9514,-1.946,-1.9492,-1.9252,-1.8886,-1.8917,-1.9784,-2.0098,-2.0294,-2.0411,-2.045,-2.0411,-2.0273,-1.9594,-1.9054,-1.8814,-1.7932,-1.7476,-1.7588,-1.7588,-1.7613,-1.7706,-1.7896,-1.8008,-1.8008,-1.8008,-1.794,-1.7862,-1.794,-1.794,-0.7432,-0.7397,-0.7243,-0.7499,-0.7763,-0.7627,-0.6117,-0.6251,0.0,0.0,-0.4491,-0.4491,-0.4491,0.0,0.0,0.0,0.0,0.0,0.0,0.0,0.0,0.0,0.0,0.0,0.0,0.0,0.0,0.0,0.0,-1.463,-1.4679,-1.4914,-1.5268,-1.582,-1.6322,-1.677,-1.7105,-1.7402,-1.7582,-1.7582,-1.7582,-1.7582,-1.7582,-1.7582,-1.7582,-1.7582,-1.7582,-1.7582,-1.7582,-1.7582,-1.7582,-1.7582,-1.7582,-1.7582,-1.7582,-1.7582,-1.7582,-1.7582,-1.7582,-1.7542,-1.7494,-1.7199,-1.6894,-1.6607,-1.6079,-1.5879,-1.5784,-1.5784,-1.5784,-1.5784,-1.5784,-1.5784,-1.5784,-1.5784,-1.6393,-1.7185,-1.801,-1.8334,-1.8473,-1.8473,-1.878,-1.8822,-1.812,-1.8164,-1.8253,-1.8181,-1.8189,-1.8519,-1.9371,-1.9499,-1.9657,-2.0108,-2.0186,-2.0264,-2.045,-1.961,-1.9027,-1.8931,-1.793,-1.7373,-1.7436,-1.7426,-1.7495,-1.7647,-1.7828,-1.7974,-1.8008,-1.7974,-1.7862,-1.7706,-1.7862,-1.7862,-0.7304,-0.7472,-0.7529,-0.7421,-0.72,-0.6812,-0.5973,0.0,0.0,0.0,-0.4491,-0.4491,-0.4491,-0.5195,0.0,0.0,0.0,0.0,0.0,0.0,0.0,0.0,0.0,0.0,0.0,0.0,0.0,0.0,0.0,-1.443,-1.4677,-1.4706,-1.4987,-1.5532,-1.6075,-1.6483,-1.6747,-1.7301,-1.7582,-1.7582,-1.7582,-1.7582,-1.7582,-1.7582,-1.7582,-1.7582,-1.7582,-1.7582,0.0,-1.7582,-1.7582,-1.7582,-1.7582,-1.7582,-1.7582,-1.7582,-1.7582,-1.7582,-1.7582,-1.746,-1.7192,-1.684,-1.6727,-1.6647,-1.6326,-1.6046,-1.5784,-1.5784,-1.5784,-1.5784,-1.5784,-1.5784,-1.5784,-1.5784,-1.5872,-1.5967,-1.6062,-1.681,-1.7419,-1.7419,-1.8195,-1.8603,-1.7842,-1.7759,-1.7571,-1.6958,-1.6862,-1.718,-1.8078,-1.8158,-1.8567,-1.9557,-1.9833,-1.9942,-1.9981,-1.9534,-1.9108,-1.8747,-1.8095,-1.7577,-1.7254,-1.7235,-1.7314,-1.7495,-1.7657,-1.7818,-1.8008,-1.7818,-1.7706,-1.7706,-1.7706,-1.7706,-0.7078,-0.7275,-0.7333,-0.7363,-0.701,-0.6505,-0.5932,0.0,-0.5077,-0.4597,-0.4491,-0.4491,-0.4491,-0.4758,-0.5351,-0.6506,-0.7095,-0.8059,0.0,0.0,0.0,0.0,0.0,0.0,0.0,0.0,0.0,0.0,0.0,-1.46,-1.4698,-1.4684,-1.4783,-1.5022,-1.5871,-1.6369,-1.6463,-1.7243,-1.7582,-1.7582,-1.7582,-1.7582,-1.7582,-1.7582,-1.7582,-1.7582,-1.7582,-1.7582,0.0,-1.7582,-1.7582,-1.7582,-1.7582,-1.7582,-1.7582,-1.7582,-1.7582,-1.7582,-1.7582,-1.744,-1.7152,-1.68,-1.6587,-1.6393,-1.6092,-1.5925,-1.5784,-1.5784,-1.5784,-1.5784,-1.5784,-1.5784,-1.5784,-1.5784,-1.5784,-1.5784,-1.5784,-1.6109,-1.6393,-1.6393,-1.6709,-1.6782,-1.6195,-1.6087,-1.6213,-1.6637,-1.6698,-1.7188,-1.8607,-1.8767,-1.8935,-1.939,-1.9597,-1.9754,-1.9902,-1.9409,-1.9051,-1.8882,-1.8072,-1.7538,-1.7407,-1.7376,-1.7426,-1.7505,-1.7613,-1.775,-1.7818,-1.7657,-1.752,-1.7407,-1.752,-1.7588,-0.682,-0.6967,-0.7037,-0.7146,-0.6863,-0.6371,0.0,0.0,-0.4972,-0.4583,-0.4491,-0.4491,-0.4491,-0.4491,-0.4805,-0.5757,-0.5951,-0.663,-0.8407,0.0,0.0,0.0,0.0,0.0,0.0,0.0,0.0,0.0,0.0,-1.4799,-1.4721,-1.4802,-1.4795,-1.4812,-1.5612,-1.6207,-1.6392,-1.7133,-1.7536,-1.7582,-1.7582,-1.7582,-1.7582,-1.7582,-1.7582,-1.7582,-1.7582,-1.7582,0.0,-1.7582,-1.7582,-1.7582,-1.7582,-1.7582,-1.7582,-1.7582,-1.7582,-1.7582,-1.7582,-1.7335,-1.7032,-1.6774,-1.6446,-1.6106,-1.5892,-1.5784,-1.5784,-1.5784,-1.5784,-1.5784,-1.5784,-1.5784,-1.5784,-1.5784,-1.5784,-1.5784,-1.5784,-1.5784,-1.5784,-1.5784,-1.5784,-1.5645,-1.5109,-1.5008,-1.5279,-1.619,-1.6535,-1.7229,-1.8727,-1.9134,-1.9301,-1.9301,-1.9429,-1.9548,-1.9706,-1.9318,-1.9056,-1.8935,-1.8248,-1.7752,-1.7504,-1.7521,-1.748,-1.7426,-1.751,-1.7579,-1.7647,-1.7486,-1.7348,-1.7201,-1.7426,-1.7539,-0.6461,-0.6705,-0.6705,-0.6709,-0.6586,-0.6317,0.0,-0.5243,-0.4972,-0.4583,-0.4491,-0.4491,-0.4491,-0.4491,-0.4542,-0.4699,-0.5437,-0.641,-0.7626,0.0,0.0,0.0,0.0,0.0,0.0,0.0,0.0,0.0,-1.5107,0.0,-1.4733,-1.4962,-1.5075,-1.5097,-1.5351,-1.5884,-1.6684,-1.7029,-1.7331,-1.7582,-1.7582,-1.7582,-1.7582,-1.7582,-1.7582,-1.7582,-1.7582,-1.7582,0.0,-1.7582,-1.7582,-1.7582,-1.7582,-1.7582,-1.7582,-1.7582,-1.7582,-1.7582,-1.7582,-1.7201,-1.6707,-1.6707,-1.6313,-1.5784,-1.5784,-1.5784,-1.5784,-1.5784,-1.5784,-1.5784,-1.5784,-1.5784,-1.5784,-1.5784,-1.5784,-1.5784,-1.5784,-1.5784,-1.5784,-1.5784,-1.5784,-1.5645,-1.5109,-1.5008,-1.5109,-1.5371,-1.6165,-1.7025,-1.7917,-1.8776,-1.9301,-1.9301,-1.9301,-1.9301,-1.9301,-1.9292,-1.9127,-1.8733,-1.8705,-1.8339,-1.7523,-1.7495,-1.7409,-1.721,-1.7201,-1.7314,-1.7505,-1.7314,-1.7201,-1.7201,-1.7426,-1.7676,-0.5702,-0.6013,-0.6217,-0.6112,-0.5898,-0.5658,-0.5281,-0.5009,-0.4758,-0.4542,-0.4491,-0.4491,-0.4491,-0.4491,-0.4641,-0.5105,-0.5414,0.0,0.0,0.0,0.0,0.0,0.0,0.0,0.0,0.0,0.0,0.0,-1.4311,-1.4177,-1.4099,-1.4742,-1.5036,-1.4819,-1.5448,-1.5983,-1.6426,-1.6924,-1.7331,-1.7582,-1.7582,-1.7582,-1.7582,-1.7582,-1.7582,-1.7582,-1.7582,-1.7582,-1.7582,-1.7582,-1.7582,-1.7582,-1.7582,-1.7582,-1.7582,-1.7582,-1.7582,-1.7555,-1.7407,-1.7034,-1.6673,-1.6473,-1.6146,-1.5784,-1.5784,-1.5784,-1.5784,-1.5784,-1.5784,-1.5784,-1.5784,-1.5784,-1.5784,-1.5784,-1.5784,-1.5784,-1.5784,-1.5784,-1.5784,-1.5784,-1.5784,-1.5645,-1.5109,-1.5008,-1.5109,-1.5371,-1.5636,-1.6124,-1.6984,-1.7876,-1.8407,-1.8407,-1.8935,-1.9301,-1.9301,-1.9301,-1.9246,-1.9127,-1.8861,-1.8595,-1.8339,-1.7916,-1.7664,-1.7605,-1.735,-1.7235,-1.7279,-1.7107,-1.7072,-1.7201,-1.7426,-1.7598,0.0,-0.5393,-0.5577,-0.5552,-0.5426,-0.5225,-0.4992,-0.4823,-0.4675,-0.4522,-0.4491,-0.4491,-0.4491,-0.4491,-0.4614,-0.4993,-0.5194,0.0,0.0,0.0,0.0,0.0,0.0,0.0,0.0,0.0,0.0,0.0,-1.364,-1.3249,-1.3114,-1.4173,-1.4659,-1.4348,-1.5273,-1.5912,-1.6325,-1.666,-1.7067,-1.743,-1.743,-1.7483,-1.7582,-1.7582,-1.7582,-1.7582,-1.7582,-1.7582,0.0,-1.7582,-1.7582,-1.7582,-1.7582,-1.7582,-1.7582,-1.7582,-1.7515,-1.7447,-1.7266,-1.6931,-1.6513,-1.6333,-1.6072,-1.5784,-1.5784,-1.5784,-1.5784,-1.5784,-1.5784,-1.5784,-1.5784,-1.5784,-1.5784,-1.5784,-1.5784,-1.5784,-1.5784,-1.5784,-1.5784,-1.5784,-1.5784,-1.5645,-1.5109,-1.5008,-1.5109,-1.5371,-1.5394,-1.5718,-1.6576,-1.718,-1.7513,-1.7513,-1.8287,-1.8816,-1.8816,-1.9094,-1.9301,-1.9301,-1.9072,-1.8871,-1.8715,-1.8202,-1.785,-1.7693,-1.7276,-1.7107,-1.7107,-1.6968,-1.7003,-1.7201,-1.7314,-1.7451,0.0,0.0,0.0,0.0,-0.5029,-0.499,-0.4739,-0.4674,0.0,-0.4518,-0.4491,-0.4498,-0.4518,-0.4511,-0.4525,-0.4576,-0.4914,0.0,0.0,0.0,0.0,0.0,0.0,0.0,0.0,0.0,0.0,-1.3948,-1.2911,-1.217,-1.1931,-1.3291,-1.3955,-1.372,-1.4728,-1.5591,-1.6271,-1.6324,-1.659,-1.7179,-1.7179,-1.7331,-1.7582,-1.7582,-1.7582,0.0,-1.7582,-1.7582,-1.7582,-1.7582,-1.7582,-1.7582,-1.7582,-1.7582,-1.7582,-1.7582,-1.7454,-1.7199,-1.7172,-1.6797,-1.6321,-1.6246,-1.6052,-1.5784,-1.5784,-1.5784,-1.5784,-1.5784,-1.5784,-1.5784,-1.5784,-1.5784,-1.5784,-1.5784,-1.5784,-1.5784,-1.5784,-1.5784,-1.5784,-1.5784,-1.5784,-1.5651,-1.5135,-1.5042,-1.51,-1.5323,-1.5347,-1.5624,-1.6412,-1.6576,-1.6617,-1.6617,-1.7432,-1.7997,-1.7997,-1.8807,-1.9301,-1.9301,-1.9301,-1.9136,-1.877,-1.8375,-1.7963,-1.755,-1.7119,-1.6908,-1.6908,-1.6908,-1.7003,-1.7201,-1.7201,-1.7314,-0.3874,0.0,-0.4375,-0.4416,-0.442,-0.4448,0.0,-0.4545,-0.4535,0.0,0.0,0.0,-0.4769,-0.4714,-0.4853,0.0,0.0,0.0,0.0,0.0,0.0,0.0,0.0,0.0,0.0,0.0,0.0,-1.1546,-1.1273,-1.1088,-1.0992,-1.2172,-1.2773,-1.2719,-1.2989,-1.4148,-1.6271,-1.6324,-1.6477,-1.6842,-1.6842,-1.7001,-1.7279,-1.7279,-1.7437,-1.7582,-1.7582,-1.7582,-1.7582,-1.7582,-1.7582,-1.7582,-1.7582,-1.7582,-1.7582,-1.7582,-1.7454,-1.7166,-1.6894,-1.6573,-1.6239,-1.6005,-1.5838,-1.5784,-1.5784,-1.5784,-1.5784,-1.5784,-1.5784,-1.5784,-1.5784,-1.5784,-1.5784,-1.5784,-1.5784,-1.5784,-1.5784,-1.5784,-1.5784,-1.5784,-1.5784,-1.5712,-1.5357,-1.5297,-1.5181,-1.4756,-1.4711,-1.4715,-1.4692,-1.5269,-1.5718,-1.5718,-1.7058,-1.7997,-1.7997,-1.8807,-1.9301,-1.9301,-1.9301,-1.9256,-1.9164,-1.8779,-1.8385,-1.7981,-1.7275,-1.6908,-1.6908,-1.6908,-1.7003,-1.7201,-1.7201,-1.7314,-0.3613,-0.3812,-0.4033,-0.4105,-0.4119,-0.4147,-0.4314,0.0,0.0,0.0,0.0,0.0,0.0,0.0,0.0,0.0,0.0,0.0,0.0,0.0,0.0,0.0,0.0,0.0,0.0,0.0,-1.0726,-1.0726,-1.0186,-0.986,-0.986,-1.1004,-1.1596,-1.1596,-1.2141,-1.3339,-1.5298,-1.5357,-1.5725,-1.653,-1.653,-1.6743,-1.7179,-1.7179,-1.7331,-1.7582,-1.7582,-1.7582,-1.7582,-1.7582,-1.7582,-1.7582,-1.7582,-1.7582,-1.7569,-1.7435,-1.7253,-1.6951,-1.6607,-1.6313,-1.6046,-1.5879,-1.5784,-1.5784,-1.5784,-1.5784,-1.5784,-1.5784,-1.5784,-1.5784,-1.5784,-1.5784,-1.5784,-1.5784,-1.5784,-1.5784,-1.5784,-1.5784,-1.5784,-1.5784,-1.5784,-1.5684,-1.5444,-1.5398,-1.5244,-1.479,-1.4609,-1.4462,-1.4309,-1.4578,-1.4783,-1.4783,-1.637,-1.7391,-1.7391,-1.8567,-1.9301,-1.9301,-1.9301,-1.9301,-1.9301,-1.8916,-1.844,-1.7844,-1.7403,-1.7092,-1.6908,-1.6908,-1.6968,-1.7072,-1.7072,-1.7107,-0.3629,-0.3779,-0.3912,-0.3946,-0.3975,-0.4016,-0.4143,0.0,0.0,0.0,0.0,0.0,0.0,0.0,0.0,0.0,0.0,0.0,0.0,0.0,0.0,0.0,0.0,0.0,0.0,-1.0457,-1.0457,-1.0457,-0.9482,-0.8885,-0.8885,-0.986,-1.0457,-1.0457,-1.1383,-1.2472,-1.3673,-1.384,-1.4541,-1.5725,-1.5891,-1.6264,-1.6796,-1.7014,-1.7279,-1.7529,-1.7582,-1.7582,-1.7582,-1.7582,-1.7582,-1.7582,-1.7582,-1.7555,-1.7482,-1.7293,-1.6985,-1.66,-1.6306,-1.6039,-1.5784,-1.5784,-1.5784,-1.5784,-1.5784,-1.5784,-1.5784,-1.5784,-1.5784,-1.5784,-1.5784,-1.5784,-1.5784,-1.5784,-1.5784,-1.5784,-1.5784,-1.5784,-1.5784,-1.5784,-1.5784,-1.5752,-1.5504,-1.5464,-1.5364,-1.5115,-1.4776,-1.4569,-1.4529,-1.4269,-1.4088,-1.4088,-1.556,-1.6494,-1.6494,-1.7997,-1.8895,-1.8895,-1.9143,-1.9301,-1.9301,-1.8916,-1.8357,-1.7605,-1.7523,-1.7303,-1.6908,-1.6908,-1.6908,-1.6908,-1.6908,-1.6908,-0.3798,-0.4089,-0.4229,-0.3906,-0.3909,-0.3993,-0.4023,0.0,0.0,0.0,0.0,0.0,0.0,0.0,0.0,0.0,0.0,0.0,0.0,0.0,0.0,0.0,0.0,0.0,0.0,-0.9154,-0.9154,-0.9154,-0.8992,-0.8885,-0.8885,-0.9103,-0.9154,-0.9154,-0.9375,-1.0025,-1.1219,-1.22,-1.2797,-1.3009,-1.4051,-1.4696,-1.506,-1.6246,-1.6948,-1.7279,-1.7483,-1.7582,-1.7582,-1.7582,-1.7582,-1.7582,-1.7582,-1.7481,-1.7266,-1.7219,-1.6857,-1.6299,-1.5999,-1.5818,-1.5784,-1.5784,-1.5784,-1.5784,-1.5784,-1.5784,-1.5784,-1.5784,-1.5784,-1.5784,-1.5784,-1.5784,-1.5784,-1.5784,-1.5784,-1.5784,-1.5784,-1.5784,-1.5784,-1.5784,-1.5784,-1.5764,-1.5772,-1.5718,-1.5665,-1.5378,-1.5084,-1.4803,-1.4556,-1.4269,-1.4088,-1.4088,-1.4985,-1.5602,-1.5602,-1.6535,-1.7107,-1.7107,-1.8487,-1.9301,-1.9301,-1.8916,-1.8495,-1.8036,-1.7678,-1.7303,-1.6908,-1.6908,-1.6908,-1.6908,-1.6908,-1.6908,-0.3627,-0.3889,-0.4043,-0.3883,-0.4231,-0.4556,-0.4365,0.0,0.0,0.0,0.0,0.0,0.0,0.0,0.0,0.0,0.0,0.0,0.0,0.0,0.0,0.0,0.0,0.0,-0.8801,-0.8815,-0.8849,-0.8875,-0.8885,-0.8885,-0.8885,-0.8885,-0.8885,-0.8885,-0.8885,-0.9154,-0.9699,-1.0245,-1.1168,-1.2417,-1.2965,-1.3393,-1.3647,-1.4288,-1.5209,-1.624,-1.634,-1.6876,-1.7582,-1.7582,-1.7488,-1.74,-1.74,-1.7219,-1.6894,-1.6784,-1.64,-1.6012,-1.5831,-1.5784,-1.5784,-1.5784,-1.5784,-1.5784,-1.5784,-1.5784,-1.5784,-1.5784,-1.5784,-1.5784,-1.5784,-1.5784,-1.5784,-1.5784,-1.5784,-1.5784,-1.5784,-1.5784,-1.5784,-1.5784,-1.5784,-1.5784,-1.5784,-1.5784,-1.5785,-1.5651,-1.5251,-1.4961,-1.4776,-1.4369,-1.4088,-1.4088,-1.4866,-1.5394,-1.5394,-1.6206,-1.6698,-1.6698,-1.7464,-1.8118,-1.8567,-1.84,-1.8369,-1.8411,-1.8247,-1.7844,-1.7229,-1.7449,-1.7449,-1.722,-1.722,-1.722,-0.3308,-0.3671,-0.3914,-0.4008,0.0,-0.4809,-0.4632,0.0,0.0,0.0,0.0,0.0,0.0,0.0,0.0,0.0,0.0,0.0,0.0,0.0,0.0,0.0,0.0,-0.8492,-0.8642,-0.8659,-0.8706,-0.8821,-0.8832,-0.8832,-0.8832,-0.8832,-0.8832,-0.8832,-0.8832,-0.8794,-0.8828,-0.8831,-0.9771,-1.1601,-1.1873,-1.2136,-1.2344,-1.2665,-1.3524,-1.4818,-1.514,-1.597,-1.699,-1.7297,-1.7248,-1.7099,-1.7099,-1.6867,-1.6567,-1.6279,-1.6025,-1.5784,-1.5784,-1.5784,-1.5784,-1.5784,-1.5784,-1.5784,-1.5784,-1.5784,-1.5784,-1.5784,-1.5784,-1.5784,-1.5784,-1.5784,-1.5784,-1.5784,-1.5784,-1.5784,-1.5784,-1.5784,-1.5784,-1.5784,-1.5784,-1.5784,-1.5784,-1.5784,-1.5784,-1.5784,-1.5391,-1.5082,-1.5015,-1.4509,-1.4162,-1.4095,-1.4699,-1.511,-1.511,-1.5718,-1.6083,-1.6083,-1.6657,-1.7302,-1.7957,-1.8198,-1.843,-1.8676,-1.8715,-1.8357,-1.7642,-1.7963,-1.7954,-1.7642,-1.7642,-1.7642,-0.2979,-0.3582,-0.42,-0.4322,-0.4228,0.0,-0.4425,-0.455,0.0,-0.4844,0.0,0.0,0.0,0.0,0.0,0.0,0.0,0.0,0.0,0.0,0.0,0.0,-0.833,-0.8391,-0.8486,-0.8499,-0.8503,-0.8513,-0.8516,-0.8516,-0.8516,-0.8516,-0.8516,-0.8516,-0.8516,-0.8584,-0.8726,-0.8726,-0.8852,-0.9154,-1.0296,-1.0836,-1.0887,-1.2181,-1.2881,-1.3082,-1.4423,-1.5065,-1.5255,-1.631,-1.6754,-1.674,-1.674,-1.656,-1.6266,-1.5972,-1.5798,-1.5784,-1.5784,-1.5784,-1.5784,-1.5784,-1.5784,-1.5784,-1.5784,-1.5784,-1.5784,-1.5784,-1.5784,-1.5784,-1.5784,-1.5784,-1.5784,-1.5784,-1.5784,-1.5784,-1.5784,-1.5784,-1.5784,-1.5784,-1.5784,-1.5784,-1.5784,-1.5784,-1.5784,-1.5784,-1.5565,-1.5264,-1.5042,-1.4689,-1.4389,-1.4115,-1.4166,-1.4173,-1.4173,-1.425,-1.4292,-1.4292,-1.6576,-1.7917,-1.7997,-1.8767,-1.903,-1.8715,-1.8715,-1.8504,-1.8082,-1.8072,-1.8072,-1.8082,-1.8082,-1.8082,-0.268,-0.3382,-0.3991,-0.4161,-0.4207,0.0,0.0,-0.5043,-0.5266,-0.5288,0.0,0.0,0.0,0.0,0.0,0.0,0.0,0.0,0.0,0.0,0.0,-0.8119,-0.8126,-0.8184,-0.8336,-0.8402,-0.8387,-0.8476,-0.8482,-0.8482,-0.8482,-0.8482,-0.8482,-0.8482,-0.8482,-0.8509,-0.8567,-0.8567,-0.8598,-0.8655,-0.9176,-0.9435,-0.9486,-0.9911,-1.0966,-1.2436,-1.3034,-1.4139,-1.5636,-1.62,-1.6351,-1.6209,-1.6184,-1.6092,-1.5985,-1.5872,-1.5784,-1.5784,-1.5784,-1.5784,-1.5784,-1.5784,-1.5784,-1.5784,-1.5784,-1.5784,-1.5784,-1.5784,-1.5784,-1.5784,-1.5784,-1.5784,-1.5784,-1.5784,-1.5784,-1.5784,-1.5784,-1.5784,-1.5784,-1.5784,-1.5784,-1.5784,-1.5784,-1.5784,-1.5784,-1.5784,-1.5431,-1.5129,-1.5022,-1.4549,-1.4208,-1.4095,-1.4088,-1.4088,-1.4088,-1.4088,-1.4088,-1.4088,-1.556,-1.6617,-1.718,-1.8037,-1.8656,-1.9081,-1.9072,-1.8889,-1.8457,-1.8733,-1.8733,-1.8485,-1.8485,-1.8485,-0.2356,-0.3138,-0.389,-0.4066,0.0,0.0,-0.4927,-0.5317,-0.5591,-0.5613,0.0,0.0,0.0,0.0,0.0,0.0,0.0,0.0,0.0,0.0,-0.7988,-0.7988,-0.7988,-0.8029,-0.8187,-0.8197,-0.8238,-0.8336,-0.8343,-0.8343,-0.8343,-0.8343,-0.8343,-0.8343,-0.8343,-0.8364,-0.8414,-0.8414,-0.8438,-0.8482,-0.8543,-0.8594,-0.8635,-0.853,-0.9623,-1.1583,-1.1933,-1.3228,-1.5213,-1.5687,-1.5878,-1.5767,-1.581,-1.5784,-1.5784,-1.5784,-1.5784,-1.5784,-1.5784,-1.5784,-1.5784,-1.5784,-1.5784,-1.5784,-1.5784,-1.5784,-1.5784,-1.5784,-1.5784,-1.5784,-1.5784,-1.5784,-1.5784,-1.5784,-1.5784,-1.5784,-1.5784,-1.5784,-1.5784,-1.5784,-1.5784,-1.5784,-1.5784,-1.5784,-1.5784,-1.5784,-1.5418,-1.5115,-1.5022,-1.4529,-1.4188,-1.4095,-1.4088,-1.4088,-1.4088,-1.4088,-1.4088,-1.4088,-1.4901,-1.5684,-1.6247,-1.7391,-1.8158,-1.8487,-1.8487,-1.8356,-1.8061,-1.8356,-1.8356,-1.8061,-1.8061,-1.8218,-0.1999,-0.2943,-0.3932,0.0,0.0,0.0,0.0,-0.5315,-0.5499,0.0,0.0,0.0,0.0,0.0,0.0,0.0,0.0,0.0,0.0,0.0,-0.7988,-0.7988,-0.7988,-0.7988,-0.7988,-0.7988,-0.7988,-0.7988,-0.7988,-0.7988,-0.7988,-0.7988,-0.7988,-0.7988,-0.7988,-0.8113,-0.832,-0.832,-0.834,-0.8476,-0.8336,-0.8343,-0.8479,-0.8479,-0.91,-1.0175,-1.1268,-1.2339,-1.3369,-1.4558,-1.522,-1.5547,-1.5737,-1.5778,-1.5784,-1.5784,-1.5784,-1.5784,-1.5784,-1.5784,-1.5784,-1.5784,-1.5784,-1.5784,-1.5784,-1.5784,-1.5784,-1.5784,-1.5784,-1.5784,-1.5784,-1.5784,-1.5784,-1.5784,-1.5784,-1.5784,-1.5778,-1.5784,-1.5784,-1.5784,-1.5784,-1.5784,-1.5784,-1.5784,-1.5784,-1.5778,-1.5578,-1.5291,-1.5035,-1.4696,-1.4402,-1.4122,-1.4088,-1.4088,-1.4088,-1.4088,-1.4088,-1.4088,-1.4901,-1.5394,-1.5394,-1.7066,-1.7594,-1.6739,-1.6698,-1.6698,-1.6698,-1.6698,-1.6698,-1.6698,-1.6698,-1.718,-0.1857,-0.2865,0.0,0.0,0.0,0.0,0.0,0.0,0.0,0.0,0.0,0.0,0.0,0.0,0.0,0.0,0.0,-0.749,-0.7693,-0.7693,-0.7793,-0.7992,-0.7988,-0.7988,-0.7988,-0.7988,-0.7988,-0.7988,-0.7988,-0.7988,-0.7988,-0.7988,-0.7988,-0.7988,-0.7988,-0.8012,-0.8106,-0.8109,-0.813,-0.817,-0.813,-0.8187,-0.833,-0.8221,-0.8718,-0.9762,-1.0103,-1.087,-1.1899,-1.3201,-1.4292,-1.522,-1.5267,-1.5404,-1.5588,-1.5588,-1.5683,-1.5784,-1.5784,-1.5784,-1.5784,-1.5784,-1.5784,-1.5784,-1.5784,-1.5784,-1.5784,-1.5784,-1.5784,-1.5784,-1.5635,-1.5588,-1.5588,-1.5588,-1.5683,-1.5689,-1.5363,-1.5452,-1.5588,-1.5588,-1.5588,-1.5635,-1.5784,-1.5784,-1.5758,-1.5558,-1.5277,-1.4955,-1.4409,-1.4269,-1.4182,-1.4095,-1.4088,-1.4088,-1.4088,-1.4088,-1.4088,-1.4088,-1.4901,-1.5394,-1.5394,-1.6494,-1.6944,-1.6698,-1.6698,-1.6698,-1.6698,-1.6698,-1.6698,-1.6698,-1.6698,-1.718,-0.2342,0.0,0.0,0.0,0.0,0.0,0.0,0.0,0.0,0.0,0.0,0.0,0.0,0.0,0.0,0.0,-0.6988,-0.7288,-0.7547,-0.7596,-0.7696,-0.7992,-0.7988,-0.7988,-0.7988,-0.7988,-0.7988,-0.7988,-0.7988,-0.7988,-0.7988,-0.7988,-0.7988,-0.7988,-0.7988,-0.7988,-0.7988,-0.7988,-0.7988,-0.7988,-0.7988,-0.8039,-0.8177,-0.8032,-0.8577,-0.9608,-1.0047,-1.0587,-1.1268,-1.2145,-1.2974,-1.3709,-1.3806,-1.419,-1.4723,-1.4723,-1.4765,-1.4962,-1.5356,-1.501,-1.4567,-1.5391,-1.5445,-1.5302,-1.5683,-1.573,-1.5683,-1.5784,-1.5689,-1.5499,-1.5493,-1.5404,-1.5356,-1.5356,-1.5404,-1.5458,-1.5178,-1.522,-1.5356,-1.5493,-1.5493,-1.554,-1.5784,-1.5784,-1.5772,-1.5591,-1.5224,-1.4794,-1.4162,-1.4088,-1.4088,-1.4088,-1.4088,-1.4088,-1.4088,-1.4088,-1.4088,-1.4088,-1.458,-1.4866,-1.4866,-1.5718,-1.6,-1.5677,-1.5684,-1.5684,-1.5684,-1.5684,-1.5684,-1.5684,-1.5684,-1.6329,0.0,0.0,0.0,0.0,0.0,0.0,0.0,0.0,0.0,0.0,0.0,0.0,0.0,0.0,0.0,0.0,-0.6989,-0.7238,-0.7497,-0.7547,-0.7643,-0.7942,-0.7942,-0.7992,-0.7988,-0.7988,-0.7988,-0.7988,-0.7988,-0.7988,-0.7988,-0.7988,-0.7988,-0.7988,-0.7988,-0.7988,-0.7988,-0.7988,-0.7988,-0.7988,-0.7988,-0.7988,-0.7988,-0.7988,-0.8531,-0.9509,-1.0489,-1.0974,-1.1072,-1.1317,-1.1463,-1.156,-1.1755,-1.2436,-1.3318,-1.3318,-1.3318,-1.3511,-1.4496,-1.3806,-1.277,-1.4765,-1.4968,-1.4586,-1.5493,-1.5635,-1.554,-1.5689,-1.541,-1.5124,-1.5356,-1.5267,-1.5083,-1.5035,-1.5083,-1.5083,-1.5035,-1.5035,-1.5124,-1.5404,-1.5445,-1.554,-1.5778,-1.5784,-1.5764,-1.5711,-1.5257,-1.4733,-1.4155,-1.4088,-1.4088,-1.4088,-1.4088,-1.4088,-1.4088,-1.4088,-1.4088,-1.4088,-1.4088,-1.4088,-1.4088,-1.4866,-1.4908,-1.413,-1.4088,-1.4088,-1.4088,-1.4088,-1.4088,-1.4088,-1.4088,-1.4985,0.0,0.0,0.0,0.0,0.0,0.0,0.0,0.0,0.0,0.0,0.0,0.0,0.0,0.0,0.0,-0.6484,-0.6537,-0.6689,-0.6945,-0.6995,-0.7144,-0.7646,-0.7696,-0.7793,-0.7992,-0.7988,-0.7988,-0.7988,-0.7988,-0.7988,-0.7988,-0.7988,-0.7988,-0.7988,-0.7988,-0.7988,-0.7988,-0.7988,-0.7988,-0.7988,-0.7988,-0.7988,-0.7988,-0.7988,-0.8137,-0.8333,-0.8577,-0.9167,-0.9948,-0.9998,-1.0538,-1.1268,-1.1317,-1.1609,-1.1999,-1.1999,-1.2096,-1.229,-1.2732,-1.321,-1.3686,-1.4334,-1.4968,-1.5493,-1.554,-1.554,-1.5452,-1.5315,-1.5178,-1.5083,-1.4927,-1.4838,-1.4736,-1.4538,-1.479,-1.4987,-1.4544,-1.464,-1.4885,-1.5124,-1.5178,-1.5315,-1.5737,-1.5784,-1.5671,-1.5217,-1.4649,-1.4229,-1.4102,-1.4088,-1.4088,-1.4088,-1.4088,-1.4088,-1.4088,-1.4088,-1.4088,-1.4088,-1.4088,-1.4088,-1.4088,-1.4292,-1.4292,-1.4088,-1.4088,-1.4088,-1.4088,-1.4088,-1.4088,-1.4088,-1.4088,-1.4664,0.0,0.0,0.0,0.0,0.0,0.0,0.0,0.0,0.0,0.0,0.0,0.0,0.0,0.0,0.0,-0.6387,-0.6387,-0.6487,-0.6742,-0.6795,-0.6945,-0.7341,-0.7543,-0.7646,-0.7793,-0.7942,-0.7988,-0.7988,-0.7988,-0.7988,-0.7988,-0.7988,-0.7988,-0.7988,-0.7988,-0.7988,-0.7988,-0.7988,-0.7988,-0.7988,-0.7988,-0.7988,-0.7988,-0.7988,-0.7988,-0.7988,-0.7988,-0.8333,-0.8825,-0.8825,-0.9167,-0.9657,-0.9657,-1.0047,-1.0636,-1.0636,-1.073,-1.0877,-1.156,-1.1896,-1.2231,-1.3366,-1.419,-1.4771,-1.5166,-1.5213,-1.5118,-1.5083,-1.4939,-1.4663,-1.4527,-1.4401,-1.427,-1.4001,-1.4313,-1.464,-1.4346,-1.4394,-1.464,-1.5035,-1.5083,-1.5274,-1.5737,-1.5784,-1.5585,-1.4863,-1.4609,-1.4445,-1.4122,-1.4088,-1.4088,-1.4088,-1.4088,-1.4088,-1.4088,-1.4088,-1.4088,-1.4088,-1.4088,-1.4088,-1.4088,-1.4088,-1.4088,-1.4088,-1.4088,-1.4088,-1.4088,-1.4088,-1.4088,-1.4088,-1.4088,-1.458,0.0,0.0,0.0,0.0,0.0,0.0,0.0,0.0,0.0,0.0,0.0,0.0,0.0,0.0,0.0,-0.6387,-0.6387,-0.6487,-0.6692,-0.6742,-0.6842,-0.7089,-0.7344,-0.7497,-0.7596,-0.7793,-0.7939,-0.7988,-0.7988,-0.7988,-0.7988,-0.7988,-0.7988,-0.7988,-0.7988,-0.7988,-0.7988,-0.7988,-0.7988,-0.7988,-0.7988,-0.7988,-0.7988,-0.7988,-0.7988,-0.7988,-0.7988,-0.7988,-0.7988,-0.7988,-0.7988,-0.7988,-0.7988,-0.8528,-0.9312,-0.9312,-0.9312,-0.946,-1.0587,-1.0685,-1.0587,-1.2538,-1.3463,-1.395,-1.479,-1.4885,-1.4742,-1.4885,-1.464,-1.4285,-1.4259,-1.4052,-1.3839,-1.3574,-1.3845,-1.4165,-1.4165,-1.4195,-1.4375,-1.4864,-1.5007,-1.5149,-1.561,-1.5577,-1.5265,-1.4542,-1.4645,-1.4592,-1.4064,-1.3997,-1.3997,-1.3997,-1.3997,-1.3997,-1.3997,-1.3997,-1.3997,-1.3997,-1.3997,-1.3997,-1.4046,-1.4046,-1.4039,-1.4088,-1.4088,-1.4088,-1.4088,-1.4088,-1.4088,-1.4088,-1.4088,-1.4496,0.0,0.0,0.0,0.0,0.0,0.0,0.0,0.0,0.0,0.0,0.0,0.0,0.0,0.0,0.0,-0.6387,-0.6387,-0.6437,-0.6437,-0.6437,-0.6539,-0.6842,-0.6895,-0.7095,-0.7547,-0.7646,-0.7743,-0.7988,-0.7988,-0.7988,-0.7988,-0.7988,-0.7988,-0.7988,-0.7988,-0.7988,-0.7988,-0.7988,-0.7988,-0.7988,-0.7988,-0.7988,-0.7988,-0.7988,-0.7988,-0.7988,-0.7988,-0.7988,-0.7988,-0.7988,-0.7988,-0.7988,-0.7988,-0.8088,-0.8237,-0.8237,-0.8237,-0.8382,-0.9706,-1.0685,-1.1609,-1.3022,-1.41,-1.4885,-1.479,-1.4736,-1.464,-1.4442,-1.4346,-1.4238,-1.4025,-1.3952,-1.3839,-1.3574,-1.3568,-1.3622,-1.3622,-1.3797,-1.4054,-1.4341,-1.4615,-1.4841,-1.5073,-1.4708,-1.4392,-1.4274,-1.4028,-1.3779,-1.3532,-1.3483,-1.3483,-1.3483,-1.3483,-1.3483,-1.3483,-1.3483,-1.3483,-1.3483,-1.3483,-1.3568,-1.3737,-1.3737,-1.387,-1.4088,-1.4088,-1.4088,-1.4088,-1.4088,-1.4088,-1.4088,-1.4088,-1.4166,0.0,0.0,0.0,0.0,0.0,0.0,0.0,0.0,0.0,0.0,0.0,0.0,0.0,0.0,0.0,-0.6387,-0.6387,-0.6387,-0.6387,-0.6387,-0.6437,-0.6539,-0.6692,-0.6895,-0.7144,-0.7291,-0.7494,-0.7743,-0.7793,-0.7842,-0.7988,-0.7988,-0.7988,-0.7988,-0.7988,-0.7988,-0.7988,-0.7988,-0.7988,-0.7988,-0.7988,-0.7988,-0.7988,-0.7988,-0.7988,-0.7988,-0.7988,-0.7988,-0.7988,-0.7988,-0.7988,-0.7988,-0.7988,-0.7988,-0.7988,-0.7988,-0.7988,-0.8088,-0.8676,-0.9608,-1.0681,-1.1853,-1.2926,-1.3854,-1.4346,-1.4496,-1.4442,-1.4346,-1.4189,-1.4014,-1.3755,-1.3574,-1.3399,-1.3127,-1.3061,-1.3061,-1.3061,-1.3507,-1.4042,-1.4436,-1.4618,-1.4737,-1.479,-1.4624,-1.4353,-1.4038,-1.3968,-1.3835,-1.3436,-1.3398,-1.3398,-1.3398,-1.3398,-1.3398,-1.3398,-1.3398,-1.3398,-1.3398,-1.3398,-1.3483,-1.3695,-1.3695,-1.3828,-1.4088,-1.4088,-1.4088,-1.4088,-1.4088,-1.4088,-1.4088,-1.4088,-1.4088,0.0,0.0,0.0,0.0,0.0,0.0,0.0,0.0,0.0,0.0,0.0,0.0,0.0,0.0,0.0,-0.6387,-0.6387,-0.6387,-0.6387,-0.6387,-0.6387,-0.6387,-0.6589,-0.6742,-0.6795,-0.6992,-0.7191,-0.7494,-0.7547,-0.7696,-0.7892,-0.7942,-0.7988,-0.7988,-0.7988,-0.7988,-0.7988,-0.7988,-0.7988,-0.7988,-0.7988,-0.7988,-0.7988,-0.7988,-0.7988,-0.7988,-0.7988,-0.7988,-0.7988,-0.7988,-0.7988,-0.7988,-0.7988,-0.7988,-0.7988,-0.7988,-0.7988,-0.8038,-0.8333,-0.8924,-0.9756,-1.0832,-1.1707,-1.2533,-1.3559,-1.3902,-1.3956,-1.4202,-1.4159,-1.393,-1.3598,-1.3369,-1.3107,-1.2874,-1.2753,-1.2741,-1.288,-1.3381,-1.3952,-1.4476,-1.4553,-1.4511,-1.4518,-1.4438,-1.4268,-1.3882,-1.3882,-1.3799,-1.3372,-1.3266,-1.3222,-1.3222,-1.3222,-1.3222,-1.3222,-1.3222,-1.3222,-1.3222,-1.3222,-1.3307,-1.3519,-1.361,-1.3737,-1.3997,-1.4088,-1.4088,-1.4088,-1.4088,-1.4088,-1.4088,-1.4088,-1.4088,0.0,0.0,0.0,0.0,0.0,0.0,0.0,0.0,0.0,0.0,0.0,0.0,0.0,0.0,0.0,0.0,-0.6387,-0.6387,-0.6387,-0.6387,-0.6387,-0.6387,-0.6437,-0.6539,-0.6792,-0.6795,-0.6942,-0.7188,-0.7444,-0.7596,-0.7596,-0.7842,-0.7988,-0.7988,-0.7988,-0.7988,-0.7988,-0.7988,-0.7988,-0.7988,-0.7988,-0.7988,-0.7988,-0.7988,-0.7988,-0.7988,-0.7988,-0.7988,-0.7988,-0.7988,-0.7988,-0.7988,-0.7988,-0.7988,-0.7988,-0.7988,-0.7988,-0.8137,-0.9167,-0.9558,-0.9756,-1.0832,-1.1219,-1.1463,-1.2484,-1.278,-1.3022,-1.4004,-1.4286,-1.4159,-1.3646,-1.3507,-1.3429,-1.3119,-1.2898,-1.285,-1.3363,-1.3507,-1.3682,-1.4195,-1.4134,-1.3999,-1.4186,-1.3845,-1.3623,-1.3871,-1.3467,-1.3139,-1.3117,-1.2868,-1.2747,-1.2747,-1.2747,-1.2747,-1.2747,-1.2747,-1.2747,-1.2747,-1.2747,-1.2875,-1.3137,-1.3307,-1.3519,-1.3737,-1.3955,-1.4088,-1.4088,-1.4088,-1.4088,-1.4088,-1.4088,-1.4088,0.0,0.0,0.0,0.0,0.0,0.0,0.0,0.0,0.0,0.0,0.0,0.0,0.0,0.0,0.0,0.0,-0.6387,-0.6387,-0.6387,-0.6387,-0.6387,-0.6387,-0.6387,-0.6437,-0.6539,-0.6539,-0.6639,-0.6942,-0.7042,-0.7247,-0.7596,-0.7696,-0.7842,-0.7988,-0.7988,-0.7988,-0.7988,-0.7988,-0.7988,-0.7988,-0.7988,-0.7988,-0.7988,-0.7988,-0.7988,-0.7988,-0.7988,-0.7988,-0.7988,-0.7988,-0.7988,-0.7988,-0.7988,-0.7988,-0.7988,-0.7988,-0.7988,-0.8038,-0.8432,-0.8581,-0.8775,-0.9801,-1.0145,-1.0391,-1.1414,-1.1755,-1.195,-1.2974,-1.3152,-1.3102,-1.3421,-1.3393,-1.3194,-1.2922,-1.2916,-1.3025,-1.3224,-1.3399,-1.3622,-1.3978,-1.3972,-1.396,-1.4224,-1.3997,-1.3735,-1.3662,-1.3485,-1.3227,-1.2886,-1.2765,-1.2705,-1.2705,-1.2705,-1.2705,-1.2705,-1.2705,-1.2705,-1.2705,-1.2705,-1.2833,-1.3094,-1.3185,-1.3349,-1.3695,-1.3652,-1.3786,-1.4088,-1.4088,-1.4088,-1.4088,-1.4088,-1.4088,0.0,0.0,0.0,0.0,0.0,0.0,0.0,0.0,0.0,0.0,0.0,0.0,0.0,0.0,0.0,0.0,-0.6363,-0.6387,-0.6387,-0.6387,-0.6387,-0.6387,-0.6387,-0.6387,-0.6387,-0.6387,-0.6487,-0.6642,-0.6742,-0.6945,-0.7297,-0.7497,-0.7746,-0.7988,-0.7941,-0.7938,-0.7988,-0.7988,-0.7988,-0.7988,-0.7988,-0.7988,-0.7988,-0.7988,-0.7988,-0.7988,-0.7988,-0.7988,-0.7988,-0.7988,-0.7988,-0.7988,-0.7988,-0.7988,-0.7988,-0.7988,-0.7988,-0.7988,-0.7988,-0.7988,-0.8137,-0.8825,-0.9069,-0.9262,-1.0342,-1.0681,-1.0925,-1.2339,-1.2571,-1.2636,-1.343,-1.3519,-1.3314,-1.3043,-1.3188,-1.3363,-1.3227,-1.3393,-1.3592,-1.3851,-1.3978,-1.4093,-1.4268,-1.4008,-1.3749,-1.3658,-1.3417,-1.3145,-1.288,-1.2765,-1.2705,-1.2705,-1.2705,-1.2705,-1.2705,-1.2705,-1.2705,-1.2705,-1.2705,-1.279,-1.2966,-1.3052,-1.3228,-1.3483,-1.344,-1.3568,-1.387,-1.387,-1.3955,-1.4088,-1.3955,-1.387,0.0,0.0,0.0,0.0,0.0,0.0,0.0,0.0,0.0,0.0,0.0,0.0,0.0,0.0,0.0,0.0,0.0,-0.6381,-0.6381,-0.6384,-0.6387,-0.6387,-0.6387,-0.6387,-0.6387,-0.6387,-0.6387,-0.6387,-0.6639,-0.6795,-0.6795,-0.7291,-0.7736,-0.7978,-0.7882,-0.7875,-0.7975,-0.7978,-0.7978,-0.7982,-0.7982,-0.7985,-0.7988,-0.7988,-0.7988,-0.7988,-0.7988,-0.7988,-0.7988,-0.7988,-0.7988,-0.7988,-0.7988,-0.7988,-0.7988,-0.7988,-0.7988,-0.7988,-0.7988,-0.7988,-0.7988,-0.7988,-0.7988,-0.8187,-0.9217,-0.9558,-0.9998,-1.2047,-1.263,-1.2823,-1.3626,-1.3847,-1.3827,-1.3568,-1.3707,-1.3821,-1.3562,-1.3507,-1.3592,-1.3845,-1.4111,-1.4292,-1.4286,-1.3863,-1.361,-1.3857,-1.3224,-1.2813,-1.3079,-1.2874,-1.2705,-1.2705,-1.2705,-1.2705,-1.2705,-1.2705,-1.2705,-1.2705,-1.2705,-1.2705,-1.2705,-1.2966,-1.3094,-1.3094,-1.3264,-1.3392,-1.3398,-1.3398,-1.361,-1.4088,-1.361,-1.3398,0.0,0.0,0.0,0.0,0.0,0.0,0.0,0.0,0.0,0.0,0.0,0.0,0.0,0.0,0.0,0.0,0.0,-0.6314,-0.6314,-0.6385,-0.6387,-0.6387,-0.6387,-0.6387,-0.6387,-0.6387,-0.6387,0.0,-0.6487,-0.6589,-0.6795,-0.7202,-0.754,-0.7723,-0.7682,-0.7678,-0.7723,-0.7723,-0.7773,-0.7875,-0.7875,-0.7884,-0.7988,-0.7988,-0.7988,-0.7988,-0.7988,-0.7988,-0.7988,-0.7988,-0.7988,-0.7988,-0.7988,-0.7988,-0.7988,-0.7988,-0.7988,-0.7988,-0.7988,-0.7988,-0.7988,-0.7988,-0.7988,-0.8038,-0.8333,-0.8432,-0.8726,-1.0096,-1.0435,-1.075,-1.2092,-1.3015,-1.3556,-1.3252,-1.3435,-1.355,-1.329,-1.3381,-1.3538,-1.361,-1.3984,-1.4238,-1.4045,-1.3894,-1.3761,-1.364,-1.3272,-1.2964,-1.2837,-1.2753,-1.2705,-1.2705,-1.2705,-1.2705,-1.2705,-1.2705,-1.2705,-1.2705,-1.2705,-1.2705,-1.2705,-1.279,-1.2881,-1.3094,-1.2966,-1.3052,-1.3398,-1.3398,-1.3483,-1.3568,-1.3483,-1.3398,0.0,0.0,0.0,0.0,0.0,0.0,0.0,-0.1468,0.0,0.0,0.0,0.0,0.0,0.0,0.0,0.0,0.0,-0.5077,-0.555,-0.5319,-0.5058,-0.5058,-0.5046,-0.507,-0.507,-0.5458,-0.5717,-0.5671,-0.6116,-0.6443,-0.6686,-0.6852,-0.7102,-0.7409,-0.7396,-0.7443,-0.76,-0.76,-0.7641,-0.7723,-0.7723,-0.777,-0.7855,-0.7855,-0.7855,-0.7858,-0.787,-0.7894,-0.7901,-0.7965,-0.7988,-0.7988,-0.7988,-0.7988,-0.7988,-0.7988,-0.7988,-0.7982,-0.7917,-0.7938,-0.7968,-0.7847,-0.7891,-0.7978,-0.7914,-0.7938,-0.8233,-0.9316,-0.9894,-1.0408,-1.1308,-1.1987,-1.2487,-1.2659,-1.2836,-1.3049,-1.321,-1.3405,-1.3483,-1.3369,-1.3773,-1.4051,-1.3791,-1.3743,-1.3652,-1.3393,-1.3121,-1.2886,-1.2729,-1.2705,-1.2705,-1.2705,-1.2705,-1.2705,-1.2705,-1.2705,-1.2705,-1.2705,-1.2705,-1.2705,-1.2705,-1.2705,-1.279,-1.2924,-1.279,-1.2833,-1.3094,-1.3094,-1.3094,-1.3094,-1.3222,-1.3222,0.0,0.0,0.0,0.0,0.0,0.0,0.0,-0.0607,-0.1179,0.0,0.0,0.0,0.0,0.0,0.0,0.0,0.0,0.0,-0.433,-0.3749,-0.3185,-0.3185,-0.3186,-0.322,-0.322,-0.4063,-0.4621,-0.4543,-0.5514,-0.624,-0.6444,-0.6383,-0.655,-0.7113,-0.7004,-0.7139,-0.7503,-0.755,-0.7556,-0.7577,-0.7577,-0.7584,-0.76,-0.76,-0.76,-0.7607,-0.7733,-0.7787,-0.7797,-0.7901,-0.7975,-0.7988,-0.7988,-0.7988,-0.7988,-0.7988,-0.7988,-0.7971,-0.7882,-0.7916,-0.7921,-0.7709,-0.779,-0.7917,-0.7848,-0.7896,-0.8135,-0.9109,-1.0057,-1.0768,-1.0745,-1.0834,-1.1069,-1.1757,-1.2007,-1.2248,-1.3013,-1.3239,-1.3207,-1.2951,-1.3411,-1.3779,-1.3519,-1.3471,-1.3393,-1.3157,-1.2886,-1.2705,-1.2705,-1.2705,-1.2705,-1.2705,-1.2705,-1.2705,-1.2705,-1.2705,-1.2705,-1.2705,-1.2705,-1.2705,-1.2705,-1.2705,-1.2705,-1.2705,-1.2705,-1.2705,-1.2705,-1.2705,-1.2705,-1.2705,-1.2924,-1.2924,0.0,0.0,0.0,0.0,0.0,0.0,0.0,-0.0122,-0.0256,0.0,0.0,0.0,0.0,0.0,0.0,0.0,0.0,0.0,-0.3076,-0.3246,-0.3185,-0.3185,-0.3196,-0.3203,-0.3203,-0.3406,-0.3505,-0.3491,-0.4445,-0.5402,-0.6273,-0.6336,-0.6375,-0.6556,-0.6758,-0.6895,-0.6969,-0.7097,-0.7292,-0.746,-0.746,-0.7482,-0.76,-0.76,-0.76,-0.76,-0.7631,-0.7641,-0.7651,-0.7797,-0.788,-0.7988,-0.7988,-0.7988,-0.7988,-0.7988,-0.7988,-0.7985,-0.7958,-0.7884,-0.7845,-0.7787,-0.7733,-0.7702,-0.7787,-0.7753,-0.7733,-0.7919,-0.8738,-0.9512,-0.9309,-0.9817,-1.0448,-1.0635,-1.0655,-1.0719,-1.0905,-1.1523,-1.1987,-1.1701,-1.2684,-1.3507,-1.3197,-1.32,-1.3137,-1.3133,-1.2886,-1.2705,-1.2705,-1.2705,-1.2705,-1.2705,-1.2705,-1.2705,-1.2705,-1.2705,-1.2705,-1.2705,-1.2705,-1.2705,-1.2705,-1.2705,-1.2705,-1.2705,-1.2705,-1.2705,-1.2705,-1.2705,-1.2705,-1.2705,-1.2747,-1.2747,0.0,0.0,0.0,0.0,0.0,0.0,0.0,0.0,0.0,0.0,0.0,0.0,0.0,0.0,0.0,0.0,0.0,0.0,0.0,-0.157,-0.1613,-0.1613,-0.1598,-0.1618,-0.1618,-0.2069,-0.2794,-0.3795,-0.427,-0.4963,-0.5961,-0.6003,-0.6062,-0.626,-0.6393,-0.6571,-0.6795,-0.6881,-0.7047,-0.7255,-0.7255,-0.7295,-0.737,-0.737,-0.737,-0.7377,-0.7451,-0.7485,-0.7499,-0.7645,-0.775,-0.7834,-0.7931,-0.7988,-0.7988,-0.7988,-0.7988,-0.7968,-0.7872,-0.7818,-0.7773,-0.755,-0.7533,-0.7597,-0.7594,-0.7597,-0.76,-0.76,-0.7959,-0.8287,-0.8155,-0.8495,-0.8968,-0.9322,-0.9459,-0.9633,-1.0023,-1.048,-1.0888,-1.1262,-1.1915,-1.2489,-1.2847,-1.3031,-1.3029,-1.2934,-1.2795,-1.2705,-1.2705,-1.2705,-1.2705,-1.2705,-1.2705,-1.2705,-1.2705,-1.2705,-1.2705,-1.2705,-1.2705,-1.2705,-1.2705,-1.2705,-1.2705,-1.2705,-1.2705,-1.2705,-1.2705,-1.2705,-1.2705,-1.2705,-1.2705,-1.2705,0.0,0.0,0.0,0.0,0.0,0.0,0.0,0.0,0.0,0.0,0.0,0.0,0.0,0.0,0.0,0.0,0.0,0.0,0.0,0.0,0.0,0.0,0.0,0.0,0.0,-0.0769,-0.2014,-0.3761,-0.4003,-0.4456,-0.5383,-0.5589,-0.5777,-0.5994,-0.6083,-0.626,-0.6662,-0.6751,-0.6881,-0.7054,-0.7098,-0.7095,-0.7095,-0.7095,-0.7095,-0.7102,-0.7272,-0.7326,-0.7339,-0.7492,-0.7556,-0.7584,-0.7848,-0.7904,-0.7904,-0.7904,-0.7904,-0.7874,-0.7682,-0.7655,-0.7665,-0.7302,-0.7353,-0.7529,-0.7373,-0.7434,-0.755,-0.7519,-0.7421,-0.7326,-0.7326,-0.7326,-0.7476,-0.8095,-0.8338,-0.8621,-0.9218,-0.9488,-0.984,-1.0626,-1.0933,-1.1408,-1.2528,-1.2892,-1.2964,-1.2741,-1.2705,-1.2705,-1.2705,-1.2705,-1.2705,-1.2705,-1.2705,-1.2705,-1.2705,-1.2705,-1.2705,-1.2705,-1.2705,-1.2705,-1.2705,-1.2705,-1.2705,-1.2705,-1.2705,-1.2705,-1.2705,-1.2705,-1.2705,-1.2705,-1.2705,-1.2705,0.0,0.0,0.0,0.0,0.0,0.0,0.0,0.0,0.0,0.0,0.0,0.0,0.0,0.0,0.0,0.0,0.0,0.0,0.0,0.0,0.0,0.0,0.0,0.0,0.0,-0.0122,-0.0613,-0.1652,-0.2578,-0.3467,-0.4387,-0.523,-0.5733,-0.5733,-0.5997,-0.6127,-0.6171,-0.6571,-0.6795,-0.6836,-0.701,-0.7095,-0.7095,-0.7095,-0.7095,-0.7098,-0.7112,-0.7122,-0.7136,-0.7333,-0.7443,-0.746,-0.7584,-0.7648,-0.7648,-0.7648,-0.7648,-0.7645,-0.7611,-0.7519,-0.746,-0.7363,-0.737,-0.737,-0.7214,-0.7275,-0.737,-0.7186,-0.7136,-0.7122,-0.7122,-0.7122,-0.7163,-0.7231,-0.7286,-0.7337,-0.7404,-0.8057,-0.8671,-0.8803,-0.9492,-1.0616,-1.24,-1.2729,-1.2741,-1.2705,-1.2705,-1.2705,-1.2705,-1.2705,-1.2705,-1.2705,-1.2705,-1.2705,-1.2705,-1.2705,-1.2705,-1.2705,-1.2705,-1.2705,-1.2705,-1.2705,-1.2705,-1.2705,-1.2705,-1.2705,-1.2705,-1.2705,-1.2705,-1.2705,-1.2705,-1.2705,0.0,0.0,0.0,0.0,0.0,0.0,0.0,0.0,0.0,0.0,0.0,0.0,0.0,0.0,0.0,0.0,0.0,0.0,0.0,0.0,0.0,0.0,0.0,0.0,0.0,0.0,-0.039,-0.1329,-0.18,-0.2678,-0.4202,-0.4692,-0.5129,-0.5688,-0.5822,-0.5952,-0.6083,-0.6305,-0.6438,-0.6567,-0.6653,-0.6786,-0.6925,-0.6925,-0.701,-0.7095,-0.7095,-0.7095,-0.7102,-0.721,-0.7238,-0.7244,-0.7309,-0.7441,-0.76,-0.76,-0.76,-0.7587,-0.7499,-0.7424,-0.7402,-0.7265,-0.7238,-0.7224,-0.7115,-0.7142,-0.7224,-0.7112,-0.7095,-0.7095,-0.7095,-0.7095,-0.7095,-0.7095,-0.7095,-0.7095,-0.7095,-0.7401,-0.7841,-0.8412,-0.8803,-0.9492,-1.0837,-1.1531,-1.2057,-1.2619,-1.2705,-1.2705,-1.2705,-1.2705,-1.2705,-1.2705,-1.2705,-1.2705,-1.2705,-1.2705,-1.2705,-1.2705,-1.2705,-1.2705,-1.2705,-1.2705,-1.2705,-1.2705,-1.2705,-1.2705,-1.2705,-1.2705,-1.2705,-1.2705,-1.2705,-1.2705,0.0,0.0,0.0,0.0,0.0,0.0,0.0,0.0,0.0,0.0,0.0,0.0,0.0,0.0,0.0,0.0,0.0,0.0,0.0,0.0,0.0,0.0,0.0,0.0,0.0,0.0,-0.0292,-0.0949,-0.1248,-0.2127,-0.3777,-0.4147,-0.4731,-0.5634,-0.5672,-0.5777,-0.5997,-0.6083,-0.6171,-0.6299,-0.6387,-0.652,-0.6704,-0.6748,-0.6881,-0.701,-0.7098,-0.7095,-0.7095,-0.7095,-0.7095,-0.7095,-0.7095,-0.723,-0.7475,-0.7475,-0.7502,-0.7516,-0.7363,-0.7309,-0.7288,-0.7132,-0.7095,-0.7095,-0.7095,-0.7095,-0.7095,-0.7095,-0.7095,-0.7095,-0.7095,-0.7095,-0.7095,-0.7095,-0.7095,-0.7095,-0.7095,-0.7095,-0.7316,-0.7973,-0.8105,-0.8408,-0.9362,-1.0274,-1.1144,-1.1832,-1.2137,-1.2314,-1.2314,-1.2534,-1.2705,-1.2705,-1.2705,-1.2705,-1.2705,-1.2705,-1.2705,-1.2705,-1.2705,-1.2705,-1.2705,-1.2705,-1.2705,-1.2705,-1.2705,-1.2705,-1.2705,-1.2705,-1.2705,-1.2705,-1.2705,-1.2705,0.0,0.0,0.0,0.0,0.0,0.0,0.0,0.0,0.0,0.0,0.0,0.0,0.0,0.0,0.0,0.0,0.0,0.0,0.0,0.0,0.0,0.0,0.0,0.0,0.0,0.0,0.0,0.0,-0.0893,-0.1804,-0.2692,-0.373,-0.4667,-0.5467,-0.5626,-0.5688,-0.5733,-0.5952,-0.6083,-0.6127,-0.6299,-0.6384,-0.6432,-0.6704,-0.6795,-0.6836,-0.701,-0.7095,-0.7095,-0.7095,-0.7095,-0.7095,-0.7095,-0.7102,-0.7109,-0.7109,-0.7251,-0.7356,-0.72,-0.7102,-0.7102,-0.7098,-0.7095,-0.7095,-0.7095,-0.7095,-0.7095,-0.7095,-0.7095,-0.7095,-0.7095,-0.7095,-0.7095,-0.7095,-0.7095,-0.7095,-0.7095,-0.7095,-0.7095,-0.7139,-0.7139,-0.7448,-0.8368,-0.9318,-0.9966,-0.9966,-1.0755,-1.1327,-1.1327,-1.2143,-1.2705,-1.2705,-1.2705,-1.2705,-1.2705,-1.2705,-1.2705,-1.2705,-1.2705,-1.2705,-1.2705,-1.2705,-1.2705,-1.2705,-1.2705,-1.2705,-1.2705,-1.2705,-1.2705,-1.2705,-1.2705,-1.2705,0.0,0.0,0.0,0.0,0.0,0.0,0.0,0.0,0.0,0.0,0.0,0.0,0.0,0.0,0.0,0.0,0.0,0.0,0.0,0.0,0.0,0.0,0.0,0.0,0.0,0.0,0.0,0.0,-0.0296,0.0,-0.1788,-0.2719,-0.3697,-0.4676,-0.5285,-0.5607,-0.5688,-0.5777,-0.5822,-0.5822,-0.5908,-0.6038,-0.6213,-0.6305,-0.639,-0.6523,-0.6609,-0.6745,-0.6881,-0.6881,-0.6966,-0.7095,-0.7095,-0.7095,-0.7109,-0.7255,-0.7326,-0.7422,-0.7428,-0.7267,-0.7112,-0.7258,-0.7224,-0.7095,-0.7095,-0.7095,-0.7095,-0.7095,-0.7095,-0.7095,-0.7095,-0.7095,-0.7095,-0.7095,-0.7095,-0.7095,-0.7095,-0.7095,-0.7095,-0.7095,-0.7095,-0.7262,-0.7676,-0.805,-0.8629,-0.9724,-1.0183,-1.0577,-1.1235,-1.1585,-1.2015,-1.2619,-1.2705,-1.2705,-1.2705,-1.2705,-1.2705,-1.2705,-1.2705,-1.2705,-1.2705,-1.2705,-1.2705,-1.2705,-1.2705,-1.2705,-1.2705,-1.2705,-1.2705,-1.2705,-1.2705,-1.2705,0.0,0.0,0.0,0.0,0.0,0.0,0.0,0.0,0.0,0.0,0.0,0.0,0.0,0.0,0.0,0.0,0.0,0.0,0.0,0.0,0.0,0.0,0.0,0.0,0.0,0.0,0.0,0.0,0.0,0.0,0.0,-0.1927,-0.2705,-0.3677,-0.4601,-0.5126,-0.5193,-0.5555,-0.5688,-0.5688,-0.5688,-0.5777,-0.5952,-0.6038,-0.6171,-0.6299,-0.6387,-0.6476,-0.6656,-0.6656,-0.6789,-0.701,-0.701,-0.7054,-0.7109,-0.7251,-0.7288,-0.7326,-0.7587,-0.7441,-0.7122,-0.7322,-0.7265,-0.7095,-0.7095,-0.7095,-0.7095,-0.7095,-0.7095,-0.7095,-0.7095,-0.7095,-0.7095,-0.7095,-0.7095,-0.7095,-0.7095,-0.7095,-0.7095,-0.7095,-0.7139,-0.7255,-0.7398,-0.7463,-0.7826,-0.8922,-0.9332,-0.986,-1.0791,-1.1159,-1.1671,-1.2619,-1.2705,-1.2705,-1.2705,-1.2705,-1.2705,-1.2705,-1.2705,-1.2705,-1.2705,-1.2705,-1.2705,-1.2705,-1.2705,-1.2705,-1.2705,-1.2705,-1.2705,-1.2705,-1.2705,-1.2705]}]]